<?xml version='1.0' encoding='UTF-8'?><gpx version="1.1" creator="JPX - https://github.com/jenetics/jpx" xmlns="http://www.topografix.com/GPX/1/1"><trk><trkseg><trkpt lat="44.83046915368462" lon="4.809493833277487"><ele>97.0</ele><time>2026-03-23T16:29:43.779Z</time></trkpt><trkpt lat="44.83053206664649" lon="4.8094133908206596"><ele>97.0</ele><time>2026-03-23T16:30:08Z</time></trkpt><trkpt lat="44.83060412390204" lon="4.8093421621147305"><ele>97.0</ele><time>2026-03-23T16:30:12Z</time></trkpt><trkpt lat="44.83068213090858" lon="4.8092450686222445"><ele>97.0</ele><time>2026-03-23T16:30:15Z</time></trkpt><trkpt lat="44.83076111146237" lon="4.809171984504062"><ele>97.0</ele><time>2026-03-23T16:30:18Z</time></trkpt><trkpt lat="44.83083025101109" lon="4.809116370456711"><ele>97.00000000000001</ele><time>2026-03-23T16:30:20Z</time></trkpt><trkpt lat="44.830896810589785" lon="4.809062115303626"><ele>97.0</ele><time>2026-03-23T16:30:22Z</time></trkpt><trkpt lat="44.83096286940598" lon="4.80901380556998"><ele>97.0</ele><time>2026-03-23T16:30:24Z</time></trkpt><trkpt lat="44.83103982014004" lon="4.8090151231557465"><ele>97.0</ele><time>2026-03-23T16:30:26Z</time></trkpt><trkpt lat="44.83112005317913" lon="4.808985463296366"><ele>97.00000000000001</ele><time>2026-03-23T16:30:28Z</time></trkpt><trkpt lat="44.83118282406196" lon="4.808905331811475"><ele>97.0</ele><time>2026-03-23T16:30:30Z</time></trkpt><trkpt lat="44.83125114901564" lon="4.808825561867574"><ele>97.00000000000001</ele><time>2026-03-23T16:30:32Z</time></trkpt><trkpt lat="44.831322171113534" lon="4.808747308741671"><ele>97.0</ele><time>2026-03-23T16:30:34Z</time></trkpt><trkpt lat="44.83139392888957" lon="4.808680231117409"><ele>97.0</ele><time>2026-03-23T16:30:36Z</time></trkpt><trkpt lat="44.831472373623306" lon="4.808612584628656"><ele>97.0</ele><time>2026-03-23T16:30:38Z</time></trkpt><trkpt lat="44.831534600448" lon="4.808536249141399"><ele>97.00000000000001</ele><time>2026-03-23T16:30:40Z</time></trkpt><trkpt lat="44.83160453292185" lon="4.808461839676754"><ele>97.0</ele><time>2026-03-23T16:30:42Z</time></trkpt><trkpt lat="44.83166400729337" lon="4.808399588122791"><ele>97.33333333333334</ele><time>2026-03-23T16:30:44Z</time></trkpt><trkpt lat="44.83173464341703" lon="4.808323949840264"><ele>97.66666666666667</ele><time>2026-03-23T16:30:47Z</time></trkpt><trkpt lat="44.831699754170614" lon="4.808206285180582"><ele>98.0</ele><time>2026-03-23T16:30:50Z</time></trkpt><trkpt lat="44.831651700200254" lon="4.808115453910277"><ele>98.33333333333334</ele><time>2026-03-23T16:30:52Z</time></trkpt><trkpt lat="44.83160394092344" lon="4.808027425295837"><ele>98.66666666666667</ele><time>2026-03-23T16:30:54Z</time></trkpt><trkpt lat="44.831547191657776" lon="4.807933790784685"><ele>99.0</ele><time>2026-03-23T16:30:56Z</time></trkpt><trkpt lat="44.83148020094752" lon="4.807852895923044"><ele>99.0</ele><time>2026-03-23T16:30:58Z</time></trkpt><trkpt lat="44.83141214162646" lon="4.8077858767038055"><ele>99.0</ele><time>2026-03-23T16:31:00Z</time></trkpt><trkpt lat="44.83133197828421" lon="4.80771187916505"><ele>99.0</ele><time>2026-03-23T16:31:02Z</time></trkpt><trkpt lat="44.83126337935649" lon="4.807632956790388"><ele>99.0</ele><time>2026-03-23T16:31:04Z</time></trkpt><trkpt lat="44.83118632499858" lon="4.807557488892825"><ele>99.0</ele><time>2026-03-23T16:31:06Z</time></trkpt><trkpt lat="44.83110823192132" lon="4.807484332157767"><ele>98.83333333333333</ele><time>2026-03-23T16:31:08Z</time></trkpt><trkpt lat="44.83104282147623" lon="4.807422648282791"><ele>98.66666666666666</ele><time>2026-03-23T16:31:10Z</time></trkpt><trkpt lat="44.83096443536217" lon="4.807349509159411"><ele>98.5</ele><time>2026-03-23T16:31:12Z</time></trkpt><trkpt lat="44.8308895973527" lon="4.807294634975247"><ele>98.33333333333333</ele><time>2026-03-23T16:31:14Z</time></trkpt><trkpt lat="44.830829731278904" lon="4.8072025213255545"><ele>98.16666666666666</ele><time>2026-03-23T16:31:16Z</time></trkpt><trkpt lat="44.83075504904833" lon="4.807112654573564"><ele>98.0</ele><time>2026-03-23T16:31:18Z</time></trkpt><trkpt lat="44.830671344190876" lon="4.80703013994776"><ele>98.0</ele><time>2026-03-23T16:31:20Z</time></trkpt><trkpt lat="44.83059057106533" lon="4.806956381731277"><ele>98.0</ele><time>2026-03-23T16:31:22Z</time></trkpt><trkpt lat="44.830511275457695" lon="4.80686903355587"><ele>98.0</ele><time>2026-03-23T16:31:24Z</time></trkpt><trkpt lat="44.83042691874367" lon="4.806800610678646"><ele>98.0</ele><time>2026-03-23T16:31:26Z</time></trkpt><trkpt lat="44.830340727014324" lon="4.806729985787935"><ele>98.0</ele><time>2026-03-23T16:31:28Z</time></trkpt><trkpt lat="44.83025107394624" lon="4.806663191629361"><ele>98.75</ele><time>2026-03-23T16:31:30Z</time></trkpt><trkpt lat="44.830156122525224" lon="4.806578324395336"><ele>99.5</ele><time>2026-03-23T16:31:32Z</time></trkpt><trkpt lat="44.830055401289854" lon="4.806494545553496"><ele>100.25</ele><time>2026-03-23T16:31:34Z</time></trkpt><trkpt lat="44.8299552147984" lon="4.806407752077117"><ele>101.0</ele><time>2026-03-23T16:31:36Z</time></trkpt><trkpt lat="44.82985094861513" lon="4.806325212589145"><ele>101.0</ele><time>2026-03-23T16:31:38Z</time></trkpt><trkpt lat="44.82975324953097" lon="4.806241849164204"><ele>101.0</ele><time>2026-03-23T16:31:40Z</time></trkpt><trkpt lat="44.82965315978599" lon="4.806156142506587"><ele>101.0</ele><time>2026-03-23T16:31:42Z</time></trkpt><trkpt lat="44.82955265906392" lon="4.80608964273579"><ele>101.0</ele><time>2026-03-23T16:31:44Z</time></trkpt><trkpt lat="44.82944588189364" lon="4.806008790642089"><ele>102.5</ele><time>2026-03-23T16:31:46Z</time></trkpt><trkpt lat="44.82934563671304" lon="4.805938820942916"><ele>104.0</ele><time>2026-03-23T16:31:48Z</time></trkpt><trkpt lat="44.829236845164466" lon="4.8058693903025675"><ele>105.5</ele><time>2026-03-23T16:31:50Z</time></trkpt><trkpt lat="44.8291332220801" lon="4.805802296786359"><ele>107.0</ele><time>2026-03-23T16:31:52Z</time></trkpt><trkpt lat="44.829024812543956" lon="4.805731064380478"><ele>107.0</ele><time>2026-03-23T16:31:54Z</time></trkpt><trkpt lat="44.82892582166385" lon="4.80566684712122"><ele>106.99999999999999</ele><time>2026-03-23T16:31:56Z</time></trkpt><trkpt lat="44.828822135790816" lon="4.8055989721364964"><ele>106.99999999999999</ele><time>2026-03-23T16:31:58Z</time></trkpt><trkpt lat="44.82872227093317" lon="4.805517109027607"><ele>107.0</ele><time>2026-03-23T16:32:00Z</time></trkpt><trkpt lat="44.828628964574634" lon="4.805443333661384"><ele>107.0</ele><time>2026-03-23T16:32:01.999Z</time></trkpt><trkpt lat="44.82853942735641" lon="4.805363194899809"><ele>107.8</ele><time>2026-03-23T16:32:03.999Z</time></trkpt><trkpt lat="44.82844771850808" lon="4.8052856751106185"><ele>108.6</ele><time>2026-03-23T16:32:05.999Z</time></trkpt><trkpt lat="44.828348901541226" lon="4.80521717649963"><ele>109.39999999999999</ele><time>2026-03-23T16:32:07.999Z</time></trkpt><trkpt lat="44.828268208595674" lon="4.8051129099342695"><ele>110.19999999999999</ele><time>2026-03-23T16:32:09.999Z</time></trkpt><trkpt lat="44.82819015554543" lon="4.805021605344377"><ele>111.0</ele><time>2026-03-23T16:32:11.999Z</time></trkpt><trkpt lat="44.82809613824677" lon="4.804961207859723"><ele>111.0</ele><time>2026-03-23T16:32:13.999Z</time></trkpt><trkpt lat="44.82799849283056" lon="4.804880888954808"><ele>111.0</ele><time>2026-03-23T16:32:15.999Z</time></trkpt><trkpt lat="44.827900287241505" lon="4.804802613167769"><ele>111.0</ele><time>2026-03-23T16:32:17.999Z</time></trkpt><trkpt lat="44.82781642055113" lon="4.80472480073705"><ele>111.0</ele><time>2026-03-23T16:32:19.999Z</time></trkpt><trkpt lat="44.82772910007013" lon="4.804642002851969"><ele>111.0</ele><time>2026-03-23T16:32:21.999Z</time></trkpt><trkpt lat="44.82764745479034" lon="4.804569685003407"><ele>110.8</ele><time>2026-03-23T16:32:23.999Z</time></trkpt><trkpt lat="44.82756553287377" lon="4.804483909351737"><ele>110.6</ele><time>2026-03-23T16:32:25.999Z</time></trkpt><trkpt lat="44.82747205526275" lon="4.804412019100833"><ele>110.4</ele><time>2026-03-23T16:32:27.999Z</time></trkpt><trkpt lat="44.827388024279735" lon="4.804327689155557"><ele>110.2</ele><time>2026-03-23T16:32:29.999Z</time></trkpt><trkpt lat="44.827303495574604" lon="4.804235003263444"><ele>110.0</ele><time>2026-03-23T16:32:31.999Z</time></trkpt><trkpt lat="44.827224892541366" lon="4.804136777003149"><ele>110.0</ele><time>2026-03-23T16:32:33.999Z</time></trkpt><trkpt lat="44.827159733957956" lon="4.804038443742001"><ele>110.0</ele><time>2026-03-23T16:32:35.999Z</time></trkpt><trkpt lat="44.8270844421357" lon="4.803953332802583"><ele>110.0</ele><time>2026-03-23T16:32:37.999Z</time></trkpt><trkpt lat="44.82700910364262" lon="4.803860322449046"><ele>110.0</ele><time>2026-03-23T16:32:39.999Z</time></trkpt><trkpt lat="44.826948025351" lon="4.803773213770317"><ele>110.0</ele><time>2026-03-23T16:32:41.999Z</time></trkpt><trkpt lat="44.82689949044137" lon="4.80369176296049"><ele>108.8</ele><time>2026-03-23T16:32:43.999Z</time></trkpt><trkpt lat="44.82680175935844" lon="4.803624199341976"><ele>107.6</ele><time>2026-03-23T16:33:06.999Z</time></trkpt><trkpt lat="44.826736552411646" lon="4.803536317120562"><ele>106.4</ele><time>2026-03-23T16:33:08.999Z</time></trkpt><trkpt lat="44.82666325644059" lon="4.803448768581832"><ele>105.2</ele><time>2026-03-23T16:33:10.999Z</time></trkpt><trkpt lat="44.82658635176497" lon="4.8033562094257904"><ele>104.0</ele><time>2026-03-23T16:33:12.999Z</time></trkpt><trkpt lat="44.826513805914715" lon="4.803256052326624"><ele>104.0</ele><time>2026-03-23T16:33:14.999Z</time></trkpt><trkpt lat="44.826455017481464" lon="4.803145080574333"><ele>104.0</ele><time>2026-03-23T16:33:16.999Z</time></trkpt><trkpt lat="44.826396695159794" lon="4.803028275749701"><ele>104.0</ele><time>2026-03-23T16:33:18.999Z</time></trkpt><trkpt lat="44.82633449694935" lon="4.8029220215028765"><ele>104.0</ele><time>2026-03-23T16:33:20.999Z</time></trkpt><trkpt lat="44.826271059886544" lon="4.802829085713523"><ele>104.0</ele><time>2026-03-23T16:33:22.999Z</time></trkpt><trkpt lat="44.82617769934558" lon="4.802807045896511"><ele>104.0</ele><time>2026-03-23T16:33:24.999Z</time></trkpt><trkpt lat="44.826077968688494" lon="4.802760204867338"><ele>104.0</ele><time>2026-03-23T16:33:26.999Z</time></trkpt><trkpt lat="44.82596191198974" lon="4.8028276099960285"><ele>104.0</ele><time>2026-03-23T16:33:28.999Z</time></trkpt><trkpt lat="44.82591950776384" lon="4.80290688633535"><ele>104.0</ele><time>2026-03-23T16:33:29.999Z</time></trkpt><trkpt lat="44.82586935726539" lon="4.8029699149105785"><ele>104.0</ele><time>2026-03-23T16:33:30.999Z</time></trkpt><trkpt lat="44.825760140519115" lon="4.803081344745402"><ele>103.0</ele><time>2026-03-23T16:33:32.999Z</time></trkpt><trkpt lat="44.825639401862176" lon="4.803026760367017"><ele>102.0</ele><time>2026-03-23T16:33:34.999Z</time></trkpt><trkpt lat="44.82560728598113" lon="4.802938601978132"><ele>101.0</ele><time>2026-03-23T16:33:35.999Z</time></trkpt><trkpt lat="44.82557697949341" lon="4.802859238544669"><ele>100.0</ele><time>2026-03-23T16:33:36.999Z</time></trkpt><trkpt lat="44.82551524405932" lon="4.802706564462353"><ele>99.0</ele><time>2026-03-23T16:33:38.999Z</time></trkpt><trkpt lat="44.82545997520477" lon="4.802575102294833"><ele>98.75</ele><time>2026-03-23T16:33:40.999Z</time></trkpt><trkpt lat="44.825408990096264" lon="4.802435819388592"><ele>98.5</ele><time>2026-03-23T16:33:42.999Z</time></trkpt><trkpt lat="44.82534842291301" lon="4.802295669396856"><ele>98.25</ele><time>2026-03-23T16:33:44.999Z</time></trkpt><trkpt lat="44.82526315156424" lon="4.80218033952201"><ele>98.0</ele><time>2026-03-23T16:33:46.999Z</time></trkpt><trkpt lat="44.82517844976798" lon="4.8020616276658945"><ele>97.75</ele><time>2026-03-23T16:33:48.999Z</time></trkpt><trkpt lat="44.82508843369939" lon="4.801941738887887"><ele>97.5</ele><time>2026-03-23T16:33:50.999Z</time></trkpt><trkpt lat="44.82500520311416" lon="4.801820025560549"><ele>97.25</ele><time>2026-03-23T16:33:52.999Z</time></trkpt><trkpt lat="44.82490677953245" lon="4.801714863693973"><ele>97.0</ele><time>2026-03-23T16:33:54.999Z</time></trkpt><trkpt lat="44.824807946909075" lon="4.801614466659156"><ele>97.0</ele><time>2026-03-23T16:33:56.999Z</time></trkpt><trkpt lat="44.8247116331474" lon="4.801515423538149"><ele>97.0</ele><time>2026-03-23T16:33:58.999Z</time></trkpt><trkpt lat="44.8246136841273" lon="4.80141271775704"><ele>97.0</ele><time>2026-03-23T16:34:00.999Z</time></trkpt><trkpt lat="44.82451975613121" lon="4.80130945328361"><ele>97.0</ele><time>2026-03-23T16:34:02.999Z</time></trkpt><trkpt lat="44.8244632934919" lon="4.801258168092734"><ele>97.0</ele><time>2026-03-23T16:34:03.999Z</time></trkpt><trkpt lat="44.824360946187824" lon="4.80115433544667"><ele>97.0</ele><time>2026-03-23T16:34:05.999Z</time></trkpt><trkpt lat="44.82426270893042" lon="4.8010463696730366"><ele>97.0</ele><time>2026-03-23T16:34:07.999Z</time></trkpt><trkpt lat="44.82416337925055" lon="4.8009540786735405"><ele>97.0</ele><time>2026-03-23T16:34:09.999Z</time></trkpt><trkpt lat="44.82405379344511" lon="4.800880639642697"><ele>97.0</ele><time>2026-03-23T16:34:11.999Z</time></trkpt><trkpt lat="44.82394562973337" lon="4.800837902587046"><ele>97.19999999999999</ele><time>2026-03-23T16:34:13.999Z</time></trkpt><trkpt lat="44.82383206864744" lon="4.800840100714892"><ele>97.4</ele><time>2026-03-23T16:34:15.999Z</time></trkpt><trkpt lat="44.82372532504582" lon="4.800848871469386"><ele>97.6</ele><time>2026-03-23T16:34:17.999Z</time></trkpt><trkpt lat="44.823618564453035" lon="4.800862734025577"><ele>97.80000000000001</ele><time>2026-03-23T16:34:19.999Z</time></trkpt><trkpt lat="44.82350815734238" lon="4.800898869598998"><ele>98.0</ele><time>2026-03-23T16:34:21.999Z</time></trkpt><trkpt lat="44.823410108505875" lon="4.800924836985158"><ele>98.0</ele><time>2026-03-23T16:34:23.999Z</time></trkpt><trkpt lat="44.823341668116434" lon="4.800931912844494"><ele>98.0</ele><time>2026-03-23T16:34:25.999Z</time></trkpt><trkpt lat="44.82338679442529" lon="4.800853039008361"><ele>98.0</ele><time>2026-03-23T16:34:30.999Z</time></trkpt><trkpt lat="44.82346985784991" lon="4.800851446528084"><ele>98.0</ele><time>2026-03-23T16:34:33.999Z</time></trkpt><trkpt lat="44.82353376056442" lon="4.800819639313515"><ele>98.0</ele><time>2026-03-23T16:34:35.999Z</time></trkpt><trkpt lat="44.82360286531584" lon="4.8007853321873"><ele>98.0</ele><time>2026-03-23T16:34:37.999Z</time></trkpt><trkpt lat="44.82366667854829" lon="4.800746263166098"><ele>98.0</ele><time>2026-03-23T16:34:39.999Z</time></trkpt><trkpt lat="44.82374705738854" lon="4.800694728011573"><ele>98.0</ele><time>2026-03-23T16:34:41.999Z</time></trkpt><trkpt lat="44.8238287547262" lon="4.800646256991262"><ele>98.0</ele><time>2026-03-23T16:34:43.999Z</time></trkpt><trkpt lat="44.82391601094883" lon="4.800577788327912"><ele>98.0</ele><time>2026-03-23T16:34:45.999Z</time></trkpt><trkpt lat="44.824004530637986" lon="4.800507229662693"><ele>98.0</ele><time>2026-03-23T16:34:47.999Z</time></trkpt><trkpt lat="44.824092406435646" lon="4.800448832224929"><ele>98.0</ele><time>2026-03-23T16:34:49.999Z</time></trkpt><trkpt lat="44.82416931891675" lon="4.800374499377447"><ele>98.0</ele><time>2026-03-23T16:34:51.999Z</time></trkpt><trkpt lat="44.82426972471305" lon="4.800337549308254"><ele>98.0</ele><time>2026-03-23T16:34:53.999Z</time></trkpt><trkpt lat="44.824337230610276" lon="4.800265858124283"><ele>98.0</ele><time>2026-03-23T16:34:55.999Z</time></trkpt><trkpt lat="44.82441297480452" lon="4.800211998477571"><ele>98.0</ele><time>2026-03-23T16:34:57.999Z</time></trkpt><trkpt lat="44.82449248060202" lon="4.800150549668887"><ele>98.0</ele><time>2026-03-23T16:34:59.999Z</time></trkpt><trkpt lat="44.824568811314236" lon="4.8000874020645306"><ele>97.66666666666666</ele><time>2026-03-23T16:35:01.999Z</time></trkpt><trkpt lat="44.82464867994172" lon="4.800027524811206"><ele>97.33333333333333</ele><time>2026-03-23T16:35:03.999Z</time></trkpt><trkpt lat="44.82472042439968" lon="4.8000007056099285"><ele>97.0</ele><time>2026-03-23T16:35:05.999Z</time></trkpt><trkpt lat="44.824791908952896" lon="4.799998836098514"><ele>96.66666666666666</ele><time>2026-03-23T16:35:08.999Z</time></trkpt><trkpt lat="44.824795489975834" lon="4.799900138660269"><ele>96.33333333333333</ele><time>2026-03-23T16:35:20.999Z</time></trkpt><trkpt lat="44.82478615093746" lon="4.799779014464205"><ele>96.0</ele><time>2026-03-23T16:35:23.999Z</time></trkpt><trkpt lat="44.824747478621305" lon="4.799702163363828"><ele>96.0</ele><time>2026-03-23T16:35:25.999Z</time></trkpt><trkpt lat="44.82469859684692" lon="4.799614316499133"><ele>96.0</ele><time>2026-03-23T16:35:27.999Z</time></trkpt><trkpt lat="44.824642523144554" lon="4.799512857084402"><ele>96.0</ele><time>2026-03-23T16:35:29.999Z</time></trkpt><trkpt lat="44.82458550238071" lon="4.799399124462359"><ele>96.0</ele><time>2026-03-23T16:35:31.999Z</time></trkpt><trkpt lat="44.82453128609703" lon="4.799288849398755"><ele>96.0</ele><time>2026-03-23T16:35:33.999Z</time></trkpt><trkpt lat="44.82447150346874" lon="4.799166449471588"><ele>95.8</ele><time>2026-03-23T16:35:35.999Z</time></trkpt><trkpt lat="44.824412373291445" lon="4.799047407655247"><ele>95.6</ele><time>2026-03-23T16:35:37.999Z</time></trkpt><trkpt lat="44.82434782212027" lon="4.798917977356577"><ele>95.4</ele><time>2026-03-23T16:35:39.999Z</time></trkpt><trkpt lat="44.8242821258201" lon="4.7987933145446995"><ele>95.2</ele><time>2026-03-23T16:35:41.999Z</time></trkpt><trkpt lat="44.82421594944066" lon="4.798656802726512"><ele>95.0</ele><time>2026-03-23T16:35:43.999Z</time></trkpt><trkpt lat="44.824151664607754" lon="4.798525754717837"><ele>95.6</ele><time>2026-03-23T16:35:45.999Z</time></trkpt><trkpt lat="44.82408440750127" lon="4.798403496398026"><ele>96.2</ele><time>2026-03-23T16:35:47.999Z</time></trkpt><trkpt lat="44.824025654052214" lon="4.798285441939071"><ele>96.80000000000001</ele><time>2026-03-23T16:35:49.999Z</time></trkpt><trkpt lat="44.823966232676305" lon="4.798172589768199"><ele>97.4</ele><time>2026-03-23T16:35:51.999Z</time></trkpt><trkpt lat="44.82391991342506" lon="4.798075934899304"><ele>98.0</ele><time>2026-03-23T16:35:53.999Z</time></trkpt><trkpt lat="44.82388098625739" lon="4.797987533808845"><ele>97.99999999999999</ele><time>2026-03-23T16:35:56.999Z</time></trkpt><trkpt lat="44.8238042555874" lon="4.7979732406347235"><ele>98.0</ele><time>2026-03-23T16:36:00.999Z</time></trkpt><trkpt lat="44.82375757107014" lon="4.798082237896037"><ele>98.0</ele><time>2026-03-23T16:36:02.999Z</time></trkpt><trkpt lat="44.82372998041998" lon="4.798204007213867"><ele>98.0</ele><time>2026-03-23T16:36:04.999Z</time></trkpt><trkpt lat="44.82370914826799" lon="4.7983295512277095"><ele>97.99999999999999</ele><time>2026-03-23T16:36:06.999Z</time></trkpt><trkpt lat="44.82366159087526" lon="4.7984422474072375"><ele>98.0</ele><time>2026-03-23T16:36:08.998Z</time></trkpt><trkpt lat="44.82360366810505" lon="4.798559005368091"><ele>97.80000000000001</ele><time>2026-03-23T16:36:10.998Z</time></trkpt><trkpt lat="44.82353166733716" lon="4.798699344199427"><ele>97.6</ele><time>2026-03-23T16:36:12.998Z</time></trkpt><trkpt lat="44.82348590203063" lon="4.798794538505675"><ele>97.4</ele><time>2026-03-23T16:36:13.998Z</time></trkpt><trkpt lat="44.82344013622474" lon="4.798897621146927"><ele>97.19999999999999</ele><time>2026-03-23T16:36:14.998Z</time></trkpt><trkpt lat="44.82338829730705" lon="4.799007964271737"><ele>97.0</ele><time>2026-03-23T16:36:15.998Z</time></trkpt><trkpt lat="44.8233316617076" lon="4.799109772357766"><ele>97.00000000000001</ele><time>2026-03-23T16:36:16.998Z</time></trkpt><trkpt lat="44.82327103711069" lon="4.799189604950185"><ele>97.0</ele><time>2026-03-23T16:36:17.998Z</time></trkpt><trkpt lat="44.82320343217826" lon="4.799256246100456"><ele>97.0</ele><time>2026-03-23T16:36:18.998Z</time></trkpt><trkpt lat="44.823137593070975" lon="4.799307095406555"><ele>97.0</ele><time>2026-03-23T16:36:19.998Z</time></trkpt><trkpt lat="44.82306826021123" lon="4.799357567787648"><ele>97.00000000000001</ele><time>2026-03-23T16:36:20.998Z</time></trkpt><trkpt lat="44.8230101779916" lon="4.7994215702983976"><ele>97.0</ele><time>2026-03-23T16:36:21.998Z</time></trkpt><trkpt lat="44.822960176611424" lon="4.799492919949937"><ele>97.14285714285714</ele><time>2026-03-23T16:36:22.998Z</time></trkpt><trkpt lat="44.82289414531997" lon="4.79954486429841"><ele>97.28571428571429</ele><time>2026-03-23T16:36:23.998Z</time></trkpt><trkpt lat="44.8228292116657" lon="4.799575740753878"><ele>97.42857142857143</ele><time>2026-03-23T16:36:24.998Z</time></trkpt><trkpt lat="44.822758437059605" lon="4.799585941985385"><ele>97.57142857142857</ele><time>2026-03-23T16:36:25.998Z</time></trkpt><trkpt lat="44.82269130940641" lon="4.799601149645774"><ele>97.71428571428572</ele><time>2026-03-23T16:36:26.998Z</time></trkpt><trkpt lat="44.822627039315975" lon="4.7996284479473905"><ele>97.85714285714286</ele><time>2026-03-23T16:36:27.998Z</time></trkpt><trkpt lat="44.82256790875946" lon="4.799668814583429"><ele>98.0</ele><time>2026-03-23T16:36:28.998Z</time></trkpt><trkpt lat="44.82250921785915" lon="4.799706978718765"><ele>97.99999999999999</ele><time>2026-03-23T16:36:29.998Z</time></trkpt><trkpt lat="44.82245013138606" lon="4.799746824921029"><ele>98.0</ele><time>2026-03-23T16:36:30.998Z</time></trkpt><trkpt lat="44.82234210266936" lon="4.799822316020097"><ele>98.0</ele><time>2026-03-23T16:36:32.998Z</time></trkpt><trkpt lat="44.82227917965935" lon="4.799863954818966"><ele>98.0</ele><time>2026-03-23T16:36:33.998Z</time></trkpt><trkpt lat="44.8221743679846" lon="4.7999486198835495"><ele>97.99999999999999</ele><time>2026-03-23T16:36:35.998Z</time></trkpt><trkpt lat="44.82211968514499" lon="4.800000553528509"><ele>98.0</ele><time>2026-03-23T16:36:36.998Z</time></trkpt><trkpt lat="44.82204442040425" lon="4.800140584208028"><ele>97.83333333333333</ele><time>2026-03-23T16:36:38.998Z</time></trkpt><trkpt lat="44.82201551430788" lon="4.800223056085276"><ele>97.66666666666666</ele><time>2026-03-23T16:36:39.998Z</time></trkpt><trkpt lat="44.82198432198682" lon="4.800302645813684"><ele>97.5</ele><time>2026-03-23T16:36:40.998Z</time></trkpt><trkpt lat="44.82194661596217" lon="4.800382582107891"><ele>97.33333333333334</ele><time>2026-03-23T16:36:41.998Z</time></trkpt><trkpt lat="44.82186989019945" lon="4.800521073104323"><ele>97.16666666666667</ele><time>2026-03-23T16:36:43.998Z</time></trkpt><trkpt lat="44.82181163766989" lon="4.800558213698704"><ele>97.0</ele><time>2026-03-23T16:36:44.998Z</time></trkpt><trkpt lat="44.82169444853467" lon="4.80062312069006"><ele>96.57142857142857</ele><time>2026-03-23T16:36:46.998Z</time></trkpt><trkpt lat="44.82163405149694" lon="4.800653399163082"><ele>96.14285714285715</ele><time>2026-03-23T16:36:47.998Z</time></trkpt><trkpt lat="44.821571170383166" lon="4.800694999376431"><ele>95.71428571428572</ele><time>2026-03-23T16:36:48.998Z</time></trkpt><trkpt lat="44.82150806455335" lon="4.800736059630956"><ele>95.28571428571428</ele><time>2026-03-23T16:36:49.998Z</time></trkpt><trkpt lat="44.82144551804409" lon="4.800771145734117"><ele>94.85714285714286</ele><time>2026-03-23T16:36:50.998Z</time></trkpt><trkpt lat="44.82138476834182" lon="4.800801150804591"><ele>94.42857142857143</ele><time>2026-03-23T16:36:51.998Z</time></trkpt><trkpt lat="44.82132346117315" lon="4.800832930858994"><ele>94.0</ele><time>2026-03-23T16:36:52.998Z</time></trkpt><trkpt lat="44.8212597425093" lon="4.800858598666698"><ele>94.0</ele><time>2026-03-23T16:36:53.998Z</time></trkpt><trkpt lat="44.82119562623257" lon="4.800885608539905"><ele>94.0</ele><time>2026-03-23T16:36:54.998Z</time></trkpt><trkpt lat="44.82107253923479" lon="4.800936720701895"><ele>94.0</ele><time>2026-03-23T16:36:56.998Z</time></trkpt><trkpt lat="44.82099983289074" lon="4.800947354853152"><ele>94.0</ele><time>2026-03-23T16:36:57.998Z</time></trkpt><trkpt lat="44.82092921660101" lon="4.800962379380953"><ele>94.0</ele><time>2026-03-23T16:36:58.998Z</time></trkpt><trkpt lat="44.82085846787207" lon="4.800975124384428"><ele>94.0</ele><time>2026-03-23T16:36:59.998Z</time></trkpt><trkpt lat="44.82079206743525" lon="4.800989479447648"><ele>93.71428571428571</ele><time>2026-03-23T16:37:00.998Z</time></trkpt><trkpt lat="44.82072735463207" lon="4.801003401888537"><ele>93.42857142857142</ele><time>2026-03-23T16:37:01.998Z</time></trkpt><trkpt lat="44.82066284961644" lon="4.8010169656082935"><ele>93.14285714285714</ele><time>2026-03-23T16:37:02.998Z</time></trkpt><trkpt lat="44.82059757169553" lon="4.8010286924727446"><ele>92.85714285714286</ele><time>2026-03-23T16:37:03.998Z</time></trkpt><trkpt lat="44.82053359545518" lon="4.801041176339739"><ele>92.57142857142857</ele><time>2026-03-23T16:37:04.998Z</time></trkpt><trkpt lat="44.82046970775596" lon="4.80104867422673"><ele>92.28571428571429</ele><time>2026-03-23T16:37:05.998Z</time></trkpt><trkpt lat="44.82039873202627" lon="4.801055048213012"><ele>92.0</ele><time>2026-03-23T16:37:06.998Z</time></trkpt><trkpt lat="44.82033063467" lon="4.8010687826717335"><ele>92.0</ele><time>2026-03-23T16:37:07.998Z</time></trkpt><trkpt lat="44.82019963051464" lon="4.801083013922031"><ele>92.0</ele><time>2026-03-23T16:37:09.998Z</time></trkpt><trkpt lat="44.8200787681672" lon="4.801102054712654"><ele>92.0</ele><time>2026-03-23T16:37:11.998Z</time></trkpt><trkpt lat="44.8199532372842" lon="4.801116464674717"><ele>92.0</ele><time>2026-03-23T16:37:13.998Z</time></trkpt><trkpt lat="44.81982280232657" lon="4.801128995499466"><ele>92.6</ele><time>2026-03-23T16:37:15.998Z</time></trkpt><trkpt lat="44.81975889766966" lon="4.8011264506319495"><ele>93.19999999999999</ele><time>2026-03-23T16:37:16.998Z</time></trkpt><trkpt lat="44.81963079333977" lon="4.801135364650429"><ele>93.8</ele><time>2026-03-23T16:37:18.998Z</time></trkpt><trkpt lat="44.81956208671344" lon="4.80113857441205"><ele>94.4</ele><time>2026-03-23T16:37:19.998Z</time></trkpt><trkpt lat="44.81943657375069" lon="4.801150601485947"><ele>95.0</ele><time>2026-03-23T16:37:21.998Z</time></trkpt><trkpt lat="44.81937540438806" lon="4.801172129616811"><ele>95.2</ele><time>2026-03-23T16:37:22.998Z</time></trkpt><trkpt lat="44.81925018112609" lon="4.801198755115785"><ele>95.4</ele><time>2026-03-23T16:37:24.998Z</time></trkpt><trkpt lat="44.81918195503537" lon="4.801204720319883"><ele>95.6</ele><time>2026-03-23T16:37:25.998Z</time></trkpt><trkpt lat="44.81911572772497" lon="4.801221795024459"><ele>95.8</ele><time>2026-03-23T16:37:26.998Z</time></trkpt><trkpt lat="44.81898371170544" lon="4.801240050564991"><ele>96.0</ele><time>2026-03-23T16:37:28.998Z</time></trkpt><trkpt lat="44.818870480032466" lon="4.80126748580955"><ele>96.0</ele><time>2026-03-23T16:37:30.998Z</time></trkpt><trkpt lat="44.81879771616155" lon="4.801269556977079"><ele>96.0</ele><time>2026-03-23T16:37:31.998Z</time></trkpt><trkpt lat="44.81867018580757" lon="4.801287101757824"><ele>96.0</ele><time>2026-03-23T16:37:33.998Z</time></trkpt><trkpt lat="44.81855054657552" lon="4.801315574794391"><ele>96.0</ele><time>2026-03-23T16:37:35.998Z</time></trkpt><trkpt lat="44.818437357082665" lon="4.801337217153956"><ele>96.0</ele><time>2026-03-23T16:37:37.998Z</time></trkpt><trkpt lat="44.81837172647609" lon="4.801341886665494"><ele>95.5</ele><time>2026-03-23T16:37:38.998Z</time></trkpt><trkpt lat="44.818247844894415" lon="4.801356766364792"><ele>95.0</ele><time>2026-03-23T16:37:40.998Z</time></trkpt><trkpt lat="44.818133174099735" lon="4.801388443950955"><ele>94.5</ele><time>2026-03-23T16:37:42.998Z</time></trkpt><trkpt lat="44.818022340865326" lon="4.801394943093805"><ele>94.0</ele><time>2026-03-23T16:37:44.998Z</time></trkpt><trkpt lat="44.81791187834639" lon="4.801407786397517"><ele>94.0</ele><time>2026-03-23T16:37:46.998Z</time></trkpt><trkpt lat="44.81780169400222" lon="4.80141532677521"><ele>94.0</ele><time>2026-03-23T16:37:48.998Z</time></trkpt><trkpt lat="44.817700210464885" lon="4.801439174086511"><ele>94.0</ele><time>2026-03-23T16:37:50.998Z</time></trkpt><trkpt lat="44.81759383539329" lon="4.801445405285875"><ele>94.0</ele><time>2026-03-23T16:37:52.998Z</time></trkpt><trkpt lat="44.81748233752145" lon="4.8014533376688115"><ele>94.0</ele><time>2026-03-23T16:37:54.998Z</time></trkpt><trkpt lat="44.81736922267085" lon="4.801461297383387"><ele>94.2</ele><time>2026-03-23T16:37:56.998Z</time></trkpt><trkpt lat="44.81726096369387" lon="4.801468423369282"><ele>94.4</ele><time>2026-03-23T16:37:58.998Z</time></trkpt><trkpt lat="44.81715100517044" lon="4.801479183114345"><ele>94.6</ele><time>2026-03-23T16:38:00.998Z</time></trkpt><trkpt lat="44.81704744720703" lon="4.801476523834916"><ele>94.8</ele><time>2026-03-23T16:38:02.998Z</time></trkpt><trkpt lat="44.81694202734214" lon="4.801476939735175"><ele>95.0</ele><time>2026-03-23T16:38:04.998Z</time></trkpt><trkpt lat="44.816837129103334" lon="4.801469255677776"><ele>94.8</ele><time>2026-03-23T16:38:06.998Z</time></trkpt><trkpt lat="44.81674371688817" lon="4.8014166040111546"><ele>94.6</ele><time>2026-03-23T16:38:08.998Z</time></trkpt><trkpt lat="44.81665854805625" lon="4.801310561121384"><ele>94.4</ele><time>2026-03-23T16:38:10.998Z</time></trkpt><trkpt lat="44.81658560987461" lon="4.801203328439684"><ele>94.2</ele><time>2026-03-23T16:38:12.998Z</time></trkpt><trkpt lat="44.8165054570314" lon="4.801091988722628"><ele>94.0</ele><time>2026-03-23T16:38:14.998Z</time></trkpt><trkpt lat="44.81642551913748" lon="4.8009663367411495"><ele>94.0</ele><time>2026-03-23T16:38:16.998Z</time></trkpt><trkpt lat="44.81635896288703" lon="4.8008399023137205"><ele>94.0</ele><time>2026-03-23T16:38:18.998Z</time></trkpt><trkpt lat="44.81628900969721" lon="4.8007143014154545"><ele>94.0</ele><time>2026-03-23T16:38:20.998Z</time></trkpt><trkpt lat="44.81621271958444" lon="4.800585124335415"><ele>94.0</ele><time>2026-03-23T16:38:22.998Z</time></trkpt><trkpt lat="44.81612901709725" lon="4.800467573125469"><ele>94.0</ele><time>2026-03-23T16:38:24.998Z</time></trkpt><trkpt lat="44.8160653818828" lon="4.800354407586632"><ele>94.0</ele><time>2026-03-23T16:38:26.998Z</time></trkpt><trkpt lat="44.81598611210848" lon="4.800246847408518"><ele>94.0</ele><time>2026-03-23T16:38:28.998Z</time></trkpt><trkpt lat="44.8159105606893" lon="4.800134073100326"><ele>94.0</ele><time>2026-03-23T16:38:30.998Z</time></trkpt><trkpt lat="44.81584298563495" lon="4.800006283035973"><ele>94.0</ele><time>2026-03-23T16:38:32.998Z</time></trkpt><trkpt lat="44.8157745230928" lon="4.799890496618491"><ele>94.0</ele><time>2026-03-23T16:38:34.998Z</time></trkpt><trkpt lat="44.81571334517524" lon="4.799782813334722"><ele>94.0</ele><time>2026-03-23T16:38:36.998Z</time></trkpt><trkpt lat="44.815640905478126" lon="4.7996722949856245"><ele>94.0</ele><time>2026-03-23T16:38:38.998Z</time></trkpt><trkpt lat="44.81559353431594" lon="4.799611692569879"><ele>94.0</ele><time>2026-03-23T16:38:39.998Z</time></trkpt><trkpt lat="44.8155225744303" lon="4.799487156134144"><ele>94.0</ele><time>2026-03-23T16:38:41.998Z</time></trkpt><trkpt lat="44.81546908201783" lon="4.799341848005725"><ele>94.0</ele><time>2026-03-23T16:38:43.998Z</time></trkpt><trkpt lat="44.81549527294947" lon="4.7991988690880225"><ele>94.0</ele><time>2026-03-23T16:38:45.998Z</time></trkpt><trkpt lat="44.8155753192642" lon="4.799146714572074"><ele>94.0</ele><time>2026-03-23T16:38:47.998Z</time></trkpt><trkpt lat="44.8156604802877" lon="4.799116525215735"><ele>94.0</ele><time>2026-03-23T16:38:50.998Z</time></trkpt><trkpt lat="44.81574942837079" lon="4.799063445881568"><ele>94.0</ele><time>2026-03-23T16:38:54.998Z</time></trkpt><trkpt lat="44.81571705731854" lon="4.798983094283667"><ele>94.0</ele><time>2026-03-23T16:38:57.998Z</time></trkpt><trkpt lat="44.815646379921915" lon="4.799009214828011"><ele>94.0</ele><time>2026-03-23T16:39:01.998Z</time></trkpt><trkpt lat="44.815571020187186" lon="4.799003199507726"><ele>94.0</ele><time>2026-03-23T16:39:04.998Z</time></trkpt><trkpt lat="44.81547858165535" lon="4.799007625749612"><ele>94.0</ele><time>2026-03-23T16:39:07.998Z</time></trkpt><trkpt lat="44.81539358001541" lon="4.7990190371151185"><ele>94.0</ele><time>2026-03-23T16:39:10.998Z</time></trkpt><trkpt lat="44.81530509623788" lon="4.798996452242327"><ele>94.0</ele><time>2026-03-23T16:39:13.998Z</time></trkpt><trkpt lat="44.815205413964634" lon="4.798993160155446"><ele>94.0</ele><time>2026-03-23T16:39:16.998Z</time></trkpt><trkpt lat="44.81512952444205" lon="4.7989817818583695"><ele>94.83333333333333</ele><time>2026-03-23T16:39:18.998Z</time></trkpt><trkpt lat="44.81505677558917" lon="4.7989745694221435"><ele>95.66666666666666</ele><time>2026-03-23T16:39:20.998Z</time></trkpt><trkpt lat="44.81495426708047" lon="4.798953550423962"><ele>96.5</ele><time>2026-03-23T16:39:23.998Z</time></trkpt><trkpt lat="44.81487116608899" lon="4.798936265624595"><ele>97.33333333333333</ele><time>2026-03-23T16:39:25.998Z</time></trkpt><trkpt lat="44.814793351130675" lon="4.798916605586539"><ele>98.16666666666667</ele><time>2026-03-23T16:39:27.998Z</time></trkpt><trkpt lat="44.814715453274616" lon="4.7988878507490025"><ele>99.0</ele><time>2026-03-23T16:39:29.998Z</time></trkpt><trkpt lat="44.81462880887825" lon="4.798846312733514"><ele>99.0</ele><time>2026-03-23T16:39:31.998Z</time></trkpt><trkpt lat="44.814545288385034" lon="4.798836643254427"><ele>99.0</ele><time>2026-03-23T16:39:33.998Z</time></trkpt><trkpt lat="44.81446764482974" lon="4.798814353256234"><ele>99.0</ele><time>2026-03-23T16:39:35.998Z</time></trkpt><trkpt lat="44.814383427519246" lon="4.7988029759922135"><ele>99.0</ele><time>2026-03-23T16:39:37.998Z</time></trkpt><trkpt lat="44.81429738056248" lon="4.7987829995070035"><ele>99.0</ele><time>2026-03-23T16:39:39.998Z</time></trkpt><trkpt lat="44.814209841927244" lon="4.7987537824735105"><ele>99.0</ele><time>2026-03-23T16:39:41.998Z</time></trkpt><trkpt lat="44.81412689928352" lon="4.798728069171117"><ele>98.6</ele><time>2026-03-23T16:39:43.998Z</time></trkpt><trkpt lat="44.814046997433145" lon="4.798697202249966"><ele>98.2</ele><time>2026-03-23T16:39:45.998Z</time></trkpt><trkpt lat="44.813950856280016" lon="4.79867753849135"><ele>97.8</ele><time>2026-03-23T16:39:47.998Z</time></trkpt><trkpt lat="44.813860634646325" lon="4.7986431181926585"><ele>97.39999999999999</ele><time>2026-03-23T16:39:49.998Z</time></trkpt><trkpt lat="44.81375531677332" lon="4.798607936650516"><ele>97.0</ele><time>2026-03-23T16:39:51.998Z</time></trkpt><trkpt lat="44.81365960393316" lon="4.798576832155479"><ele>97.00000000000001</ele><time>2026-03-23T16:39:53.998Z</time></trkpt><trkpt lat="44.81356519636585" lon="4.798543416082249"><ele>97.0</ele><time>2026-03-23T16:39:55.998Z</time></trkpt><trkpt lat="44.8134865247863" lon="4.798504377948216"><ele>97.0</ele><time>2026-03-23T16:39:57.998Z</time></trkpt><trkpt lat="44.813402156483775" lon="4.798471303180717"><ele>97.0</ele><time>2026-03-23T16:40:00.998Z</time></trkpt><trkpt lat="44.813432213036705" lon="4.798375432094769"><ele>97.00000000000001</ele><time>2026-03-23T16:40:03.998Z</time></trkpt><trkpt lat="44.81346579113455" lon="4.798289413654089"><ele>97.0</ele><time>2026-03-23T16:40:06.998Z</time></trkpt><trkpt lat="44.813505199232466" lon="4.798204948943085"><ele>97.28571428571428</ele><time>2026-03-23T16:40:10.998Z</time></trkpt><trkpt lat="44.813538585849145" lon="4.798129169572898"><ele>97.57142857142858</ele><time>2026-03-23T16:40:14.998Z</time></trkpt><trkpt lat="44.813599118545696" lon="4.798096093930029"><ele>97.85714285714286</ele><time>2026-03-23T16:40:18.997Z</time></trkpt><trkpt lat="44.81366630561112" lon="4.798069368414386"><ele>98.14285714285714</ele><time>2026-03-23T16:40:22.997Z</time></trkpt><trkpt lat="44.813731554458855" lon="4.798031814424878"><ele>98.42857142857142</ele><time>2026-03-23T16:40:26.997Z</time></trkpt><trkpt lat="44.81378833573543" lon="4.797943443613885"><ele>98.71428571428572</ele><time>2026-03-23T16:40:30.997Z</time></trkpt><trkpt lat="44.81380800246652" lon="4.797851789885559"><ele>99.0</ele><time>2026-03-23T16:40:33.997Z</time></trkpt><trkpt lat="44.81382440163046" lon="4.797765088843306"><ele>100.5</ele><time>2026-03-23T16:40:36.997Z</time></trkpt><trkpt lat="44.813850520695915" lon="4.797653907821398"><ele>102.0</ele><time>2026-03-23T16:40:40.997Z</time></trkpt><trkpt lat="44.8138682322149" lon="4.797548901672859"><ele>103.5</ele><time>2026-03-23T16:40:44.997Z</time></trkpt><trkpt lat="44.81381503482319" lon="4.797476094922826"><ele>105.0</ele><time>2026-03-23T16:40:48.997Z</time></trkpt><trkpt lat="44.81376861018167" lon="4.79741061719665"><ele>106.5</ele><time>2026-03-23T16:40:51.997Z</time></trkpt><trkpt lat="44.81370427445591" lon="4.797321916085501"><ele>108.0</ele><time>2026-03-23T16:40:55.997Z</time></trkpt><trkpt lat="44.813653619975376" lon="4.797259569213949"><ele>108.0</ele><time>2026-03-23T16:40:58.997Z</time></trkpt><trkpt lat="44.8135959408954" lon="4.797197480159993"><ele>108.0</ele><time>2026-03-23T16:41:01.997Z</time></trkpt><trkpt lat="44.8135395882461" lon="4.797132745167542"><ele>108.0</ele><time>2026-03-23T16:41:04.997Z</time></trkpt><trkpt lat="44.813483277622936" lon="4.797077270860435"><ele>108.0</ele><time>2026-03-23T16:41:07.997Z</time></trkpt><trkpt lat="44.81342436768092" lon="4.797021095614889"><ele>108.0</ele><time>2026-03-23T16:41:10.997Z</time></trkpt><trkpt lat="44.81335185136374" lon="4.796969468389719"><ele>108.0</ele><time>2026-03-23T16:41:13.997Z</time></trkpt><trkpt lat="44.81327565800454" lon="4.796910468168105"><ele>108.71428571428571</ele><time>2026-03-23T16:41:16.997Z</time></trkpt><trkpt lat="44.813215421055965" lon="4.796868228376648"><ele>109.42857142857142</ele><time>2026-03-23T16:41:18.997Z</time></trkpt><trkpt lat="44.81316289931746" lon="4.796812576336156"><ele>110.14285714285714</ele><time>2026-03-23T16:41:20.997Z</time></trkpt><trkpt lat="44.81310386552593" lon="4.7967646609302745"><ele>110.85714285714286</ele><time>2026-03-23T16:41:22.997Z</time></trkpt><trkpt lat="44.81304345923485" lon="4.796693879690079"><ele>111.57142857142857</ele><time>2026-03-23T16:41:24.997Z</time></trkpt><trkpt lat="44.81298127876843" lon="4.796623093377394"><ele>112.28571428571429</ele><time>2026-03-23T16:41:26.997Z</time></trkpt><trkpt lat="44.8129228809409" lon="4.796552752384751"><ele>113.0</ele><time>2026-03-23T16:41:28.997Z</time></trkpt><trkpt lat="44.81286437768465" lon="4.796472068804553"><ele>113.0</ele><time>2026-03-23T16:41:30.997Z</time></trkpt><trkpt lat="44.81280273548047" lon="4.796393856471444"><ele>113.00000000000001</ele><time>2026-03-23T16:41:32.997Z</time></trkpt><trkpt lat="44.812740936226085" lon="4.796304194424731"><ele>113.00000000000001</ele><time>2026-03-23T16:41:34.997Z</time></trkpt><trkpt lat="44.81266580764496" lon="4.7962171714972825"><ele>113.0</ele><time>2026-03-23T16:41:36.997Z</time></trkpt><trkpt lat="44.81258664291575" lon="4.796131418343011"><ele>113.0</ele><time>2026-03-23T16:41:38.997Z</time></trkpt><trkpt lat="44.81249586470437" lon="4.796039981861156"><ele>112.2</ele><time>2026-03-23T16:41:40.997Z</time></trkpt><trkpt lat="44.81240950132082" lon="4.795942569325729"><ele>111.4</ele><time>2026-03-23T16:41:42.997Z</time></trkpt><trkpt lat="44.81233266471811" lon="4.795844116480398"><ele>110.60000000000001</ele><time>2026-03-23T16:41:44.997Z</time></trkpt><trkpt lat="44.81233096772307" lon="4.795698515424783"><ele>109.80000000000001</ele><time>2026-03-23T16:41:46.997Z</time></trkpt><trkpt lat="44.81237382078613" lon="4.795589838899839"><ele>109.0</ele><time>2026-03-23T16:41:48.997Z</time></trkpt><trkpt lat="44.8124093771411" lon="4.795481384281966"><ele>109.00000000000001</ele><time>2026-03-23T16:41:50.997Z</time></trkpt><trkpt lat="44.81244564746768" lon="4.795367712029484"><ele>109.0</ele><time>2026-03-23T16:41:52.997Z</time></trkpt><trkpt lat="44.812480415850416" lon="4.795255494171449"><ele>109.0</ele><time>2026-03-23T16:41:54.997Z</time></trkpt><trkpt lat="44.81251112697912" lon="4.795152088470902"><ele>109.0</ele><time>2026-03-23T16:41:56.997Z</time></trkpt><trkpt lat="44.812539890119695" lon="4.7950493116596995"><ele>109.00000000000001</ele><time>2026-03-23T16:41:58.997Z</time></trkpt><trkpt lat="44.81256012542511" lon="4.794952082940381"><ele>109.0</ele><time>2026-03-23T16:42:00.997Z</time></trkpt><trkpt lat="44.812575107939054" lon="4.794858434074623"><ele>109.28571428571429</ele><time>2026-03-23T16:42:02.997Z</time></trkpt><trkpt lat="44.81260105411536" lon="4.7947774309745395"><ele>109.57142857142858</ele><time>2026-03-23T16:42:04.997Z</time></trkpt><trkpt lat="44.812648101193446" lon="4.79470635574555"><ele>109.85714285714286</ele><time>2026-03-23T16:42:06.997Z</time></trkpt><trkpt lat="44.812719310315636" lon="4.794678950452207"><ele>110.14285714285714</ele><time>2026-03-23T16:42:08.997Z</time></trkpt><trkpt lat="44.812782018121055" lon="4.794637724769052"><ele>110.42857142857143</ele><time>2026-03-23T16:42:10.997Z</time></trkpt><trkpt lat="44.81285836921551" lon="4.794595985684752"><ele>110.71428571428571</ele><time>2026-03-23T16:42:12.997Z</time></trkpt><trkpt lat="44.812927331103175" lon="4.794555967968803"><ele>111.0</ele><time>2026-03-23T16:42:14.997Z</time></trkpt><trkpt lat="44.81300292419026" lon="4.794536969289722"><ele>112.16666666666667</ele><time>2026-03-23T16:42:16.997Z</time></trkpt><trkpt lat="44.813078568274015" lon="4.7945159040180645"><ele>113.33333333333334</ele><time>2026-03-23T16:42:18.997Z</time></trkpt><trkpt lat="44.813154234201704" lon="4.794469804052018"><ele>114.5</ele><time>2026-03-23T16:42:20.997Z</time></trkpt><trkpt lat="44.81323197819376" lon="4.794450669413873"><ele>115.66666666666667</ele><time>2026-03-23T16:42:22.997Z</time></trkpt><trkpt lat="44.81330240013219" lon="4.794431273278828"><ele>116.83333333333334</ele><time>2026-03-23T16:42:24.997Z</time></trkpt><trkpt lat="44.813379760350315" lon="4.794434687316195"><ele>118.0</ele><time>2026-03-23T16:42:26.997Z</time></trkpt><trkpt lat="44.81344387041049" lon="4.794437178864842"><ele>118.66666666666667</ele><time>2026-03-23T16:43:36.997Z</time></trkpt><trkpt lat="44.81350809327252" lon="4.794427078712161"><ele>119.33333333333334</ele><time>2026-03-23T16:43:39.997Z</time></trkpt><trkpt lat="44.81357505623245" lon="4.79443854390279"><ele>120.0</ele><time>2026-03-23T16:43:41.997Z</time></trkpt><trkpt lat="44.81368062161562" lon="4.794455025423988"><ele>120.66666666666666</ele><time>2026-03-23T16:43:44.997Z</time></trkpt><trkpt lat="44.81376493135944" lon="4.794470462136164"><ele>121.33333333333333</ele><time>2026-03-23T16:43:47.997Z</time></trkpt><trkpt lat="44.81383909626517" lon="4.794488019331596"><ele>122.0</ele><time>2026-03-23T16:43:49.997Z</time></trkpt><trkpt lat="44.81391039746895" lon="4.79448727180156"><ele>122.0</ele><time>2026-03-23T16:43:51.997Z</time></trkpt><trkpt lat="44.8139925033521" lon="4.794486962909214"><ele>121.99999999999999</ele><time>2026-03-23T16:43:53.997Z</time></trkpt><trkpt lat="44.81406714622916" lon="4.794471959516463"><ele>121.99999999999999</ele><time>2026-03-23T16:43:55.997Z</time></trkpt><trkpt lat="44.81415371117025" lon="4.794432038892096"><ele>122.0</ele><time>2026-03-23T16:43:57.997Z</time></trkpt><trkpt lat="44.81425067527562" lon="4.794392845874069"><ele>122.0</ele><time>2026-03-23T16:43:59.997Z</time></trkpt><trkpt lat="44.81434034009456" lon="4.794324885213881"><ele>121.8</ele><time>2026-03-23T16:44:01.997Z</time></trkpt><trkpt lat="44.81443690272814" lon="4.79425662649449"><ele>121.6</ele><time>2026-03-23T16:44:03.997Z</time></trkpt><trkpt lat="44.81451672410096" lon="4.794178762928502"><ele>121.39999999999999</ele><time>2026-03-23T16:44:05.997Z</time></trkpt><trkpt lat="44.81458357663856" lon="4.794087160823462"><ele>121.19999999999999</ele><time>2026-03-23T16:44:07.997Z</time></trkpt><trkpt lat="44.81464972715794" lon="4.7940021069746495"><ele>121.0</ele><time>2026-03-23T16:44:09.997Z</time></trkpt><trkpt lat="44.81470424760063" lon="4.793908027003827"><ele>121.00000000000001</ele><time>2026-03-23T16:44:11.997Z</time></trkpt><trkpt lat="44.81475823207225" lon="4.793809615195088"><ele>121.0</ele><time>2026-03-23T16:44:13.997Z</time></trkpt><trkpt lat="44.81479894727571" lon="4.793712174172432"><ele>121.0</ele><time>2026-03-23T16:44:15.997Z</time></trkpt><trkpt lat="44.814826285454366" lon="4.793608467422426"><ele>121.0</ele><time>2026-03-23T16:44:17.997Z</time></trkpt><trkpt lat="44.8148494270304" lon="4.793507622920838"><ele>121.00000000000001</ele><time>2026-03-23T16:44:19.997Z</time></trkpt><trkpt lat="44.81485563975754" lon="4.7933873391111534"><ele>121.0</ele><time>2026-03-23T16:44:21.997Z</time></trkpt><trkpt lat="44.81484532869288" lon="4.793288376918127"><ele>120.16666666666667</ele><time>2026-03-23T16:44:23.996Z</time></trkpt><trkpt lat="44.81485308866884" lon="4.793179696811496"><ele>119.33333333333334</ele><time>2026-03-23T16:44:25.996Z</time></trkpt><trkpt lat="44.8148364522096" lon="4.793067025924148"><ele>118.5</ele><time>2026-03-23T16:44:27.996Z</time></trkpt><trkpt lat="44.814829850908204" lon="4.792947870942219"><ele>117.66666666666666</ele><time>2026-03-23T16:44:29.996Z</time></trkpt><trkpt lat="44.814822843468384" lon="4.792825021290966"><ele>116.83333333333333</ele><time>2026-03-23T16:44:31.996Z</time></trkpt><trkpt lat="44.814800694450085" lon="4.792713442373491"><ele>116.0</ele><time>2026-03-23T16:44:33.996Z</time></trkpt><trkpt lat="44.8147958416457" lon="4.792603152412202"><ele>115.66666666666666</ele><time>2026-03-23T16:44:35.996Z</time></trkpt><trkpt lat="44.814798838173665" lon="4.792488033556247"><ele>115.33333333333333</ele><time>2026-03-23T16:44:37.996Z</time></trkpt><trkpt lat="44.81479702053853" lon="4.792369685442758"><ele>115.0</ele><time>2026-03-23T16:44:39.996Z</time></trkpt><trkpt lat="44.81481320744475" lon="4.792254502168635"><ele>114.66666666666666</ele><time>2026-03-23T16:44:41.996Z</time></trkpt><trkpt lat="44.814816695076125" lon="4.792145046701461"><ele>114.33333333333333</ele><time>2026-03-23T16:44:43.996Z</time></trkpt><trkpt lat="44.81482327128717" lon="4.79202401466877"><ele>114.0</ele><time>2026-03-23T16:44:45.996Z</time></trkpt><trkpt lat="44.81482406419276" lon="4.791895215237487"><ele>114.0</ele><time>2026-03-23T16:44:47.996Z</time></trkpt><trkpt lat="44.81486358989352" lon="4.7917509201803465"><ele>114.0</ele><time>2026-03-23T16:44:49.996Z</time></trkpt><trkpt lat="44.81490528400146" lon="4.791609059852215"><ele>114.0</ele><time>2026-03-23T16:44:51.996Z</time></trkpt><trkpt lat="44.814946547458774" lon="4.791451761114129"><ele>114.0</ele><time>2026-03-23T16:44:53.996Z</time></trkpt><trkpt lat="44.81500831105446" lon="4.791301047485687"><ele>114.0</ele><time>2026-03-23T16:44:55.996Z</time></trkpt><trkpt lat="44.81504228916362" lon="4.791225260357713"><ele>114.0</ele><time>2026-03-23T16:44:56.996Z</time></trkpt><trkpt lat="44.81508097722172" lon="4.791152558562052"><ele>114.0</ele><time>2026-03-23T16:44:57.996Z</time></trkpt><trkpt lat="44.81515104387588" lon="4.791024124212972"><ele>114.0</ele><time>2026-03-23T16:44:59.996Z</time></trkpt><trkpt lat="44.81522676333782" lon="4.790894446399256"><ele>114.0</ele><time>2026-03-23T16:45:01.996Z</time></trkpt><trkpt lat="44.81529823920525" lon="4.7907637977890465"><ele>112.75</ele><time>2026-03-23T16:45:03.996Z</time></trkpt><trkpt lat="44.815383002009625" lon="4.790646277844069"><ele>111.5</ele><time>2026-03-23T16:45:05.996Z</time></trkpt><trkpt lat="44.81546048245862" lon="4.7905100649938435"><ele>110.25</ele><time>2026-03-23T16:45:07.996Z</time></trkpt><trkpt lat="44.81553196893827" lon="4.790377347271812"><ele>109.0</ele><time>2026-03-23T16:45:09.996Z</time></trkpt><trkpt lat="44.815592744577415" lon="4.790235506327308"><ele>109.6</ele><time>2026-03-23T16:45:11.996Z</time></trkpt><trkpt lat="44.815655329493666" lon="4.790086857270294"><ele>110.2</ele><time>2026-03-23T16:45:13.996Z</time></trkpt><trkpt lat="44.81568601016156" lon="4.790008556754476"><ele>110.79999999999998</ele><time>2026-03-23T16:45:14.996Z</time></trkpt><trkpt lat="44.81573617689666" lon="4.789887974430352"><ele>111.39999999999999</ele><time>2026-03-23T16:45:16.996Z</time></trkpt><trkpt lat="44.815773501589945" lon="4.789795512180603"><ele>112.0</ele><time>2026-03-23T16:45:18.996Z</time></trkpt><trkpt lat="44.81581841601552" lon="4.789685084602795"><ele>112.0</ele><time>2026-03-23T16:45:20.996Z</time></trkpt><trkpt lat="44.81587871148885" lon="4.789552422161354"><ele>111.99999999999999</ele><time>2026-03-23T16:45:22.996Z</time></trkpt><trkpt lat="44.81592527313707" lon="4.789401750638041"><ele>111.99999999999999</ele><time>2026-03-23T16:45:24.996Z</time></trkpt><trkpt lat="44.815985015952215" lon="4.789247350104338"><ele>112.0</ele><time>2026-03-23T16:45:26.996Z</time></trkpt><trkpt lat="44.81601704769599" lon="4.789170779137357"><ele>112.0</ele><time>2026-03-23T16:45:27.996Z</time></trkpt><trkpt lat="44.81604818493887" lon="4.789091081430307"><ele>111.14285714285714</ele><time>2026-03-23T16:45:28.996Z</time></trkpt><trkpt lat="44.81608361349098" lon="4.789014107877642"><ele>110.28571428571428</ele><time>2026-03-23T16:45:29.996Z</time></trkpt><trkpt lat="44.816118517743696" lon="4.788929894004586"><ele>109.42857142857143</ele><time>2026-03-23T16:45:30.996Z</time></trkpt><trkpt lat="44.81615003326508" lon="4.78884902969671"><ele>108.57142857142857</ele><time>2026-03-23T16:45:31.996Z</time></trkpt><trkpt lat="44.816185967521555" lon="4.788775436704265"><ele>107.71428571428571</ele><time>2026-03-23T16:45:32.996Z</time></trkpt><trkpt lat="44.816217482967986" lon="4.788694130709093"><ele>106.85714285714286</ele><time>2026-03-23T16:45:33.996Z</time></trkpt><trkpt lat="44.81625235089818" lon="4.788612419460688"><ele>106.0</ele><time>2026-03-23T16:45:34.996Z</time></trkpt><trkpt lat="44.81628451213798" lon="4.7885348549755085"><ele>106.42857142857143</ele><time>2026-03-23T16:45:35.996Z</time></trkpt><trkpt lat="44.81631593584268" lon="4.788447603018631"><ele>106.85714285714285</ele><time>2026-03-23T16:45:36.996Z</time></trkpt><trkpt lat="44.81634951327958" lon="4.78837024496671"><ele>107.28571428571428</ele><time>2026-03-23T16:45:37.996Z</time></trkpt><trkpt lat="44.816377115946494" lon="4.788288538130041"><ele>107.71428571428572</ele><time>2026-03-23T16:45:38.996Z</time></trkpt><trkpt lat="44.81640468413262" lon="4.788207850535218"><ele>108.14285714285714</ele><time>2026-03-23T16:45:39.996Z</time></trkpt><trkpt lat="44.816443209357594" lon="4.788126763207031"><ele>108.57142857142857</ele><time>2026-03-23T16:45:40.996Z</time></trkpt><trkpt lat="44.81647851746816" lon="4.788047683049202"><ele>109.0</ele><time>2026-03-23T16:45:41.996Z</time></trkpt><trkpt lat="44.816514468993304" lon="4.787970550268095"><ele>109.0</ele><time>2026-03-23T16:45:42.996Z</time></trkpt><trkpt lat="44.81657968606043" lon="4.787810242901897"><ele>109.0</ele><time>2026-03-23T16:45:44.996Z</time></trkpt><trkpt lat="44.81661287084129" lon="4.7877276652212855"><ele>109.0</ele><time>2026-03-23T16:45:45.996Z</time></trkpt><trkpt lat="44.8166952804409" lon="4.787591079887427"><ele>109.0</ele><time>2026-03-23T16:45:47.996Z</time></trkpt><trkpt lat="44.816734742688965" lon="4.78751638364227"><ele>109.0</ele><time>2026-03-23T16:45:48.996Z</time></trkpt><trkpt lat="44.816780383037184" lon="4.787449756426067"><ele>109.0</ele><time>2026-03-23T16:45:49.996Z</time></trkpt><trkpt lat="44.81686035969605" lon="4.787320394032957"><ele>109.0</ele><time>2026-03-23T16:45:51.996Z</time></trkpt><trkpt lat="44.81693580011146" lon="4.7871903590489655"><ele>109.0</ele><time>2026-03-23T16:45:53.996Z</time></trkpt><trkpt lat="44.817017773518" lon="4.787097341670734"><ele>109.0</ele><time>2026-03-23T16:45:55.996Z</time></trkpt><trkpt lat="44.81708543151918" lon="4.787026524213456"><ele>109.0</ele><time>2026-03-23T16:45:57.996Z</time></trkpt><trkpt lat="44.81713801127983" lon="4.786961154417667"><ele>109.00000000000001</ele><time>2026-03-23T16:46:02.996Z</time></trkpt><trkpt lat="44.81720979165634" lon="4.786944436634005"><ele>109.0</ele><time>2026-03-23T16:46:04.996Z</time></trkpt><trkpt lat="44.81726710590023" lon="4.786889011899751"><ele>109.0</ele><time>2026-03-23T16:46:06.996Z</time></trkpt><trkpt lat="44.81734913627862" lon="4.7868246777928345"><ele>109.0</ele><time>2026-03-23T16:46:08.996Z</time></trkpt><trkpt lat="44.81743254477659" lon="4.7867591460379195"><ele>109.00000000000001</ele><time>2026-03-23T16:46:10.996Z</time></trkpt><trkpt lat="44.817526187816235" lon="4.786706877864181"><ele>109.0</ele><time>2026-03-23T16:46:12.996Z</time></trkpt><trkpt lat="44.81760943307986" lon="4.786640481592702"><ele>108.6</ele><time>2026-03-23T16:46:14.996Z</time></trkpt><trkpt lat="44.81768228732269" lon="4.786567367221647"><ele>108.2</ele><time>2026-03-23T16:46:16.996Z</time></trkpt><trkpt lat="44.817757304778404" lon="4.786480551919076"><ele>107.79999999999998</ele><time>2026-03-23T16:46:18.996Z</time></trkpt><trkpt lat="44.81784401090528" lon="4.78638448439027"><ele>107.39999999999999</ele><time>2026-03-23T16:46:20.996Z</time></trkpt><trkpt lat="44.81792127608089" lon="4.786292895733349"><ele>107.0</ele><time>2026-03-23T16:46:22.996Z</time></trkpt><trkpt lat="44.81801097813068" lon="4.786207501548028"><ele>107.0</ele><time>2026-03-23T16:46:24.996Z</time></trkpt><trkpt lat="44.81810175042391" lon="4.786130720601427"><ele>106.99999999999999</ele><time>2026-03-23T16:46:26.996Z</time></trkpt><trkpt lat="44.818175448990715" lon="4.786021332453239"><ele>106.99999999999999</ele><time>2026-03-23T16:46:28.996Z</time></trkpt><trkpt lat="44.81823670649835" lon="4.78591139667723"><ele>107.0</ele><time>2026-03-23T16:46:30.996Z</time></trkpt><trkpt lat="44.81831405556954" lon="4.785813119457486"><ele>107.0</ele><time>2026-03-23T16:46:32.996Z</time></trkpt><trkpt lat="44.818405479483815" lon="4.785709471981429"><ele>107.0</ele><time>2026-03-23T16:46:34.996Z</time></trkpt><trkpt lat="44.818497187996016" lon="4.785605606349578"><ele>106.99999999999999</ele><time>2026-03-23T16:46:36.996Z</time></trkpt><trkpt lat="44.81858054013884" lon="4.785505460994754"><ele>106.99999999999999</ele><time>2026-03-23T16:46:38.996Z</time></trkpt><trkpt lat="44.818664794831385" lon="4.785411670002542"><ele>107.0</ele><time>2026-03-23T16:46:40.996Z</time></trkpt><trkpt lat="44.818749168178016" lon="4.785307894477562"><ele>107.0</ele><time>2026-03-23T16:46:42.996Z</time></trkpt><trkpt lat="44.81883063387331" lon="4.785211656780553"><ele>108.19999999999999</ele><time>2026-03-23T16:46:44.996Z</time></trkpt><trkpt lat="44.818908764438994" lon="4.785120164070329"><ele>109.39999999999999</ele><time>2026-03-23T16:46:46.996Z</time></trkpt><trkpt lat="44.81899005882516" lon="4.785031621729569"><ele>110.60000000000001</ele><time>2026-03-23T16:46:48.996Z</time></trkpt><trkpt lat="44.81906865283792" lon="4.784955932295691"><ele>111.80000000000001</ele><time>2026-03-23T16:46:50.996Z</time></trkpt><trkpt lat="44.81914294753743" lon="4.784870085126341"><ele>113.0</ele><time>2026-03-23T16:46:52.996Z</time></trkpt><trkpt lat="44.819218503776014" lon="4.784784384182959"><ele>113.0</ele><time>2026-03-23T16:46:54.996Z</time></trkpt><trkpt lat="44.81929390176644" lon="4.78468863333455"><ele>113.00000000000001</ele><time>2026-03-23T16:46:56.996Z</time></trkpt><trkpt lat="44.81936496062098" lon="4.784601630835062"><ele>113.00000000000001</ele><time>2026-03-23T16:46:58.996Z</time></trkpt><trkpt lat="44.81945004957188" lon="4.784509003570895"><ele>113.0</ele><time>2026-03-23T16:47:00.996Z</time></trkpt><trkpt lat="44.81953431924055" lon="4.7844175166302705"><ele>113.0</ele><time>2026-03-23T16:47:02.996Z</time></trkpt><trkpt lat="44.8196076157209" lon="4.784305351720853"><ele>113.2</ele><time>2026-03-23T16:47:04.996Z</time></trkpt><trkpt lat="44.819697090303144" lon="4.784222688106259"><ele>113.4</ele><time>2026-03-23T16:47:06.996Z</time></trkpt><trkpt lat="44.81976705647136" lon="4.784122157263832"><ele>113.60000000000001</ele><time>2026-03-23T16:47:08.996Z</time></trkpt><trkpt lat="44.819842536790645" lon="4.784035374555395"><ele>113.80000000000001</ele><time>2026-03-23T16:47:10.996Z</time></trkpt><trkpt lat="44.81991854373221" lon="4.783960129998636"><ele>114.0</ele><time>2026-03-23T16:47:12.996Z</time></trkpt><trkpt lat="44.81999061297301" lon="4.7838540613790075"><ele>114.0</ele><time>2026-03-23T16:47:14.996Z</time></trkpt><trkpt lat="44.82007126322678" lon="4.78377081343474"><ele>114.0</ele><time>2026-03-23T16:47:16.996Z</time></trkpt><trkpt lat="44.82014338876654" lon="4.783667674377309"><ele>114.0</ele><time>2026-03-23T16:47:18.996Z</time></trkpt><trkpt lat="44.82021658525585" lon="4.783583196174296"><ele>114.0</ele><time>2026-03-23T16:47:20.996Z</time></trkpt><trkpt lat="44.82029831494166" lon="4.783502799355148"><ele>114.0</ele><time>2026-03-23T16:47:22.996Z</time></trkpt><trkpt lat="44.820364166116015" lon="4.783434571014065"><ele>114.16666666666667</ele><time>2026-03-23T16:47:24.996Z</time></trkpt><trkpt lat="44.82043950040931" lon="4.783356006319993"><ele>114.33333333333334</ele><time>2026-03-23T16:47:26.996Z</time></trkpt><trkpt lat="44.820520333342245" lon="4.783315293674327"><ele>114.5</ele><time>2026-03-23T16:47:28.996Z</time></trkpt><trkpt lat="44.82059376122623" lon="4.783242031980319"><ele>114.66666666666667</ele><time>2026-03-23T16:47:30.996Z</time></trkpt><trkpt lat="44.820669579998444" lon="4.783200090748229"><ele>114.83333333333334</ele><time>2026-03-23T16:47:32.996Z</time></trkpt><trkpt lat="44.82076002798028" lon="4.783151912649074"><ele>115.0</ele><time>2026-03-23T16:47:34.996Z</time></trkpt><trkpt lat="44.82085087273194" lon="4.783090717122022"><ele>115.0</ele><time>2026-03-23T16:47:37.001Z</time></trkpt><trkpt lat="44.820946459127775" lon="4.783034720938274"><ele>115.0</ele><time>2026-03-23T16:47:39.001Z</time></trkpt><trkpt lat="44.821024872609755" lon="4.78296719680872"><ele>115.0</ele><time>2026-03-23T16:47:41.001Z</time></trkpt><trkpt lat="44.82111444578828" lon="4.782904366399041"><ele>115.0</ele><time>2026-03-23T16:47:43Z</time></trkpt><trkpt lat="44.82119094981092" lon="4.782836209865675"><ele>115.0</ele><time>2026-03-23T16:47:45Z</time></trkpt><trkpt lat="44.82127101931432" lon="4.782737610110459"><ele>114.8</ele><time>2026-03-23T16:47:47Z</time></trkpt><trkpt lat="44.821334219117105" lon="4.782629827858072"><ele>114.6</ele><time>2026-03-23T16:47:49Z</time></trkpt><trkpt lat="44.82141146213756" lon="4.782540939508466"><ele>114.4</ele><time>2026-03-23T16:47:51Z</time></trkpt><trkpt lat="44.82148979612678" lon="4.782452375394544"><ele>114.2</ele><time>2026-03-23T16:47:53Z</time></trkpt><trkpt lat="44.821558080587785" lon="4.782334733984976"><ele>114.0</ele><time>2026-03-23T16:47:55Z</time></trkpt><trkpt lat="44.82162220938388" lon="4.7822319171045145"><ele>114.0</ele><time>2026-03-23T16:47:57Z</time></trkpt><trkpt lat="44.82168003324519" lon="4.7821326025376"><ele>114.0</ele><time>2026-03-23T16:47:59Z</time></trkpt><trkpt lat="44.821739912916755" lon="4.782020165156474"><ele>114.0</ele><time>2026-03-23T16:48:01Z</time></trkpt><trkpt lat="44.82178664422861" lon="4.781904472433004"><ele>114.0</ele><time>2026-03-23T16:48:03Z</time></trkpt><trkpt lat="44.82183171312429" lon="4.781796177001771"><ele>114.0</ele><time>2026-03-23T16:48:05Z</time></trkpt><trkpt lat="44.8218725681088" lon="4.781672640774992"><ele>111.6</ele><time>2026-03-23T16:48:07Z</time></trkpt><trkpt lat="44.82190327412225" lon="4.78155081759049"><ele>109.2</ele><time>2026-03-23T16:48:09Z</time></trkpt><trkpt lat="44.821939563113084" lon="4.781422104001887"><ele>106.8</ele><time>2026-03-23T16:48:11Z</time></trkpt><trkpt lat="44.82196789116042" lon="4.781293741007306"><ele>104.39999999999999</ele><time>2026-03-23T16:48:13Z</time></trkpt><trkpt lat="44.82199448658887" lon="4.78118327098173"><ele>102.0</ele><time>2026-03-23T16:48:15Z</time></trkpt><trkpt lat="44.82202551622478" lon="4.781057240117946"><ele>103.0</ele><time>2026-03-23T16:48:17Z</time></trkpt><trkpt lat="44.82203861934219" lon="4.780934398372404"><ele>104.0</ele><time>2026-03-23T16:48:19Z</time></trkpt><trkpt lat="44.8220681140097" lon="4.780810954559534"><ele>104.99999999999999</ele><time>2026-03-23T16:48:21Z</time></trkpt><trkpt lat="44.82208208882171" lon="4.780685277335741"><ele>106.0</ele><time>2026-03-23T16:48:23Z</time></trkpt><trkpt lat="44.82211581809278" lon="4.780556356594209"><ele>107.0</ele><time>2026-03-23T16:48:25Z</time></trkpt><trkpt lat="44.822134757105516" lon="4.780443061429415"><ele>106.99999999999999</ele><time>2026-03-23T16:48:27Z</time></trkpt><trkpt lat="44.82215736925569" lon="4.780322222726075"><ele>107.0</ele><time>2026-03-23T16:48:29Z</time></trkpt><trkpt lat="44.82216519340078" lon="4.780201408728745"><ele>107.0</ele><time>2026-03-23T16:48:31Z</time></trkpt><trkpt lat="44.822170759638276" lon="4.780089943711969"><ele>107.0</ele><time>2026-03-23T16:48:33Z</time></trkpt><trkpt lat="44.82218310073023" lon="4.779959091057686"><ele>106.99999999999999</ele><time>2026-03-23T16:48:35Z</time></trkpt><trkpt lat="44.82217230297757" lon="4.77984054405815"><ele>107.0</ele><time>2026-03-23T16:48:37Z</time></trkpt><trkpt lat="44.82215983964511" lon="4.779716001517197"><ele>107.49999999999999</ele><time>2026-03-23T16:48:39Z</time></trkpt><trkpt lat="44.822160819796046" lon="4.779595677339442"><ele>108.0</ele><time>2026-03-23T16:48:41Z</time></trkpt><trkpt lat="44.82214653151517" lon="4.7794731543635605"><ele>108.5</ele><time>2026-03-23T16:48:43Z</time></trkpt><trkpt lat="44.82213390180802" lon="4.779339945473584"><ele>109.0</ele><time>2026-03-23T16:48:45.001Z</time></trkpt><trkpt lat="44.822125023097605" lon="4.779205476913204"><ele>109.49999999999999</ele><time>2026-03-23T16:48:47Z</time></trkpt><trkpt lat="44.8221219141332" lon="4.779085897867695"><ele>110.0</ele><time>2026-03-23T16:48:49Z</time></trkpt><trkpt lat="44.82210667025231" lon="4.7789458424146"><ele>110.0</ele><time>2026-03-23T16:48:51Z</time></trkpt><trkpt lat="44.82210927333456" lon="4.77879548656436"><ele>110.0</ele><time>2026-03-23T16:48:53Z</time></trkpt><trkpt lat="44.822111102323355" lon="4.778657834054728"><ele>110.0</ele><time>2026-03-23T16:48:55.001Z</time></trkpt><trkpt lat="44.82208794693898" lon="4.7785420394795155"><ele>110.0</ele><time>2026-03-23T16:48:57.001Z</time></trkpt><trkpt lat="44.822094853820495" lon="4.778396849160854"><ele>110.0</ele><time>2026-03-23T16:48:59.001Z</time></trkpt><trkpt lat="44.82211331263376" lon="4.7782375028147195"><ele>110.0</ele><time>2026-03-23T16:49:01.001Z</time></trkpt><trkpt lat="44.822098133631464" lon="4.77811367510657"><ele>110.0</ele><time>2026-03-23T16:49:03.001Z</time></trkpt><trkpt lat="44.82207958259525" lon="4.777981756681601"><ele>110.0</ele><time>2026-03-23T16:49:05.001Z</time></trkpt><trkpt lat="44.82206260791899" lon="4.777850107436998"><ele>110.0</ele><time>2026-03-23T16:49:07.001Z</time></trkpt><trkpt lat="44.82203956306142" lon="4.777716621900328"><ele>110.0</ele><time>2026-03-23T16:49:09.001Z</time></trkpt><trkpt lat="44.822031324805316" lon="4.77758635398969"><ele>109.8</ele><time>2026-03-23T16:49:11.001Z</time></trkpt><trkpt lat="44.82199243450718" lon="4.777451967550679"><ele>109.6</ele><time>2026-03-23T16:49:13.001Z</time></trkpt><trkpt lat="44.821963417985415" lon="4.777320806582211"><ele>109.4</ele><time>2026-03-23T16:49:15.001Z</time></trkpt><trkpt lat="44.82195017118986" lon="4.777195658610684"><ele>109.2</ele><time>2026-03-23T16:49:17.001Z</time></trkpt><trkpt lat="44.82191772421433" lon="4.77706058239223"><ele>109.0</ele><time>2026-03-23T16:49:19.001Z</time></trkpt><trkpt lat="44.82187796920175" lon="4.776944112141919"><ele>108.6</ele><time>2026-03-23T16:49:21.001Z</time></trkpt><trkpt lat="44.82185310326033" lon="4.776813337281932"><ele>108.2</ele><time>2026-03-23T16:49:23.001Z</time></trkpt><trkpt lat="44.821831013931984" lon="4.7766711456101065"><ele>107.79999999999998</ele><time>2026-03-23T16:49:25.001Z</time></trkpt><trkpt lat="44.82182166835627" lon="4.776524030529413"><ele>107.39999999999999</ele><time>2026-03-23T16:49:27.001Z</time></trkpt><trkpt lat="44.821812001443085" lon="4.776398675944803"><ele>107.0</ele><time>2026-03-23T16:49:29.001Z</time></trkpt><trkpt lat="44.82178947103102" lon="4.776242032468793"><ele>112.19999999999999</ele><time>2026-03-23T16:49:31.001Z</time></trkpt><trkpt lat="44.82177564494733" lon="4.776095891406203"><ele>117.39999999999999</ele><time>2026-03-23T16:49:33.001Z</time></trkpt><trkpt lat="44.821752710917785" lon="4.775957798313541"><ele>122.60000000000001</ele><time>2026-03-23T16:49:35.001Z</time></trkpt><trkpt lat="44.821733298769225" lon="4.775808611242231"><ele>127.80000000000001</ele><time>2026-03-23T16:49:37.001Z</time></trkpt><trkpt lat="44.82171361413377" lon="4.775668848917313"><ele>133.0</ele><time>2026-03-23T16:49:39.001Z</time></trkpt><trkpt lat="44.821682753656354" lon="4.775541108404051"><ele>133.4</ele><time>2026-03-23T16:49:41.001Z</time></trkpt><trkpt lat="44.82166406074579" lon="4.77540094059495"><ele>133.8</ele><time>2026-03-23T16:49:43.001Z</time></trkpt><trkpt lat="44.82164161588075" lon="4.775257793638109"><ele>134.2</ele><time>2026-03-23T16:49:45.001Z</time></trkpt><trkpt lat="44.82161360250109" lon="4.775123474561101"><ele>134.6</ele><time>2026-03-23T16:49:47.001Z</time></trkpt><trkpt lat="44.82158761449061" lon="4.774996955181594"><ele>135.0</ele><time>2026-03-23T16:49:49.001Z</time></trkpt><trkpt lat="44.82159147671425" lon="4.774857790058715"><ele>133.8</ele><time>2026-03-23T16:49:51.001Z</time></trkpt><trkpt lat="44.82157706892337" lon="4.774715012273053"><ele>132.6</ele><time>2026-03-23T16:49:53.001Z</time></trkpt><trkpt lat="44.82157650946612" lon="4.774590201511933"><ele>131.4</ele><time>2026-03-23T16:49:55.001Z</time></trkpt><trkpt lat="44.8215829990568" lon="4.77446171384162"><ele>130.2</ele><time>2026-03-23T16:49:57.001Z</time></trkpt><trkpt lat="44.82156749136652" lon="4.77432154996911"><ele>129.0</ele><time>2026-03-23T16:49:59.001Z</time></trkpt><trkpt lat="44.82156096628284" lon="4.774168469987268"><ele>128.2</ele><time>2026-03-23T16:50:01.001Z</time></trkpt><trkpt lat="44.8215544557241" lon="4.774028395024646"><ele>127.4</ele><time>2026-03-23T16:50:03.001Z</time></trkpt><trkpt lat="44.82155879846807" lon="4.773893368477448"><ele>126.6</ele><time>2026-03-23T16:50:05.001Z</time></trkpt><trkpt lat="44.82155328568198" lon="4.773758472463618"><ele>125.8</ele><time>2026-03-23T16:50:07.001Z</time></trkpt><trkpt lat="44.82154738777119" lon="4.77361148408029"><ele>125.0</ele><time>2026-03-23T16:50:09.001Z</time></trkpt><trkpt lat="44.82155976922294" lon="4.773451027043197"><ele>125.0</ele><time>2026-03-23T16:50:11.001Z</time></trkpt><trkpt lat="44.82157341766618" lon="4.7733050645424"><ele>125.0</ele><time>2026-03-23T16:50:13.001Z</time></trkpt><trkpt lat="44.82156336173271" lon="4.773148528147098"><ele>125.0</ele><time>2026-03-23T16:50:15.001Z</time></trkpt><trkpt lat="44.82155947577379" lon="4.773010844445418"><ele>125.0</ele><time>2026-03-23T16:50:17.001Z</time></trkpt><trkpt lat="44.8215499125029" lon="4.772875047045731"><ele>125.0</ele><time>2026-03-23T16:50:19.001Z</time></trkpt><trkpt lat="44.82156522023989" lon="4.772755663568848"><ele>124.6</ele><time>2026-03-23T16:50:21.001Z</time></trkpt><trkpt lat="44.82154354098283" lon="4.772605567449814"><ele>124.2</ele><time>2026-03-23T16:50:23.001Z</time></trkpt><trkpt lat="44.82153672510325" lon="4.772478526419436"><ele>123.80000000000001</ele><time>2026-03-23T16:50:25.001Z</time></trkpt><trkpt lat="44.82152849869187" lon="4.772355186136385"><ele>123.4</ele><time>2026-03-23T16:50:27.001Z</time></trkpt><trkpt lat="44.82152295495241" lon="4.772222646707114"><ele>123.0</ele><time>2026-03-23T16:50:29.001Z</time></trkpt><trkpt lat="44.82150900263275" lon="4.772083960559415"><ele>123.0</ele><time>2026-03-23T16:50:31.001Z</time></trkpt><trkpt lat="44.82148169305814" lon="4.771948260760049"><ele>123.00000000000001</ele><time>2026-03-23T16:50:33.001Z</time></trkpt><trkpt lat="44.82145101090695" lon="4.771827108066684"><ele>123.00000000000001</ele><time>2026-03-23T16:50:35.001Z</time></trkpt><trkpt lat="44.82144424355662" lon="4.771682583042067"><ele>123.0</ele><time>2026-03-23T16:50:37Z</time></trkpt><trkpt lat="44.82140912488542" lon="4.771555367327242"><ele>123.0</ele><time>2026-03-23T16:50:39Z</time></trkpt><trkpt lat="44.82139480862181" lon="4.771418385753133"><ele>122.0</ele><time>2026-03-23T16:50:41Z</time></trkpt><trkpt lat="44.821356167727394" lon="4.7712780357797255"><ele>121.00000000000001</ele><time>2026-03-23T16:50:43Z</time></trkpt><trkpt lat="44.821334364070076" lon="4.771153039086097"><ele>120.00000000000001</ele><time>2026-03-23T16:50:45Z</time></trkpt><trkpt lat="44.82132174555257" lon="4.771016308767909"><ele>119.0</ele><time>2026-03-23T16:50:47Z</time></trkpt><trkpt lat="44.821280030966726" lon="4.77090643491935"><ele>118.0</ele><time>2026-03-23T16:50:49Z</time></trkpt><trkpt lat="44.82125872449268" lon="4.770774217581631"><ele>117.16666666666667</ele><time>2026-03-23T16:50:51.001Z</time></trkpt><trkpt lat="44.82122366346124" lon="4.770665397156003"><ele>116.33333333333334</ele><time>2026-03-23T16:50:53Z</time></trkpt><trkpt lat="44.821201247356484" lon="4.770564420498805"><ele>115.5</ele><time>2026-03-23T16:50:55.001Z</time></trkpt><trkpt lat="44.821159483171144" lon="4.770456761953432"><ele>114.66666666666666</ele><time>2026-03-23T16:50:57.001Z</time></trkpt><trkpt lat="44.82113518150081" lon="4.770323430591203"><ele>113.83333333333333</ele><time>2026-03-23T16:50:59Z</time></trkpt><trkpt lat="44.82110688748534" lon="4.7702037456809805"><ele>113.0</ele><time>2026-03-23T16:51:01.001Z</time></trkpt><trkpt lat="44.82109026960158" lon="4.770106984530175"><ele>111.66666666666666</ele><time>2026-03-23T16:51:03.001Z</time></trkpt><trkpt lat="44.82104966560396" lon="4.769980216310297"><ele>110.33333333333333</ele><time>2026-03-23T16:51:05.001Z</time></trkpt><trkpt lat="44.82103258452079" lon="4.769866717136836"><ele>109.0</ele><time>2026-03-23T16:51:07.001Z</time></trkpt><trkpt lat="44.82099530078363" lon="4.769753205022038"><ele>107.66666666666666</ele><time>2026-03-23T16:51:09.001Z</time></trkpt><trkpt lat="44.82096106001502" lon="4.769645904930642"><ele>106.33333333333333</ele><time>2026-03-23T16:51:11.001Z</time></trkpt><trkpt lat="44.82092919745812" lon="4.769522766215976"><ele>105.0</ele><time>2026-03-23T16:51:13.001Z</time></trkpt><trkpt lat="44.820898331606905" lon="4.769405318588627"><ele>110.0</ele><time>2026-03-23T16:51:15.001Z</time></trkpt><trkpt lat="44.820869043699055" lon="4.769280316432306"><ele>115.0</ele><time>2026-03-23T16:51:17.001Z</time></trkpt><trkpt lat="44.82081725415099" lon="4.7691756649928525"><ele>120.0</ele><time>2026-03-23T16:51:19.001Z</time></trkpt><trkpt lat="44.820806619150446" lon="4.7690466923199715"><ele>125.0</ele><time>2026-03-23T16:51:21.001Z</time></trkpt><trkpt lat="44.8207864466387" lon="4.768916799571003"><ele>130.0</ele><time>2026-03-23T16:51:23.001Z</time></trkpt><trkpt lat="44.82074033329313" lon="4.7688184359076535"><ele>130.0</ele><time>2026-03-23T16:51:25.001Z</time></trkpt><trkpt lat="44.820737007664455" lon="4.768702478329752"><ele>130.0</ele><time>2026-03-23T16:51:27.001Z</time></trkpt><trkpt lat="44.82070329441705" lon="4.76858945704691"><ele>130.0</ele><time>2026-03-23T16:51:29.001Z</time></trkpt><trkpt lat="44.820672240646864" lon="4.768480159785696"><ele>130.0</ele><time>2026-03-23T16:51:31.001Z</time></trkpt><trkpt lat="44.8206524792325" lon="4.768357884235182"><ele>130.0</ele><time>2026-03-23T16:51:33.001Z</time></trkpt><trkpt lat="44.82063286347055" lon="4.7682460049571205"><ele>130.0</ele><time>2026-03-23T16:51:35.001Z</time></trkpt><trkpt lat="44.82061868146865" lon="4.7681462686551255"><ele>128.66666666666669</ele><time>2026-03-23T16:51:37.001Z</time></trkpt><trkpt lat="44.820617313659085" lon="4.768025793038791"><ele>127.33333333333334</ele><time>2026-03-23T16:51:39.001Z</time></trkpt><trkpt lat="44.82060983856219" lon="4.767914645286841"><ele>126.0</ele><time>2026-03-23T16:51:41.001Z</time></trkpt><trkpt lat="44.82060784947535" lon="4.767800117959268"><ele>124.66666666666666</ele><time>2026-03-23T16:51:43.001Z</time></trkpt><trkpt lat="44.820596071254535" lon="4.767694307703504"><ele>123.33333333333333</ele><time>2026-03-23T16:51:45.001Z</time></trkpt><trkpt lat="44.820592238071995" lon="4.7675815942519355"><ele>122.0</ele><time>2026-03-23T16:51:47.001Z</time></trkpt><trkpt lat="44.82058834850385" lon="4.767438033945664"><ele>120.8</ele><time>2026-03-23T16:51:49.001Z</time></trkpt><trkpt lat="44.8205791326943" lon="4.767314840183702"><ele>119.6</ele><time>2026-03-23T16:51:51.001Z</time></trkpt><trkpt lat="44.820558262717725" lon="4.767187126754797"><ele>118.39999999999999</ele><time>2026-03-23T16:51:53.001Z</time></trkpt><trkpt lat="44.82051956317701" lon="4.767058797192353"><ele>117.19999999999999</ele><time>2026-03-23T16:51:55.001Z</time></trkpt><trkpt lat="44.820494732436345" lon="4.766945851824974"><ele>116.0</ele><time>2026-03-23T16:51:57.001Z</time></trkpt><trkpt lat="44.820470713761964" lon="4.766813822978438"><ele>115.0</ele><time>2026-03-23T16:51:59.001Z</time></trkpt><trkpt lat="44.82043762424954" lon="4.76669076811059"><ele>114.0</ele><time>2026-03-23T16:52:01.001Z</time></trkpt><trkpt lat="44.82040519144281" lon="4.766579983945681"><ele>113.0</ele><time>2026-03-23T16:52:03.001Z</time></trkpt><trkpt lat="44.82035899322211" lon="4.766471723589552"><ele>112.0</ele><time>2026-03-23T16:52:05.001Z</time></trkpt><trkpt lat="44.820330532263156" lon="4.766331782377392"><ele>111.0</ele><time>2026-03-23T16:52:07.001Z</time></trkpt><trkpt lat="44.82031041757218" lon="4.7661977312462085"><ele>111.0</ele><time>2026-03-23T16:52:09.001Z</time></trkpt><trkpt lat="44.82027933684902" lon="4.766060314021291"><ele>111.0</ele><time>2026-03-23T16:52:11.001Z</time></trkpt><trkpt lat="44.82024988616005" lon="4.765916153977324"><ele>111.0</ele><time>2026-03-23T16:52:13.001Z</time></trkpt><trkpt lat="44.82022692484549" lon="4.765757935511328"><ele>111.0</ele><time>2026-03-23T16:52:15.001Z</time></trkpt><trkpt lat="44.82020193377234" lon="4.765611304618419"><ele>111.0</ele><time>2026-03-23T16:52:17Z</time></trkpt><trkpt lat="44.82016917230149" lon="4.765475321440837"><ele>110.0</ele><time>2026-03-23T16:52:19Z</time></trkpt><trkpt lat="44.82015616736143" lon="4.765321184415112"><ele>109.0</ele><time>2026-03-23T16:52:21Z</time></trkpt><trkpt lat="44.820139794138726" lon="4.765180819485755"><ele>108.0</ele><time>2026-03-23T16:52:23Z</time></trkpt><trkpt lat="44.82013250116903" lon="4.765037895560663"><ele>107.0</ele><time>2026-03-23T16:52:25Z</time></trkpt><trkpt lat="44.82012365946832" lon="4.764893506378671"><ele>106.0</ele><time>2026-03-23T16:52:27Z</time></trkpt><trkpt lat="44.820120342596965" lon="4.764748296853293"><ele>112.0</ele><time>2026-03-23T16:52:29Z</time></trkpt><trkpt lat="44.82012658804962" lon="4.76459968641006"><ele>118.0</ele><time>2026-03-23T16:52:31Z</time></trkpt><trkpt lat="44.82011582370233" lon="4.764458148300748"><ele>124.0</ele><time>2026-03-23T16:52:33Z</time></trkpt><trkpt lat="44.820124504603896" lon="4.7643029235632754"><ele>130.0</ele><time>2026-03-23T16:52:35Z</time></trkpt><trkpt lat="44.820127576863065" lon="4.76415035888425"><ele>136.0</ele><time>2026-03-23T16:52:37Z</time></trkpt><trkpt lat="44.820103188205984" lon="4.764015601860847"><ele>136.0</ele><time>2026-03-23T16:52:39Z</time></trkpt><trkpt lat="44.82010792813711" lon="4.763851302655579"><ele>136.0</ele><time>2026-03-23T16:52:41Z</time></trkpt><trkpt lat="44.8200916835466" lon="4.7637026970751455"><ele>136.0</ele><time>2026-03-23T16:52:43Z</time></trkpt><trkpt lat="44.820071050526444" lon="4.763544684102278"><ele>136.0</ele><time>2026-03-23T16:52:45Z</time></trkpt><trkpt lat="44.82005301780655" lon="4.763399602728545"><ele>136.0</ele><time>2026-03-23T16:52:47Z</time></trkpt><trkpt lat="44.82004077211165" lon="4.763247376903055"><ele>135.0</ele><time>2026-03-23T16:52:49Z</time></trkpt><trkpt lat="44.82000985220099" lon="4.763104751911537"><ele>134.0</ele><time>2026-03-23T16:52:51Z</time></trkpt><trkpt lat="44.81998928345287" lon="4.762950895478044"><ele>133.0</ele><time>2026-03-23T16:52:53Z</time></trkpt><trkpt lat="44.81996299873148" lon="4.762809307799478"><ele>132.0</ele><time>2026-03-23T16:52:55Z</time></trkpt><trkpt lat="44.81992853723896" lon="4.762661979747749"><ele>131.0</ele><time>2026-03-23T16:52:57.001Z</time></trkpt><trkpt lat="44.81989852506526" lon="4.762526322571857"><ele>129.6</ele><time>2026-03-23T16:52:59Z</time></trkpt><trkpt lat="44.81986755074793" lon="4.76239188622583"><ele>128.2</ele><time>2026-03-23T16:53:01Z</time></trkpt><trkpt lat="44.819834351627286" lon="4.762248852611985"><ele>126.80000000000001</ele><time>2026-03-23T16:53:03.001Z</time></trkpt><trkpt lat="44.819803577231575" lon="4.762115025718786"><ele>125.4</ele><time>2026-03-23T16:53:05.001Z</time></trkpt><trkpt lat="44.81977288324304" lon="4.761980593132122"><ele>124.0</ele><time>2026-03-23T16:53:07.001Z</time></trkpt><trkpt lat="44.81973265400792" lon="4.761782739989294"><ele>122.4</ele><time>2026-03-23T16:53:10.001Z</time></trkpt><trkpt lat="44.81970503388476" lon="4.7616495903834855"><ele>120.80000000000001</ele><time>2026-03-23T16:53:12.001Z</time></trkpt><trkpt lat="44.81968442733168" lon="4.7615310505736135"><ele>119.19999999999999</ele><time>2026-03-23T16:53:14Z</time></trkpt><trkpt lat="44.81964888469493" lon="4.761401429799409"><ele>117.6</ele><time>2026-03-23T16:53:16Z</time></trkpt><trkpt lat="44.819624436535605" lon="4.761251105916452"><ele>116.0</ele><time>2026-03-23T16:53:18Z</time></trkpt><trkpt lat="44.81960822037246" lon="4.761113476096739"><ele>114.99999999999999</ele><time>2026-03-23T16:53:20Z</time></trkpt><trkpt lat="44.81960311814761" lon="4.760987766041539"><ele>114.0</ele><time>2026-03-23T16:53:22Z</time></trkpt><trkpt lat="44.81958937175751" lon="4.760880650658872"><ele>113.0</ele><time>2026-03-23T16:53:24Z</time></trkpt><trkpt lat="44.81959673737223" lon="4.7607923066885185"><ele>112.0</ele><time>2026-03-23T16:53:26Z</time></trkpt><trkpt lat="44.81959458322824" lon="4.7606838664559605"><ele>110.99999999999999</ele><time>2026-03-23T16:53:28Z</time></trkpt><trkpt lat="44.819592726015024" lon="4.760555874346468"><ele>110.0</ele><time>2026-03-23T16:53:30Z</time></trkpt><trkpt lat="44.81959067265824" lon="4.76041998595489"><ele>110.0</ele><time>2026-03-23T16:53:32Z</time></trkpt><trkpt lat="44.81958686868904" lon="4.7602779920554035"><ele>110.0</ele><time>2026-03-23T16:53:34Z</time></trkpt><trkpt lat="44.81959189866149" lon="4.760127988192531"><ele>110.0</ele><time>2026-03-23T16:53:36Z</time></trkpt><trkpt lat="44.81959498785111" lon="4.759991878269573"><ele>110.0</ele><time>2026-03-23T16:53:38Z</time></trkpt><trkpt lat="44.81958841586343" lon="4.759853463711095"><ele>110.0</ele><time>2026-03-23T16:53:40Z</time></trkpt><trkpt lat="44.81957727053919" lon="4.759710873153987"><ele>110.0</ele><time>2026-03-23T16:53:42Z</time></trkpt><trkpt lat="44.81955459516354" lon="4.759575036278928"><ele>110.0</ele><time>2026-03-23T16:53:44Z</time></trkpt><trkpt lat="44.819540006616634" lon="4.759428566460134"><ele>110.0</ele><time>2026-03-23T16:53:46Z</time></trkpt><trkpt lat="44.81950563913315" lon="4.759282288969207"><ele>110.0</ele><time>2026-03-23T16:53:48Z</time></trkpt><trkpt lat="44.81947471483703" lon="4.759134097921171"><ele>110.0</ele><time>2026-03-23T16:53:50Z</time></trkpt><trkpt lat="44.81943509891131" lon="4.758981127755127"><ele>109.4</ele><time>2026-03-23T16:53:52Z</time></trkpt><trkpt lat="44.81939317047251" lon="4.758846872204763"><ele>108.8</ele><time>2026-03-23T16:53:54Z</time></trkpt><trkpt lat="44.81935253506265" lon="4.758697262057487"><ele>108.19999999999999</ele><time>2026-03-23T16:53:56Z</time></trkpt><trkpt lat="44.81931117349168" lon="4.758550407193283"><ele>107.6</ele><time>2026-03-23T16:53:58Z</time></trkpt><trkpt lat="44.81926831183538" lon="4.758403954507766"><ele>107.0</ele><time>2026-03-23T16:54:00Z</time></trkpt><trkpt lat="44.81924297399577" lon="4.758245895092254"><ele>114.25</ele><time>2026-03-23T16:54:02Z</time></trkpt><trkpt lat="44.81922620501089" lon="4.758082100379925"><ele>121.5</ele><time>2026-03-23T16:54:04Z</time></trkpt><trkpt lat="44.81921763041239" lon="4.7579163364792905"><ele>128.75</ele><time>2026-03-23T16:54:06Z</time></trkpt><trkpt lat="44.819225360836136" lon="4.757741505933827"><ele>136.0</ele><time>2026-03-23T16:54:08Z</time></trkpt><trkpt lat="44.81923912820004" lon="4.757574795660638"><ele>136.0</ele><time>2026-03-23T16:54:10Z</time></trkpt><trkpt lat="44.81924383763993" lon="4.757434699920637"><ele>136.0</ele><time>2026-03-23T16:54:12Z</time></trkpt><trkpt lat="44.81924249420751" lon="4.757340184357518"><ele>136.0</ele><time>2026-03-23T16:54:13Z</time></trkpt><trkpt lat="44.81924016022022" lon="4.757180894725743"><ele>136.0</ele><time>2026-03-23T16:54:15Z</time></trkpt><trkpt lat="44.81924463329605" lon="4.757087825650119"><ele>136.0</ele><time>2026-03-23T16:54:16Z</time></trkpt><trkpt lat="44.81924208483987" lon="4.756921176580407"><ele>135.66666666666669</ele><time>2026-03-23T16:54:18Z</time></trkpt><trkpt lat="44.819224538457874" lon="4.7567521734550455"><ele>135.33333333333334</ele><time>2026-03-23T16:54:20Z</time></trkpt><trkpt lat="44.81920677677735" lon="4.756665667841371"><ele>135.0</ele><time>2026-03-23T16:54:21Z</time></trkpt><trkpt lat="44.819183540058994" lon="4.7565010061973725"><ele>134.66666666666666</ele><time>2026-03-23T16:54:23Z</time></trkpt><trkpt lat="44.81917004018862" lon="4.756412524907552"><ele>134.33333333333331</ele><time>2026-03-23T16:54:24Z</time></trkpt><trkpt lat="44.819149499782846" lon="4.756325127932225"><ele>134.0</ele><time>2026-03-23T16:54:25Z</time></trkpt><trkpt lat="44.81911314285601" lon="4.7561914344218925"><ele>132.6</ele><time>2026-03-23T16:54:27Z</time></trkpt><trkpt lat="44.81909252322693" lon="4.7560333978409"><ele>131.2</ele><time>2026-03-23T16:54:29Z</time></trkpt><trkpt lat="44.819062265279705" lon="4.7559486889548355"><ele>129.79999999999998</ele><time>2026-03-23T16:54:30Z</time></trkpt><trkpt lat="44.819028630120144" lon="4.755775568979704"><ele>128.4</ele><time>2026-03-23T16:54:32Z</time></trkpt><trkpt lat="44.81900113042111" lon="4.755609839416829"><ele>127.0</ele><time>2026-03-23T16:54:34Z</time></trkpt><trkpt lat="44.81897053098804" lon="4.75543377775809"><ele>127.0</ele><time>2026-03-23T16:54:36Z</time></trkpt><trkpt lat="44.8189517276497" lon="4.7553489410441525"><ele>126.99999999999999</ele><time>2026-03-23T16:54:37Z</time></trkpt><trkpt lat="44.818914531686254" lon="4.75518842459839"><ele>126.99999999999999</ele><time>2026-03-23T16:54:39Z</time></trkpt><trkpt lat="44.81888415712189" lon="4.755021194399971"><ele>127.0</ele><time>2026-03-23T16:54:41Z</time></trkpt><trkpt lat="44.81887017018992" lon="4.7549284668218155"><ele>127.0</ele><time>2026-03-23T16:54:42Z</time></trkpt><trkpt lat="44.81884060270997" lon="4.754768939650216"><ele>124.5</ele><time>2026-03-23T16:54:44Z</time></trkpt><trkpt lat="44.818812379823626" lon="4.754616007595134"><ele>122.0</ele><time>2026-03-23T16:54:46Z</time></trkpt><trkpt lat="44.81877145785947" lon="4.75447717473018"><ele>119.5</ele><time>2026-03-23T16:54:48Z</time></trkpt><trkpt lat="44.81871234960666" lon="4.754333364253106"><ele>117.0</ele><time>2026-03-23T16:54:50Z</time></trkpt><trkpt lat="44.81865434241387" lon="4.7541947635379085"><ele>114.75</ele><time>2026-03-23T16:54:52Z</time></trkpt><trkpt lat="44.818591773964094" lon="4.754049603343827"><ele>112.5</ele><time>2026-03-23T16:54:54Z</time></trkpt><trkpt lat="44.81853428248432" lon="4.753914233931458"><ele>110.25</ele><time>2026-03-23T16:54:56Z</time></trkpt><trkpt lat="44.81846838812891" lon="4.7537787830006275"><ele>108.0</ele><time>2026-03-23T16:54:58Z</time></trkpt><trkpt lat="44.8184128565746" lon="4.753653257011837"><ele>111.4</ele><time>2026-03-23T16:55:00.001Z</time></trkpt><trkpt lat="44.81834998537047" lon="4.753517238341532"><ele>114.80000000000001</ele><time>2026-03-23T16:55:02Z</time></trkpt><trkpt lat="44.81828547186129" lon="4.753399358464965"><ele>118.2</ele><time>2026-03-23T16:55:04Z</time></trkpt><trkpt lat="44.818226100182976" lon="4.753267441612343"><ele>121.6</ele><time>2026-03-23T16:55:06Z</time></trkpt><trkpt lat="44.81816840436071" lon="4.7531377059102695"><ele>125.0</ele><time>2026-03-23T16:55:08Z</time></trkpt><trkpt lat="44.81810999658993" lon="4.753000032254279"><ele>125.0</ele><time>2026-03-23T16:55:10.001Z</time></trkpt><trkpt lat="44.81804849540814" lon="4.752872007378452"><ele>125.0</ele><time>2026-03-23T16:55:12.001Z</time></trkpt><trkpt lat="44.817986541778836" lon="4.7527467131841625"><ele>125.0</ele><time>2026-03-23T16:55:14Z</time></trkpt><trkpt lat="44.817930819857914" lon="4.752602629304436"><ele>125.0</ele><time>2026-03-23T16:55:16Z</time></trkpt><trkpt lat="44.81787254620448" lon="4.752471514151904"><ele>125.0</ele><time>2026-03-23T16:55:18Z</time></trkpt><trkpt lat="44.817811340243765" lon="4.752345303785562"><ele>126.2</ele><time>2026-03-23T16:55:20Z</time></trkpt><trkpt lat="44.81777898163477" lon="4.752265373821346"><ele>127.4</ele><time>2026-03-23T16:55:21Z</time></trkpt><trkpt lat="44.81771513202457" lon="4.752128528831091"><ele>128.6</ele><time>2026-03-23T16:55:23Z</time></trkpt><trkpt lat="44.81765112778755" lon="4.7519877766498695"><ele>129.8</ele><time>2026-03-23T16:55:25Z</time></trkpt><trkpt lat="44.817590874357414" lon="4.751849388337319"><ele>131.0</ele><time>2026-03-23T16:55:27Z</time></trkpt><trkpt lat="44.81753514423899" lon="4.751715372203233"><ele>131.0</ele><time>2026-03-23T16:55:29Z</time></trkpt><trkpt lat="44.81747239726196" lon="4.751586641601129"><ele>131.0</ele><time>2026-03-23T16:55:31Z</time></trkpt><trkpt lat="44.817405832826125" lon="4.751459799817207"><ele>131.0</ele><time>2026-03-23T16:55:33Z</time></trkpt><trkpt lat="44.817344916477495" lon="4.7513525353331545"><ele>131.0</ele><time>2026-03-23T16:55:35Z</time></trkpt><trkpt lat="44.817298961956624" lon="4.751287287659043"><ele>131.0</ele><time>2026-03-23T16:55:36Z</time></trkpt><trkpt lat="44.81723338666301" lon="4.751187260485098"><ele>131.0</ele><time>2026-03-23T16:55:38Z</time></trkpt><trkpt lat="44.81716074523387" lon="4.751066208369787"><ele>131.0</ele><time>2026-03-23T16:55:40Z</time></trkpt><trkpt lat="44.817083584967854" lon="4.750958568202139"><ele>131.0</ele><time>2026-03-23T16:55:42Z</time></trkpt><trkpt lat="44.81701351973991" lon="4.750859097543485"><ele>131.0</ele><time>2026-03-23T16:55:44Z</time></trkpt><trkpt lat="44.81694711849655" lon="4.750761321216421"><ele>131.0</ele><time>2026-03-23T16:55:46Z</time></trkpt><trkpt lat="44.81689733725415" lon="4.750671519124289"><ele>131.6</ele><time>2026-03-23T16:55:48Z</time></trkpt><trkpt lat="44.8168418502062" lon="4.750538926628477"><ele>132.2</ele><time>2026-03-23T16:55:50Z</time></trkpt><trkpt lat="44.81679200859931" lon="4.750418522410367"><ele>132.8</ele><time>2026-03-23T16:55:52Z</time></trkpt><trkpt lat="44.81673645090053" lon="4.750292895452739"><ele>133.4</ele><time>2026-03-23T16:55:54Z</time></trkpt><trkpt lat="44.81668664497537" lon="4.750170182697381"><ele>134.0</ele><time>2026-03-23T16:55:56Z</time></trkpt><trkpt lat="44.81666537848359" lon="4.750042091850955"><ele>134.0</ele><time>2026-03-23T16:55:58Z</time></trkpt><trkpt lat="44.81663152112702" lon="4.749904180621671"><ele>134.0</ele><time>2026-03-23T16:56:00Z</time></trkpt><trkpt lat="44.81659725917103" lon="4.749780431079476"><ele>134.0</ele><time>2026-03-23T16:56:02Z</time></trkpt><trkpt lat="44.816578471497785" lon="4.749624835370324"><ele>134.0</ele><time>2026-03-23T16:56:04Z</time></trkpt><trkpt lat="44.816575577876556" lon="4.749462175230635"><ele>134.0</ele><time>2026-03-23T16:56:06Z</time></trkpt><trkpt lat="44.816557351571426" lon="4.7493319697254295"><ele>133.2</ele><time>2026-03-23T16:56:08Z</time></trkpt><trkpt lat="44.81654076931233" lon="4.749201601983061"><ele>132.4</ele><time>2026-03-23T16:56:10Z</time></trkpt><trkpt lat="44.816517848683105" lon="4.749061357507675"><ele>131.6</ele><time>2026-03-23T16:56:12Z</time></trkpt><trkpt lat="44.816506600082974" lon="4.748931057153979"><ele>130.8</ele><time>2026-03-23T16:56:14Z</time></trkpt><trkpt lat="44.81648388272569" lon="4.7487961227533875"><ele>130.0</ele><time>2026-03-23T16:56:16Z</time></trkpt><trkpt lat="44.816471046545075" lon="4.748642866447723"><ele>129.0</ele><time>2026-03-23T16:56:18Z</time></trkpt><trkpt lat="44.81645541403285" lon="4.748481872531551"><ele>128.0</ele><time>2026-03-23T16:56:20Z</time></trkpt><trkpt lat="44.81642568176033" lon="4.748341817777759"><ele>127.0</ele><time>2026-03-23T16:56:22Z</time></trkpt><trkpt lat="44.816398056880175" lon="4.748217548441393"><ele>126.0</ele><time>2026-03-23T16:56:24Z</time></trkpt><trkpt lat="44.816369835224506" lon="4.7480910622377905"><ele>125.0</ele><time>2026-03-23T16:56:26Z</time></trkpt><trkpt lat="44.81633832733904" lon="4.747975538681643"><ele>124.99999999999999</ele><time>2026-03-23T16:56:28Z</time></trkpt><trkpt lat="44.81630492613856" lon="4.747871486008176"><ele>125.0</ele><time>2026-03-23T16:56:30Z</time></trkpt><trkpt lat="44.816268203189495" lon="4.747771001976392"><ele>125.0</ele><time>2026-03-23T16:56:33Z</time></trkpt><trkpt lat="44.816277940825906" lon="4.747653317552872"><ele>125.0</ele><time>2026-03-23T16:57:38Z</time></trkpt><trkpt lat="44.81627422576173" lon="4.747552327207615"><ele>124.99999999999999</ele><time>2026-03-23T16:57:41Z</time></trkpt><trkpt lat="44.816244892144084" lon="4.747443392981314"><ele>125.0</ele><time>2026-03-23T16:57:43Z</time></trkpt><trkpt lat="44.816216541003364" lon="4.747326543322793"><ele>123.2</ele><time>2026-03-23T16:57:45Z</time></trkpt><trkpt lat="44.816189998504214" lon="4.747193487878613"><ele>121.4</ele><time>2026-03-23T16:57:47Z</time></trkpt><trkpt lat="44.81616676799708" lon="4.7470768229310805"><ele>119.6</ele><time>2026-03-23T16:57:49Z</time></trkpt><trkpt lat="44.81614087083139" lon="4.746952104328486"><ele>117.8</ele><time>2026-03-23T16:57:51Z</time></trkpt><trkpt lat="44.81610944690097" lon="4.746827070043787"><ele>116.0</ele><time>2026-03-23T16:57:53Z</time></trkpt><trkpt lat="44.81608857087312" lon="4.746699960264677"><ele>116.0</ele><time>2026-03-23T16:57:55Z</time></trkpt><trkpt lat="44.81605826882671" lon="4.746564412536785"><ele>116.0</ele><time>2026-03-23T16:57:57Z</time></trkpt><trkpt lat="44.81603414973228" lon="4.746423358755144"><ele>116.0</ele><time>2026-03-23T16:57:59Z</time></trkpt><trkpt lat="44.816032298665505" lon="4.74627171748101"><ele>116.0</ele><time>2026-03-23T16:58:01Z</time></trkpt><trkpt lat="44.816058468007554" lon="4.746125118291907"><ele>116.0</ele><time>2026-03-23T16:58:03Z</time></trkpt><trkpt lat="44.81606467370505" lon="4.745975143874609"><ele>115.8</ele><time>2026-03-23T16:58:05Z</time></trkpt><trkpt lat="44.8160831411502" lon="4.745818202519543"><ele>115.6</ele><time>2026-03-23T16:58:07Z</time></trkpt><trkpt lat="44.81611561680173" lon="4.745663283294897"><ele>115.4</ele><time>2026-03-23T16:58:09Z</time></trkpt><trkpt lat="44.816141068199336" lon="4.745508520343544"><ele>115.2</ele><time>2026-03-23T16:58:11Z</time></trkpt><trkpt lat="44.81616960994818" lon="4.74536375889288"><ele>115.0</ele><time>2026-03-23T16:58:13Z</time></trkpt><trkpt lat="44.81618285667162" lon="4.745221116829421"><ele>116.0</ele><time>2026-03-23T16:58:15Z</time></trkpt><trkpt lat="44.81620068747055" lon="4.745062364437078"><ele>117.0</ele><time>2026-03-23T16:58:17Z</time></trkpt><trkpt lat="44.81623951746196" lon="4.744915821294066"><ele>118.0</ele><time>2026-03-23T16:58:19Z</time></trkpt><trkpt lat="44.81625264348547" lon="4.7447657646042645"><ele>119.0</ele><time>2026-03-23T16:58:21Z</time></trkpt><trkpt lat="44.81627613172527" lon="4.744605973552316"><ele>120.0</ele><time>2026-03-23T16:58:23Z</time></trkpt><trkpt lat="44.816310035325515" lon="4.7444596640638945"><ele>121.5</ele><time>2026-03-23T16:58:25Z</time></trkpt><trkpt lat="44.81634639116226" lon="4.7442972263201435"><ele>123.0</ele><time>2026-03-23T16:58:27Z</time></trkpt><trkpt lat="44.81636958038832" lon="4.744142100697036"><ele>124.5</ele><time>2026-03-23T16:58:29Z</time></trkpt><trkpt lat="44.81638594508692" lon="4.7439957240485136"><ele>126.0</ele><time>2026-03-23T16:58:31Z</time></trkpt><trkpt lat="44.81640874210056" lon="4.743840110695633"><ele>126.0</ele><time>2026-03-23T16:58:33Z</time></trkpt><trkpt lat="44.8163946215764" lon="4.743683935530166"><ele>126.0</ele><time>2026-03-23T16:58:35Z</time></trkpt><trkpt lat="44.81639981359715" lon="4.743532497000439"><ele>126.0</ele><time>2026-03-23T16:58:37Z</time></trkpt><trkpt lat="44.81639272971319" lon="4.743388067236318"><ele>126.0</ele><time>2026-03-23T16:58:39Z</time></trkpt><trkpt lat="44.816396494378196" lon="4.743245818265869"><ele>126.0</ele><time>2026-03-23T16:58:41Z</time></trkpt><trkpt lat="44.81638454893714" lon="4.7430876793339465"><ele>126.5</ele><time>2026-03-23T16:58:43Z</time></trkpt><trkpt lat="44.81636865580386" lon="4.7429572287128465"><ele>127.0</ele><time>2026-03-23T16:58:45Z</time></trkpt><trkpt lat="44.8163628931551" lon="4.742785203137369"><ele>127.5</ele><time>2026-03-23T16:58:47Z</time></trkpt><trkpt lat="44.81635757145341" lon="4.742619513494469"><ele>128.0</ele><time>2026-03-23T16:58:49Z</time></trkpt><trkpt lat="44.816357148015875" lon="4.742451491287756"><ele>128.0</ele><time>2026-03-23T16:58:51Z</time></trkpt><trkpt lat="44.81634888732225" lon="4.742276464402422"><ele>128.0</ele><time>2026-03-23T16:58:53Z</time></trkpt><trkpt lat="44.81636121876449" lon="4.742110772529312"><ele>128.0</ele><time>2026-03-23T16:58:55Z</time></trkpt><trkpt lat="44.81638494116442" lon="4.741940510449077"><ele>128.0</ele><time>2026-03-23T16:58:57Z</time></trkpt><trkpt lat="44.816392735953144" lon="4.741772420704261"><ele>128.0</ele><time>2026-03-23T16:58:59Z</time></trkpt><trkpt lat="44.816391102033485" lon="4.74168316057594"><ele>128.0</ele><time>2026-03-23T16:59:00Z</time></trkpt><trkpt lat="44.816426938407446" lon="4.741514238949983"><ele>128.0</ele><time>2026-03-23T16:59:02Z</time></trkpt><trkpt lat="44.81647162588572" lon="4.741350069312587"><ele>128.0</ele><time>2026-03-23T16:59:04Z</time></trkpt><trkpt lat="44.81650236646708" lon="4.741264809087869"><ele>128.0</ele><time>2026-03-23T16:59:05Z</time></trkpt><trkpt lat="44.816563154065776" lon="4.741099225328387"><ele>129.6</ele><time>2026-03-23T16:59:07Z</time></trkpt><trkpt lat="44.81662561873645" lon="4.740936986193319"><ele>131.20000000000002</ele><time>2026-03-23T16:59:09Z</time></trkpt><trkpt lat="44.81666225116118" lon="4.740852218914511"><ele>132.8</ele><time>2026-03-23T16:59:10Z</time></trkpt><trkpt lat="44.81668945100715" lon="4.740764392506357"><ele>134.4</ele><time>2026-03-23T16:59:11Z</time></trkpt><trkpt lat="44.816728680423886" lon="4.740616702918519"><ele>136.0</ele><time>2026-03-23T16:59:13.001Z</time></trkpt><trkpt lat="44.81676758847568" lon="4.740528786087493"><ele>136.0</ele><time>2026-03-23T16:59:14.001Z</time></trkpt><trkpt lat="44.81679812344039" lon="4.740445149611686"><ele>136.0</ele><time>2026-03-23T16:59:15Z</time></trkpt><trkpt lat="44.81685494366157" lon="4.740302273249245"><ele>136.0</ele><time>2026-03-23T16:59:17Z</time></trkpt><trkpt lat="44.816930060309325" lon="4.740173600814615"><ele>136.0</ele><time>2026-03-23T16:59:19Z</time></trkpt><trkpt lat="44.816991384537346" lon="4.740049763461041"><ele>136.0</ele><time>2026-03-23T16:59:21.001Z</time></trkpt><trkpt lat="44.81710031166718" lon="4.739961252200025"><ele>133.66666666666669</ele><time>2026-03-23T16:59:23.001Z</time></trkpt><trkpt lat="44.81718153809549" lon="4.739851116221812"><ele>131.33333333333334</ele><time>2026-03-23T16:59:25.001Z</time></trkpt><trkpt lat="44.81723060192184" lon="4.7397861016575655"><ele>129.0</ele><time>2026-03-23T16:59:26.001Z</time></trkpt><trkpt lat="44.81727511068395" lon="4.73971603338312"><ele>126.66666666666666</ele><time>2026-03-23T16:59:27.001Z</time></trkpt><trkpt lat="44.817321357576795" lon="4.73965254148871"><ele>124.33333333333333</ele><time>2026-03-23T16:59:28.001Z</time></trkpt><trkpt lat="44.81740829815749" lon="4.739523473384377"><ele>122.0</ele><time>2026-03-23T16:59:30.001Z</time></trkpt><trkpt lat="44.817456888781265" lon="4.739459906087556"><ele>121.99999999999999</ele><time>2026-03-23T16:59:31.001Z</time></trkpt><trkpt lat="44.817508253777035" lon="4.73939378794786"><ele>122.0</ele><time>2026-03-23T16:59:32.001Z</time></trkpt><trkpt lat="44.817588995451416" lon="4.73926161604977"><ele>122.0</ele><time>2026-03-23T16:59:34.001Z</time></trkpt><trkpt lat="44.817627260945194" lon="4.739186637565783"><ele>122.0</ele><time>2026-03-23T16:59:35.001Z</time></trkpt><trkpt lat="44.81765831729908" lon="4.739103935988352"><ele>121.99999999999999</ele><time>2026-03-23T16:59:36.001Z</time></trkpt><trkpt lat="44.81772463229069" lon="4.738969791250105"><ele>122.0</ele><time>2026-03-23T16:59:38.001Z</time></trkpt><trkpt lat="44.81774266737767" lon="4.738883717254827"><ele>121.39999999999999</ele><time>2026-03-23T16:59:39.001Z</time></trkpt><trkpt lat="44.817766210378295" lon="4.738728841125808"><ele>120.79999999999998</ele><time>2026-03-23T16:59:41.001Z</time></trkpt><trkpt lat="44.81776912569217" lon="4.738569704404201"><ele>120.2</ele><time>2026-03-23T16:59:43.001Z</time></trkpt><trkpt lat="44.8177631504204" lon="4.738405862326174"><ele>119.6</ele><time>2026-03-23T16:59:45.001Z</time></trkpt><trkpt lat="44.817739336506584" lon="4.738261773965669"><ele>119.0</ele><time>2026-03-23T16:59:47.001Z</time></trkpt><trkpt lat="44.817706627846945" lon="4.738108722848162"><ele>119.0</ele><time>2026-03-23T16:59:49.001Z</time></trkpt><trkpt lat="44.817679308158425" lon="4.737982968475321"><ele>119.0</ele><time>2026-03-23T16:59:51.001Z</time></trkpt><trkpt lat="44.817655155331174" lon="4.737846253288975"><ele>119.0</ele><time>2026-03-23T16:59:53.001Z</time></trkpt><trkpt lat="44.81762495560896" lon="4.737709498972508"><ele>119.0</ele><time>2026-03-23T16:59:55.001Z</time></trkpt><trkpt lat="44.81760041596757" lon="4.737562226500332"><ele>119.0</ele><time>2026-03-23T16:59:57.001Z</time></trkpt><trkpt lat="44.81757470035794" lon="4.737423103614325"><ele>121.6</ele><time>2026-03-23T16:59:59.001Z</time></trkpt><trkpt lat="44.81758023867556" lon="4.737277239665891"><ele>124.2</ele><time>2026-03-23T17:00:01.001Z</time></trkpt><trkpt lat="44.817563207118916" lon="4.737129337360002"><ele>126.79999999999998</ele><time>2026-03-23T17:00:03.001Z</time></trkpt><trkpt lat="44.817559018279965" lon="4.736989900722874"><ele>129.4</ele><time>2026-03-23T17:00:05.001Z</time></trkpt><trkpt lat="44.817560857616314" lon="4.7368415135110284"><ele>132.0</ele><time>2026-03-23T17:00:07.001Z</time></trkpt><trkpt lat="44.81756952718863" lon="4.736718406116953"><ele>133.0</ele><time>2026-03-23T17:00:09.001Z</time></trkpt><trkpt lat="44.81756857999822" lon="4.736579256606573"><ele>134.0</ele><time>2026-03-23T17:00:11.001Z</time></trkpt><trkpt lat="44.817595622426786" lon="4.736442333448864"><ele>135.0</ele><time>2026-03-23T17:00:13.001Z</time></trkpt><trkpt lat="44.81762514115929" lon="4.736309457662651"><ele>136.0</ele><time>2026-03-23T17:00:15.001Z</time></trkpt><trkpt lat="44.81765748208298" lon="4.736157543372947"><ele>137.0</ele><time>2026-03-23T17:00:17.001Z</time></trkpt><trkpt lat="44.81770829031294" lon="4.73601820258258"><ele>134.16666666666666</ele><time>2026-03-23T17:00:19Z</time></trkpt><trkpt lat="44.81774192800086" lon="4.7358891085710635"><ele>131.33333333333331</ele><time>2026-03-23T17:00:21Z</time></trkpt><trkpt lat="44.81777464366415" lon="4.735761230582265"><ele>128.5</ele><time>2026-03-23T17:00:23Z</time></trkpt><trkpt lat="44.81781414527549" lon="4.7356511843070095"><ele>125.66666666666666</ele><time>2026-03-23T17:00:25Z</time></trkpt><trkpt lat="44.81783849194669" lon="4.735544200789877"><ele>122.83333333333333</ele><time>2026-03-23T17:00:28Z</time></trkpt><trkpt lat="44.81787709636058" lon="4.735445036927603"><ele>120.0</ele><time>2026-03-23T17:00:30Z</time></trkpt><trkpt lat="44.81791171795816" lon="4.735330675956129"><ele>120.4</ele><time>2026-03-23T17:00:32Z</time></trkpt><trkpt lat="44.817933793620895" lon="4.735184755295355"><ele>120.8</ele><time>2026-03-23T17:00:34Z</time></trkpt><trkpt lat="44.8179692860069" lon="4.735051577268198"><ele>121.19999999999999</ele><time>2026-03-23T17:00:36Z</time></trkpt><trkpt lat="44.817983901775165" lon="4.734900261272539"><ele>121.6</ele><time>2026-03-23T17:00:38Z</time></trkpt><trkpt lat="44.81799456083869" lon="4.734764741538281"><ele>122.0</ele><time>2026-03-23T17:00:40Z</time></trkpt><trkpt lat="44.818000903165036" lon="4.734625025482305"><ele>122.0</ele><time>2026-03-23T17:00:42Z</time></trkpt><trkpt lat="44.81799419355498" lon="4.734490982045349"><ele>121.99999999999999</ele><time>2026-03-23T17:00:44Z</time></trkpt><trkpt lat="44.8179997540994" lon="4.734335338240604"><ele>121.99999999999999</ele><time>2026-03-23T17:00:46Z</time></trkpt><trkpt lat="44.81799317217044" lon="4.7341863625446186"><ele>122.0</ele><time>2026-03-23T17:00:48Z</time></trkpt><trkpt lat="44.81798278370028" lon="4.734042872962764"><ele>122.0</ele><time>2026-03-23T17:00:50Z</time></trkpt><trkpt lat="44.817979366797715" lon="4.733902178060607"><ele>122.0</ele><time>2026-03-23T17:00:52Z</time></trkpt><trkpt lat="44.817973078680126" lon="4.733767555380957"><ele>121.99999999999999</ele><time>2026-03-23T17:00:54Z</time></trkpt><trkpt lat="44.817962091451726" lon="4.733624754745425"><ele>121.99999999999999</ele><time>2026-03-23T17:00:56Z</time></trkpt><trkpt lat="44.817953624675" lon="4.7334769893522965"><ele>122.0</ele><time>2026-03-23T17:00:58Z</time></trkpt><trkpt lat="44.817945423735814" lon="4.733334092359296"><ele>122.0</ele><time>2026-03-23T17:01:00Z</time></trkpt><trkpt lat="44.817937709772366" lon="4.733202872861795"><ele>122.49999999999999</ele><time>2026-03-23T17:01:02Z</time></trkpt><trkpt lat="44.81792986110927" lon="4.733094445076864"><ele>123.0</ele><time>2026-03-23T17:01:04Z</time></trkpt><trkpt lat="44.81791948672298" lon="4.732973291809758"><ele>123.5</ele><time>2026-03-23T17:01:06Z</time></trkpt><trkpt lat="44.81790110455675" lon="4.732848076674046"><ele>124.0</ele><time>2026-03-23T17:01:08Z</time></trkpt><trkpt lat="44.817907208264344" lon="4.732718528806754"><ele>124.49999999999999</ele><time>2026-03-23T17:01:10Z</time></trkpt><trkpt lat="44.81789281812755" lon="4.7326184888005205"><ele>125.0</ele><time>2026-03-23T17:01:12Z</time></trkpt><trkpt lat="44.81787977556912" lon="4.7325059884731715"><ele>124.99999999999999</ele><time>2026-03-23T17:01:14Z</time></trkpt><trkpt lat="44.817867292046614" lon="4.732381726722679"><ele>125.0</ele><time>2026-03-23T17:01:16Z</time></trkpt><trkpt lat="44.81786237989786" lon="4.732270172545017"><ele>125.0</ele><time>2026-03-23T17:01:18Z</time></trkpt><trkpt lat="44.817833755732984" lon="4.732157542554428"><ele>125.0</ele><time>2026-03-23T17:01:20Z</time></trkpt><trkpt lat="44.817828546071425" lon="4.732045194477318"><ele>124.99999999999999</ele><time>2026-03-23T17:01:22.001Z</time></trkpt><trkpt lat="44.817816201101465" lon="4.731919018716641"><ele>125.0</ele><time>2026-03-23T17:01:24.001Z</time></trkpt><trkpt lat="44.817788495781194" lon="4.731802348761222"><ele>125.2</ele><time>2026-03-23T17:01:26.001Z</time></trkpt><trkpt lat="44.81779547116233" lon="4.731664916906083"><ele>125.4</ele><time>2026-03-23T17:01:28.001Z</time></trkpt><trkpt lat="44.81779214668927" lon="4.731533194550631"><ele>125.6</ele><time>2026-03-23T17:01:30.001Z</time></trkpt><trkpt lat="44.81778507394169" lon="4.7314193713166075"><ele>125.8</ele><time>2026-03-23T17:01:32.001Z</time></trkpt><trkpt lat="44.8177752605127" lon="4.731294961782082"><ele>126.0</ele><time>2026-03-23T17:01:34.001Z</time></trkpt><trkpt lat="44.81776316218133" lon="4.731170513883895"><ele>125.6</ele><time>2026-03-23T17:01:36.001Z</time></trkpt><trkpt lat="44.817763375415716" lon="4.731038841839207"><ele>125.19999999999999</ele><time>2026-03-23T17:01:38.001Z</time></trkpt><trkpt lat="44.81775653973398" lon="4.730898297650671"><ele>124.80000000000001</ele><time>2026-03-23T17:01:40.001Z</time></trkpt><trkpt lat="44.81774048800794" lon="4.730789123778816"><ele>124.4</ele><time>2026-03-23T17:01:42.001Z</time></trkpt><trkpt lat="44.81774316821095" lon="4.730647588714946"><ele>124.0</ele><time>2026-03-23T17:01:44.001Z</time></trkpt><trkpt lat="44.81773171074795" lon="4.730521949553723"><ele>124.00000000000001</ele><time>2026-03-23T17:01:46.001Z</time></trkpt><trkpt lat="44.81772164591101" lon="4.730409752042034"><ele>124.0</ele><time>2026-03-23T17:01:48.001Z</time></trkpt><trkpt lat="44.81772246513302" lon="4.730282961866696"><ele>124.0</ele><time>2026-03-23T17:01:50.001Z</time></trkpt><trkpt lat="44.81771038452553" lon="4.730149699656354"><ele>124.0</ele><time>2026-03-23T17:01:52.001Z</time></trkpt><trkpt lat="44.81769209060627" lon="4.7300200876425444"><ele>124.00000000000001</ele><time>2026-03-23T17:01:54.001Z</time></trkpt><trkpt lat="44.81768067916654" lon="4.729895368125707"><ele>124.0</ele><time>2026-03-23T17:01:56.001Z</time></trkpt><trkpt lat="44.81768171113217" lon="4.729769107750081"><ele>123.16666666666667</ele><time>2026-03-23T17:01:58.001Z</time></trkpt><trkpt lat="44.81767537380208" lon="4.72964607117205"><ele>122.33333333333334</ele><time>2026-03-23T17:02:00.001Z</time></trkpt><trkpt lat="44.81766171767216" lon="4.729518318945702"><ele>121.5</ele><time>2026-03-23T17:02:02.001Z</time></trkpt><trkpt lat="44.81765970851346" lon="4.729402238233715"><ele>120.66666666666666</ele><time>2026-03-23T17:02:04.001Z</time></trkpt><trkpt lat="44.81763909164651" lon="4.729289977448145"><ele>119.83333333333333</ele><time>2026-03-23T17:02:06.001Z</time></trkpt><trkpt lat="44.817629515708404" lon="4.729166238185622"><ele>119.0</ele><time>2026-03-23T17:02:08.001Z</time></trkpt><trkpt lat="44.81761967476353" lon="4.729039763263648"><ele>123.0</ele><time>2026-03-23T17:02:10.001Z</time></trkpt><trkpt lat="44.817600655792845" lon="4.728931510842652"><ele>127.0</ele><time>2026-03-23T17:02:12.001Z</time></trkpt><trkpt lat="44.81758482937431" lon="4.728791844524882"><ele>131.0</ele><time>2026-03-23T17:02:14.001Z</time></trkpt><trkpt lat="44.817565052058775" lon="4.728669945184139"><ele>135.0</ele><time>2026-03-23T17:02:16.001Z</time></trkpt><trkpt lat="44.8175579567321" lon="4.728540132762426"><ele>139.0</ele><time>2026-03-23T17:02:18.001Z</time></trkpt><trkpt lat="44.81750810522508" lon="4.72843099596558"><ele>139.0</ele><time>2026-03-23T17:02:20.001Z</time></trkpt><trkpt lat="44.81749711285929" lon="4.728318942787264"><ele>139.0</ele><time>2026-03-23T17:02:22.001Z</time></trkpt><trkpt lat="44.81745758156422" lon="4.7282147650718604"><ele>139.0</ele><time>2026-03-23T17:02:24.001Z</time></trkpt><trkpt lat="44.81742646913214" lon="4.728124452551423"><ele>139.0</ele><time>2026-03-23T17:02:26.001Z</time></trkpt><trkpt lat="44.817401175001585" lon="4.728017489663961"><ele>139.0</ele><time>2026-03-23T17:02:28.001Z</time></trkpt><trkpt lat="44.81735911242908" lon="4.727911921509905"><ele>139.0</ele><time>2026-03-23T17:02:30.001Z</time></trkpt><trkpt lat="44.8173227634142" lon="4.7278048028897794"><ele>136.5</ele><time>2026-03-23T17:02:32.001Z</time></trkpt><trkpt lat="44.81727105194488" lon="4.727701568119404"><ele>134.0</ele><time>2026-03-23T17:02:34.001Z</time></trkpt><trkpt lat="44.817221991140904" lon="4.727601370315693"><ele>131.5</ele><time>2026-03-23T17:02:36.001Z</time></trkpt><trkpt lat="44.81716158752887" lon="4.72751844886843"><ele>129.0</ele><time>2026-03-23T17:02:38.001Z</time></trkpt><trkpt lat="44.817100257715616" lon="4.727427702263303"><ele>126.50000000000001</ele><time>2026-03-23T17:02:40.001Z</time></trkpt><trkpt lat="44.817022501214915" lon="4.727356843096452"><ele>124.0</ele><time>2026-03-23T17:02:42.001Z</time></trkpt><trkpt lat="44.81694660504194" lon="4.727271086184432"><ele>124.0</ele><time>2026-03-23T17:02:44.001Z</time></trkpt><trkpt lat="44.816864946097944" lon="4.727196951301498"><ele>124.0</ele><time>2026-03-23T17:02:46.001Z</time></trkpt><trkpt lat="44.816798240625786" lon="4.727125962356013"><ele>124.0</ele><time>2026-03-23T17:02:48.001Z</time></trkpt><trkpt lat="44.81671329821195" lon="4.727057530908414"><ele>124.0</ele><time>2026-03-23T17:02:50.001Z</time></trkpt><trkpt lat="44.816651602727426" lon="4.726998912563648"><ele>124.0</ele><time>2026-03-23T17:02:52.001Z</time></trkpt><trkpt lat="44.81656874906014" lon="4.726927772661151"><ele>124.66666666666667</ele><time>2026-03-23T17:02:54.001Z</time></trkpt><trkpt lat="44.8165086550622" lon="4.726872021500728"><ele>125.33333333333334</ele><time>2026-03-23T17:02:56.001Z</time></trkpt><trkpt lat="44.81643964864125" lon="4.726795570423641"><ele>126.0</ele><time>2026-03-23T17:02:58.001Z</time></trkpt><trkpt lat="44.8163832305082" lon="4.7267128765551485"><ele>126.66666666666666</ele><time>2026-03-23T17:03:00.001Z</time></trkpt><trkpt lat="44.81632621068829" lon="4.7266213388814915"><ele>127.33333333333333</ele><time>2026-03-23T17:03:02.001Z</time></trkpt><trkpt lat="44.81627861898873" lon="4.726521435430882"><ele>128.0</ele><time>2026-03-23T17:03:04.001Z</time></trkpt><trkpt lat="44.81622974306294" lon="4.726404809634019"><ele>128.0</ele><time>2026-03-23T17:03:06.001Z</time></trkpt><trkpt lat="44.816188684760036" lon="4.726280283801425"><ele>128.0</ele><time>2026-03-23T17:03:08.001Z</time></trkpt><trkpt lat="44.81614808236141" lon="4.726157528190056"><ele>128.0</ele><time>2026-03-23T17:03:10.001Z</time></trkpt><trkpt lat="44.816134357606984" lon="4.726031490742746"><ele>128.0</ele><time>2026-03-23T17:03:12.001Z</time></trkpt><trkpt lat="44.81610381373044" lon="4.7259210620219525"><ele>128.0</ele><time>2026-03-23T17:03:14.001Z</time></trkpt><trkpt lat="44.81609151081339" lon="4.725788316871769"><ele>125.99999999999999</ele><time>2026-03-23T17:03:16.001Z</time></trkpt><trkpt lat="44.816084866598324" lon="4.725661774079003"><ele>124.0</ele><time>2026-03-23T17:03:18.001Z</time></trkpt><trkpt lat="44.816068468672334" lon="4.725550056358753"><ele>122.0</ele><time>2026-03-23T17:03:20.001Z</time></trkpt><trkpt lat="44.81605572768438" lon="4.725430313498744"><ele>120.0</ele><time>2026-03-23T17:03:22Z</time></trkpt><trkpt lat="44.81603687008869" lon="4.725299599381862"><ele>117.99999999999999</ele><time>2026-03-23T17:03:24Z</time></trkpt><trkpt lat="44.81602272591461" lon="4.725183514034042"><ele>116.0</ele><time>2026-03-23T17:03:26Z</time></trkpt><trkpt lat="44.81601853713127" lon="4.725047663106949"><ele>115.6</ele><time>2026-03-23T17:03:28Z</time></trkpt><trkpt lat="44.81600091030904" lon="4.724909582493282"><ele>115.19999999999999</ele><time>2026-03-23T17:03:30.001Z</time></trkpt><trkpt lat="44.81598772297063" lon="4.724786433798436"><ele>114.80000000000001</ele><time>2026-03-23T17:03:32Z</time></trkpt><trkpt lat="44.8159642817554" lon="4.724661575708185"><ele>114.4</ele><time>2026-03-23T17:03:34Z</time></trkpt><trkpt lat="44.81594413807277" lon="4.724531101285272"><ele>114.0</ele><time>2026-03-23T17:03:36.001Z</time></trkpt><trkpt lat="44.81592426263845" lon="4.724416627724621"><ele>118.66666666666667</ele><time>2026-03-23T17:03:38.001Z</time></trkpt><trkpt lat="44.81591478529054" lon="4.724298253864536"><ele>123.33333333333334</ele><time>2026-03-23T17:03:40.001Z</time></trkpt><trkpt lat="44.8159003982511" lon="4.72417305803503"><ele>128.0</ele><time>2026-03-23T17:03:42.001Z</time></trkpt><trkpt lat="44.81588085729365" lon="4.724072611559127"><ele>132.66666666666669</ele><time>2026-03-23T17:03:44.001Z</time></trkpt><trkpt lat="44.815864659262175" lon="4.723950100838987"><ele>137.33333333333334</ele><time>2026-03-23T17:03:46.001Z</time></trkpt><trkpt lat="44.815850354873184" lon="4.723824783403769"><ele>142.0</ele><time>2026-03-23T17:03:48.001Z</time></trkpt><trkpt lat="44.815842632014736" lon="4.7236837942199505"><ele>140.83333333333334</ele><time>2026-03-23T17:03:50.001Z</time></trkpt><trkpt lat="44.815832565830725" lon="4.723559990537651"><ele>139.66666666666669</ele><time>2026-03-23T17:03:52.001Z</time></trkpt><trkpt lat="44.81580550681522" lon="4.7234319665543625"><ele>138.5</ele><time>2026-03-23T17:03:54.001Z</time></trkpt><trkpt lat="44.815788316891364" lon="4.723316760397052"><ele>137.33333333333334</ele><time>2026-03-23T17:03:56.001Z</time></trkpt><trkpt lat="44.81576539739471" lon="4.72322364764045"><ele>136.16666666666666</ele><time>2026-03-23T17:03:58.001Z</time></trkpt><trkpt lat="44.815745654695306" lon="4.723111719681783"><ele>135.0</ele><time>2026-03-23T17:04:00.001Z</time></trkpt><trkpt lat="44.815737981564745" lon="4.722995974502188"><ele>135.0</ele><time>2026-03-23T17:04:02.001Z</time></trkpt><trkpt lat="44.81571674857581" lon="4.72288273412455"><ele>135.0</ele><time>2026-03-23T17:04:04.001Z</time></trkpt><trkpt lat="44.81570230372336" lon="4.722760226906206"><ele>135.0</ele><time>2026-03-23T17:04:06.001Z</time></trkpt><trkpt lat="44.81569577937448" lon="4.722646235811901"><ele>135.0</ele><time>2026-03-23T17:04:08.001Z</time></trkpt><trkpt lat="44.815669578597756" lon="4.7225216568671975"><ele>135.0</ele><time>2026-03-23T17:04:10.001Z</time></trkpt><trkpt lat="44.81564584301558" lon="4.722407857977872"><ele>135.0</ele><time>2026-03-23T17:04:12.001Z</time></trkpt><trkpt lat="44.815629510014794" lon="4.722283906864337"><ele>136.0</ele><time>2026-03-23T17:04:14.001Z</time></trkpt><trkpt lat="44.815632987032146" lon="4.72214497874226"><ele>137.0</ele><time>2026-03-23T17:04:16.001Z</time></trkpt><trkpt lat="44.81562378139194" lon="4.722011726845903"><ele>138.0</ele><time>2026-03-23T17:04:18.001Z</time></trkpt><trkpt lat="44.81562101092511" lon="4.721883469065533"><ele>139.0</ele><time>2026-03-23T17:04:20.001Z</time></trkpt><trkpt lat="44.81561442413699" lon="4.721765592071811"><ele>140.0</ele><time>2026-03-23T17:04:22.001Z</time></trkpt><trkpt lat="44.81562869224714" lon="4.721638684250821"><ele>140.0</ele><time>2026-03-23T17:04:24.001Z</time></trkpt><trkpt lat="44.815639031932136" lon="4.721519868909049"><ele>140.0</ele><time>2026-03-23T17:04:26.001Z</time></trkpt><trkpt lat="44.815670920436794" lon="4.72139029352276"><ele>140.0</ele><time>2026-03-23T17:04:28.001Z</time></trkpt><trkpt lat="44.815689434908855" lon="4.721275006166469"><ele>140.0</ele><time>2026-03-23T17:04:30.001Z</time></trkpt><trkpt lat="44.815709450149896" lon="4.721158455868064"><ele>140.0</ele><time>2026-03-23T17:04:32.001Z</time></trkpt><trkpt lat="44.81572102875922" lon="4.721039037895979"><ele>140.0</ele><time>2026-03-23T17:04:34.001Z</time></trkpt><trkpt lat="44.81574021683573" lon="4.720922458044301"><ele>140.33333333333331</ele><time>2026-03-23T17:04:36.001Z</time></trkpt><trkpt lat="44.81576359860605" lon="4.720811388598884"><ele>140.66666666666666</ele><time>2026-03-23T17:04:38.001Z</time></trkpt><trkpt lat="44.81579807487247" lon="4.720705998789665"><ele>141.0</ele><time>2026-03-23T17:04:40.001Z</time></trkpt><trkpt lat="44.815807415293904" lon="4.720587588299378"><ele>141.33333333333334</ele><time>2026-03-23T17:04:42.001Z</time></trkpt><trkpt lat="44.8158302019813" lon="4.720447789518598"><ele>141.66666666666669</ele><time>2026-03-23T17:04:44.001Z</time></trkpt><trkpt lat="44.81585407639056" lon="4.720333889539792"><ele>142.0</ele><time>2026-03-23T17:04:46.001Z</time></trkpt><trkpt lat="44.815869753590974" lon="4.720196906545884"><ele>142.2</ele><time>2026-03-23T17:04:48.001Z</time></trkpt><trkpt lat="44.81589588231708" lon="4.720067510848797"><ele>142.39999999999998</ele><time>2026-03-23T17:04:50.001Z</time></trkpt><trkpt lat="44.81591460426216" lon="4.71993557184319"><ele>142.60000000000002</ele><time>2026-03-23T17:04:52.001Z</time></trkpt><trkpt lat="44.81593485974757" lon="4.719812210894354"><ele>142.8</ele><time>2026-03-23T17:04:54.001Z</time></trkpt><trkpt lat="44.8159587535808" lon="4.719699403788203"><ele>143.0</ele><time>2026-03-23T17:04:56.001Z</time></trkpt><trkpt lat="44.81598221687515" lon="4.71956611164315"><ele>140.5</ele><time>2026-03-23T17:04:58.001Z</time></trkpt><trkpt lat="44.81599311425433" lon="4.719453558937536"><ele>138.0</ele><time>2026-03-23T17:05:00.001Z</time></trkpt><trkpt lat="44.816010769790346" lon="4.719348060631441"><ele>135.5</ele><time>2026-03-23T17:05:02.001Z</time></trkpt><trkpt lat="44.81603497686208" lon="4.719224658130272"><ele>133.0</ele><time>2026-03-23T17:05:04.001Z</time></trkpt><trkpt lat="44.81604897534943" lon="4.719098862267077"><ele>130.5</ele><time>2026-03-23T17:05:06.001Z</time></trkpt><trkpt lat="44.81606583619361" lon="4.718983177851002"><ele>128.0</ele><time>2026-03-23T17:05:08.001Z</time></trkpt><trkpt lat="44.816083488854694" lon="4.7188579799279715"><ele>127.99999999999999</ele><time>2026-03-23T17:05:10.001Z</time></trkpt><trkpt lat="44.816097926639635" lon="4.718749248936961"><ele>128.0</ele><time>2026-03-23T17:05:12.001Z</time></trkpt><trkpt lat="44.81611864719529" lon="4.718625529784108"><ele>128.0</ele><time>2026-03-23T17:05:14.001Z</time></trkpt><trkpt lat="44.816154927540275" lon="4.718491528291077"><ele>128.0</ele><time>2026-03-23T17:05:16.001Z</time></trkpt><trkpt lat="44.816180143735394" lon="4.718361386233289"><ele>127.99999999999999</ele><time>2026-03-23T17:05:18.001Z</time></trkpt><trkpt lat="44.81620011047439" lon="4.71824775701531"><ele>128.0</ele><time>2026-03-23T17:05:20.001Z</time></trkpt><trkpt lat="44.81622396765601" lon="4.7181161415726605"><ele>129.83333333333331</ele><time>2026-03-23T17:05:23.001Z</time></trkpt><trkpt lat="44.81622433596125" lon="4.718026693916437"><ele>131.66666666666666</ele><time>2026-03-23T17:05:25.001Z</time></trkpt><trkpt lat="44.81620526315637" lon="4.7178937831838565"><ele>133.5</ele><time>2026-03-23T17:05:27.001Z</time></trkpt><trkpt lat="44.81618172547142" lon="4.7177576846548295"><ele>135.33333333333334</ele><time>2026-03-23T17:05:29.001Z</time></trkpt><trkpt lat="44.8161670512927" lon="4.717632094377573"><ele>137.16666666666669</ele><time>2026-03-23T17:05:31.001Z</time></trkpt><trkpt lat="44.81612178746223" lon="4.717524934785528"><ele>139.0</ele><time>2026-03-23T17:05:33.001Z</time></trkpt><trkpt lat="44.816084754296135" lon="4.717415385746695"><ele>139.0</ele><time>2026-03-23T17:05:35.001Z</time></trkpt><trkpt lat="44.81604395106501" lon="4.717309693049144"><ele>139.0</ele><time>2026-03-23T17:05:37Z</time></trkpt><trkpt lat="44.81599364882394" lon="4.717195864058885"><ele>139.0</ele><time>2026-03-23T17:05:39.001Z</time></trkpt><trkpt lat="44.81594770938713" lon="4.717116404176664"><ele>139.0</ele><time>2026-03-23T17:05:41Z</time></trkpt><trkpt lat="44.815881177047764" lon="4.7170307633676964"><ele>139.0</ele><time>2026-03-23T17:05:43.001Z</time></trkpt><trkpt lat="44.81581575786117" lon="4.716954798359638"><ele>139.0</ele><time>2026-03-23T17:05:45.001Z</time></trkpt><trkpt lat="44.81575054998578" lon="4.716867139781379"><ele>138.4</ele><time>2026-03-23T17:05:47.001Z</time></trkpt><trkpt lat="44.81567583062342" lon="4.716777304483538"><ele>137.8</ele><time>2026-03-23T17:05:49.001Z</time></trkpt><trkpt lat="44.815602068646776" lon="4.716708859766345"><ele>137.2</ele><time>2026-03-23T17:05:51.001Z</time></trkpt><trkpt lat="44.815530345670766" lon="4.716616335901679"><ele>136.6</ele><time>2026-03-23T17:05:53.001Z</time></trkpt><trkpt lat="44.815472080173265" lon="4.7165318785499375"><ele>136.0</ele><time>2026-03-23T17:05:55.001Z</time></trkpt><trkpt lat="44.81539671395333" lon="4.716422357023804"><ele>136.0</ele><time>2026-03-23T17:05:57Z</time></trkpt><trkpt lat="44.81534210328328" lon="4.716313334913676"><ele>136.0</ele><time>2026-03-23T17:05:59Z</time></trkpt><trkpt lat="44.815289609654045" lon="4.716193934370324"><ele>136.0</ele><time>2026-03-23T17:06:01Z</time></trkpt><trkpt lat="44.81526105506487" lon="4.716058250825888"><ele>136.0</ele><time>2026-03-23T17:06:03Z</time></trkpt><trkpt lat="44.81523462628609" lon="4.715919319435194"><ele>136.0</ele><time>2026-03-23T17:06:05Z</time></trkpt><trkpt lat="44.81520036445795" lon="4.715777967247525"><ele>134.2</ele><time>2026-03-23T17:06:07Z</time></trkpt><trkpt lat="44.81519931518284" lon="4.71564939661301"><ele>132.39999999999998</ele><time>2026-03-23T17:06:09Z</time></trkpt><trkpt lat="44.815193682873215" lon="4.715519481694616"><ele>130.6</ele><time>2026-03-23T17:06:11Z</time></trkpt><trkpt lat="44.815177137273984" lon="4.715373835352171"><ele>128.79999999999998</ele><time>2026-03-23T17:06:13Z</time></trkpt><trkpt lat="44.81516096068101" lon="4.715242616622869"><ele>127.0</ele><time>2026-03-23T17:06:15Z</time></trkpt><trkpt lat="44.81514643581105" lon="4.715098309458532"><ele>130.6</ele><time>2026-03-23T17:06:17Z</time></trkpt><trkpt lat="44.81512437026529" lon="4.714947278989172"><ele>134.2</ele><time>2026-03-23T17:06:19Z</time></trkpt><trkpt lat="44.815094537558636" lon="4.714797242966764"><ele>137.8</ele><time>2026-03-23T17:06:21Z</time></trkpt><trkpt lat="44.815040508817646" lon="4.7146616923893445"><ele>141.4</ele><time>2026-03-23T17:06:23Z</time></trkpt><trkpt lat="44.814984605219536" lon="4.71455234502702"><ele>145.0</ele><time>2026-03-23T17:06:25Z</time></trkpt><trkpt lat="44.814920553813266" lon="4.714416357819724"><ele>143.0</ele><time>2026-03-23T17:06:27Z</time></trkpt><trkpt lat="44.81486252808619" lon="4.714314690267761"><ele>141.0</ele><time>2026-03-23T17:06:29Z</time></trkpt><trkpt lat="44.814800265147" lon="4.714185522274074"><ele>139.0</ele><time>2026-03-23T17:06:31Z</time></trkpt><trkpt lat="44.814733991179345" lon="4.714079555799508"><ele>137.0</ele><time>2026-03-23T17:06:33Z</time></trkpt><trkpt lat="44.81466417416289" lon="4.713966542193125"><ele>135.0</ele><time>2026-03-23T17:06:35Z</time></trkpt><trkpt lat="44.81458434910305" lon="4.713870830633652"><ele>135.0</ele><time>2026-03-23T17:06:37Z</time></trkpt><trkpt lat="44.8145057506278" lon="4.713780965892867"><ele>135.0</ele><time>2026-03-23T17:06:39Z</time></trkpt><trkpt lat="44.81442385828459" lon="4.713695643544261"><ele>135.0</ele><time>2026-03-23T17:06:41Z</time></trkpt><trkpt lat="44.81434072187374" lon="4.713624262454559"><ele>135.0</ele><time>2026-03-23T17:06:43Z</time></trkpt><trkpt lat="44.814247213242844" lon="4.7135346057246235"><ele>135.0</ele><time>2026-03-23T17:06:45Z</time></trkpt><trkpt lat="44.81416473426718" lon="4.713432437360544"><ele>137.6</ele><time>2026-03-23T17:06:47Z</time></trkpt><trkpt lat="44.814092075609224" lon="4.713344646034586"><ele>140.2</ele><time>2026-03-23T17:06:49Z</time></trkpt><trkpt lat="44.81401888472391" lon="4.71322485000291"><ele>142.8</ele><time>2026-03-23T17:06:51Z</time></trkpt><trkpt lat="44.813952602821395" lon="4.713100561873785"><ele>145.4</ele><time>2026-03-23T17:06:53Z</time></trkpt><trkpt lat="44.81389965638179" lon="4.712948991373689"><ele>148.0</ele><time>2026-03-23T17:06:55Z</time></trkpt><trkpt lat="44.81387759831914" lon="4.7128158593550475"><ele>144.8</ele><time>2026-03-23T17:06:57Z</time></trkpt><trkpt lat="44.81384621776076" lon="4.712674263929422"><ele>141.60000000000002</ele><time>2026-03-23T17:06:59Z</time></trkpt><trkpt lat="44.81382688312215" lon="4.71253893696684"><ele>138.39999999999998</ele><time>2026-03-23T17:07:01Z</time></trkpt><trkpt lat="44.81381777820859" lon="4.712394603365887"><ele>135.2</ele><time>2026-03-23T17:07:03Z</time></trkpt><trkpt lat="44.813798105008374" lon="4.712303839355806"><ele>132.0</ele><time>2026-03-23T17:07:04Z</time></trkpt><trkpt lat="44.81378832858175" lon="4.712165129817715"><ele>132.0</ele><time>2026-03-23T17:07:06Z</time></trkpt><trkpt lat="44.8137707565339" lon="4.712027163916091"><ele>132.0</ele><time>2026-03-23T17:07:08Z</time></trkpt><trkpt lat="44.813745393755966" lon="4.71188430239343"><ele>132.0</ele><time>2026-03-23T17:07:10Z</time></trkpt><trkpt lat="44.81373069935521" lon="4.711738983563604"><ele>132.0</ele><time>2026-03-23T17:07:12Z</time></trkpt><trkpt lat="44.81373120159693" lon="4.711597245428804"><ele>132.0</ele><time>2026-03-23T17:07:14Z</time></trkpt><trkpt lat="44.81375935158385" lon="4.711433325525213"><ele>132.0</ele><time>2026-03-23T17:07:16Z</time></trkpt><trkpt lat="44.813789266979505" lon="4.711299168107109"><ele>132.0</ele><time>2026-03-23T17:07:18Z</time></trkpt><trkpt lat="44.81381178039983" lon="4.711144641147951"><ele>132.0</ele><time>2026-03-23T17:07:20Z</time></trkpt><trkpt lat="44.81384192879779" lon="4.711013247498982"><ele>132.0</ele><time>2026-03-23T17:07:22Z</time></trkpt><trkpt lat="44.81385617048149" lon="4.71086440680206"><ele>132.0</ele><time>2026-03-23T17:07:24Z</time></trkpt><trkpt lat="44.8138887345397" lon="4.710709819873919"><ele>132.2</ele><time>2026-03-23T17:07:26Z</time></trkpt><trkpt lat="44.81389778011654" lon="4.71057063733897"><ele>132.39999999999998</ele><time>2026-03-23T17:07:28Z</time></trkpt><trkpt lat="44.81389488153698" lon="4.710417006638342"><ele>132.60000000000002</ele><time>2026-03-23T17:07:30Z</time></trkpt><trkpt lat="44.81388682372986" lon="4.710271631321911"><ele>132.8</ele><time>2026-03-23T17:07:32Z</time></trkpt><trkpt lat="44.81386287250991" lon="4.7101350792479675"><ele>133.0</ele><time>2026-03-23T17:07:34Z</time></trkpt><trkpt lat="44.81383836740446" lon="4.709991997480417"><ele>132.0</ele><time>2026-03-23T17:07:36.001Z</time></trkpt><trkpt lat="44.81380249361279" lon="4.709856689744997"><ele>131.0</ele><time>2026-03-23T17:07:38.001Z</time></trkpt><trkpt lat="44.81374974325058" lon="4.709724695662835"><ele>130.0</ele><time>2026-03-23T17:07:40.001Z</time></trkpt><trkpt lat="44.813698605379955" lon="4.7096025950515665"><ele>129.0</ele><time>2026-03-23T17:07:42.001Z</time></trkpt><trkpt lat="44.813645275294725" lon="4.709465116835313"><ele>128.0</ele><time>2026-03-23T17:07:44.001Z</time></trkpt><trkpt lat="44.81359542414491" lon="4.709336240615874"><ele>127.60000000000001</ele><time>2026-03-23T17:07:46Z</time></trkpt><trkpt lat="44.8135488151298" lon="4.709208916256642"><ele>127.20000000000002</ele><time>2026-03-23T17:07:48Z</time></trkpt><trkpt lat="44.81351033240799" lon="4.709085190448123"><ele>126.8</ele><time>2026-03-23T17:07:50Z</time></trkpt><trkpt lat="44.8134678124721" lon="4.7089695103663045"><ele>126.4</ele><time>2026-03-23T17:07:52Z</time></trkpt><trkpt lat="44.81340376060576" lon="4.70883763625312"><ele>126.0</ele><time>2026-03-23T17:07:54Z</time></trkpt><trkpt lat="44.8133517177822" lon="4.708696675388577"><ele>130.0</ele><time>2026-03-23T17:07:56Z</time></trkpt><trkpt lat="44.81330105190123" lon="4.708574023216366"><ele>134.0</ele><time>2026-03-23T17:07:58Z</time></trkpt><trkpt lat="44.81325508271284" lon="4.70845677098245"><ele>138.0</ele><time>2026-03-23T17:08:00Z</time></trkpt><trkpt lat="44.81322540216288" lon="4.708329359446656"><ele>142.0</ele><time>2026-03-23T17:08:02Z</time></trkpt><trkpt lat="44.81321862628273" lon="4.708205788239105"><ele>146.0</ele><time>2026-03-23T17:08:04Z</time></trkpt><trkpt lat="44.81320300343444" lon="4.708056200579343"><ele>146.0</ele><time>2026-03-23T17:08:06Z</time></trkpt><trkpt lat="44.813187491618514" lon="4.707922369622598"><ele>146.0</ele><time>2026-03-23T17:08:08Z</time></trkpt><trkpt lat="44.81319198007106" lon="4.707773331549173"><ele>146.0</ele><time>2026-03-23T17:08:10Z</time></trkpt><trkpt lat="44.81318664698079" lon="4.70761237278843"><ele>146.0</ele><time>2026-03-23T17:08:12Z</time></trkpt><trkpt lat="44.81318855305366" lon="4.707494815299423"><ele>146.0</ele><time>2026-03-23T17:08:14Z</time></trkpt><trkpt lat="44.81322659791827" lon="4.707362672254369"><ele>146.0</ele><time>2026-03-23T17:08:16Z</time></trkpt><trkpt lat="44.813248051767246" lon="4.707240824638858"><ele>146.0</ele><time>2026-03-23T17:08:18Z</time></trkpt><trkpt lat="44.81330505383849" lon="4.707107627786437"><ele>146.0</ele><time>2026-03-23T17:08:20Z</time></trkpt><trkpt lat="44.81336116236592" lon="4.706969107359721"><ele>146.0</ele><time>2026-03-23T17:08:22Z</time></trkpt><trkpt lat="44.813388824599805" lon="4.70688926257098"><ele>146.0</ele><time>2026-03-23T17:08:23Z</time></trkpt><trkpt lat="44.81344538833517" lon="4.706762176143087"><ele>143.4</ele><time>2026-03-23T17:08:25Z</time></trkpt><trkpt lat="44.8135137406873" lon="4.706646827621985"><ele>140.8</ele><time>2026-03-23T17:08:27Z</time></trkpt><trkpt lat="44.81357015448043" lon="4.706544091999786"><ele>138.20000000000002</ele><time>2026-03-23T17:08:29Z</time></trkpt><trkpt lat="44.81363913726764" lon="4.70644042597085"><ele>135.6</ele><time>2026-03-23T17:08:31Z</time></trkpt><trkpt lat="44.81369774117751" lon="4.706364092892449"><ele>133.0</ele><time>2026-03-23T17:08:33Z</time></trkpt><trkpt lat="44.81379108377245" lon="4.706280881954937"><ele>133.0</ele><time>2026-03-23T17:08:35Z</time></trkpt><trkpt lat="44.813879691529905" lon="4.7062023263141315"><ele>133.0</ele><time>2026-03-23T17:08:37Z</time></trkpt><trkpt lat="44.813964611942644" lon="4.70612901102258"><ele>133.0</ele><time>2026-03-23T17:08:39Z</time></trkpt><trkpt lat="44.81406510429221" lon="4.706091404926303"><ele>133.0</ele><time>2026-03-23T17:08:41Z</time></trkpt><trkpt lat="44.81416483761984" lon="4.706039018511728"><ele>133.0</ele><time>2026-03-23T17:08:43Z</time></trkpt><trkpt lat="44.814228751233365" lon="4.7060177654411985"><ele>132.8</ele><time>2026-03-23T17:08:44Z</time></trkpt><trkpt lat="44.814337476784914" lon="4.706019813500648"><ele>132.60000000000002</ele><time>2026-03-23T17:08:46Z</time></trkpt><trkpt lat="44.814456101503076" lon="4.706011264987788"><ele>132.39999999999998</ele><time>2026-03-23T17:08:48Z</time></trkpt><trkpt lat="44.814559181673005" lon="4.706030592474757"><ele>132.2</ele><time>2026-03-23T17:08:50Z</time></trkpt><trkpt lat="44.814656139792106" lon="4.706078596108347"><ele>132.0</ele><time>2026-03-23T17:08:52Z</time></trkpt><trkpt lat="44.81473882055747" lon="4.70610606486354"><ele>132.0</ele><time>2026-03-23T17:08:54Z</time></trkpt><trkpt lat="44.81483649720871" lon="4.706153137837556"><ele>132.0</ele><time>2026-03-23T17:08:56Z</time></trkpt><trkpt lat="44.81490374871996" lon="4.706179992906075"><ele>132.0</ele><time>2026-03-23T17:08:58Z</time></trkpt><trkpt lat="44.81496995015636" lon="4.706218486312085"><ele>132.0</ele><time>2026-03-23T17:09:00Z</time></trkpt><trkpt lat="44.81503013255434" lon="4.706264209753953"><ele>132.0</ele><time>2026-03-23T17:09:03Z</time></trkpt><trkpt lat="44.8149723113683" lon="4.706217357969534"><ele>132.0</ele><time>2026-03-23T17:10:47.999Z</time></trkpt><trkpt lat="44.81489002573386" lon="4.706162356661989"><ele>132.0</ele><time>2026-03-23T17:10:50.999Z</time></trkpt><trkpt lat="44.81482467843942" lon="4.706132356953814"><ele>132.0</ele><time>2026-03-23T17:10:52.999Z</time></trkpt><trkpt lat="44.8147442649963" lon="4.706093941549297"><ele>132.0</ele><time>2026-03-23T17:10:54.999Z</time></trkpt><trkpt lat="44.814662977155685" lon="4.706045593118655"><ele>132.0</ele><time>2026-03-23T17:10:56.999Z</time></trkpt><trkpt lat="44.81457749981762" lon="4.7060210386943755"><ele>132.0</ele><time>2026-03-23T17:10:58.999Z</time></trkpt><trkpt lat="44.81448721172364" lon="4.706007443937128"><ele>132.0</ele><time>2026-03-23T17:11:00.999Z</time></trkpt><trkpt lat="44.814388981176" lon="4.7059844048232415"><ele>132.2</ele><time>2026-03-23T17:11:02.999Z</time></trkpt><trkpt lat="44.8142898925521" lon="4.7059899482840315"><ele>132.39999999999998</ele><time>2026-03-23T17:11:04.999Z</time></trkpt><trkpt lat="44.81419065077679" lon="4.706004377351424"><ele>132.60000000000002</ele><time>2026-03-23T17:11:06.999Z</time></trkpt><trkpt lat="44.814090850117196" lon="4.706017093912294"><ele>132.8</ele><time>2026-03-23T17:11:08.999Z</time></trkpt><trkpt lat="44.81401286876273" lon="4.706040082954835"><ele>133.0</ele><time>2026-03-23T17:11:10.999Z</time></trkpt><trkpt lat="44.813915827358095" lon="4.706090154880165"><ele>133.0</ele><time>2026-03-23T17:11:12.999Z</time></trkpt><trkpt lat="44.81382217596953" lon="4.706155603921436"><ele>133.0</ele><time>2026-03-23T17:11:14.999Z</time></trkpt><trkpt lat="44.81374410410639" lon="4.706251991196126"><ele>133.0</ele><time>2026-03-23T17:11:16.999Z</time></trkpt><trkpt lat="44.813664734508784" lon="4.706331836156536"><ele>133.0</ele><time>2026-03-23T17:11:18.999Z</time></trkpt><trkpt lat="44.81359908023622" lon="4.706440169827425"><ele>133.0</ele><time>2026-03-23T17:11:20.999Z</time></trkpt><trkpt lat="44.813526595710925" lon="4.706553050947207"><ele>135.0</ele><time>2026-03-23T17:11:22.999Z</time></trkpt><trkpt lat="44.813462684747954" lon="4.706694709560709"><ele>137.0</ele><time>2026-03-23T17:11:24.999Z</time></trkpt><trkpt lat="44.81340926120123" lon="4.706830385030849"><ele>139.0</ele><time>2026-03-23T17:11:26.999Z</time></trkpt><trkpt lat="44.8133565373495" lon="4.706936413645738"><ele>141.0</ele><time>2026-03-23T17:11:28.999Z</time></trkpt><trkpt lat="44.81330354241326" lon="4.7070756936327385"><ele>143.0</ele><time>2026-03-23T17:11:30.999Z</time></trkpt><trkpt lat="44.813261995379946" lon="4.707213916102862"><ele>143.0</ele><time>2026-03-23T17:11:32.999Z</time></trkpt><trkpt lat="44.81323886533167" lon="4.707364838247521"><ele>143.0</ele><time>2026-03-23T17:11:34.999Z</time></trkpt><trkpt lat="44.81321378828849" lon="4.707518706273502"><ele>143.0</ele><time>2026-03-23T17:11:36.999Z</time></trkpt><trkpt lat="44.81320809774027" lon="4.70768040989196"><ele>143.0</ele><time>2026-03-23T17:11:38.999Z</time></trkpt><trkpt lat="44.81320292933711" lon="4.707819370520778"><ele>143.0</ele><time>2026-03-23T17:11:40.999Z</time></trkpt><trkpt lat="44.81321146158987" lon="4.707964678597773"><ele>143.6</ele><time>2026-03-23T17:11:42.999Z</time></trkpt><trkpt lat="44.81324558132162" lon="4.708107485550698"><ele>144.20000000000002</ele><time>2026-03-23T17:11:44.999Z</time></trkpt><trkpt lat="44.81326695752169" lon="4.708253928325439"><ele>144.8</ele><time>2026-03-23T17:11:46.999Z</time></trkpt><trkpt lat="44.813302699600285" lon="4.708397546331841"><ele>145.4</ele><time>2026-03-23T17:11:48.999Z</time></trkpt><trkpt lat="44.81334063776337" lon="4.708517600361827"><ele>146.0</ele><time>2026-03-23T17:11:50.999Z</time></trkpt><trkpt lat="44.813405621355194" lon="4.708647107629088"><ele>149.2</ele><time>2026-03-23T17:11:52.999Z</time></trkpt><trkpt lat="44.813448361211584" lon="4.708777792127147"><ele>152.39999999999998</ele><time>2026-03-23T17:11:54.999Z</time></trkpt><trkpt lat="44.81349856416337" lon="4.70891629093122"><ele>155.6</ele><time>2026-03-23T17:11:56.999Z</time></trkpt><trkpt lat="44.81354266049426" lon="4.709047652669791"><ele>158.79999999999998</ele><time>2026-03-23T17:11:58.999Z</time></trkpt><trkpt lat="44.81359164150304" lon="4.709181323022874"><ele>162.0</ele><time>2026-03-23T17:12:00.999Z</time></trkpt><trkpt lat="44.813634309736045" lon="4.709323818341394"><ele>155.2</ele><time>2026-03-23T17:12:02.999Z</time></trkpt><trkpt lat="44.813674026627446" lon="4.709459195367046"><ele>148.39999999999998</ele><time>2026-03-23T17:12:04.999Z</time></trkpt><trkpt lat="44.81371808622775" lon="4.709584637636211"><ele>141.60000000000002</ele><time>2026-03-23T17:12:06.999Z</time></trkpt><trkpt lat="44.81376330452045" lon="4.709721812702152"><ele>134.8</ele><time>2026-03-23T17:12:08.999Z</time></trkpt><trkpt lat="44.81381331264258" lon="4.709848548011202"><ele>128.0</ele><time>2026-03-23T17:12:10.999Z</time></trkpt><trkpt lat="44.81384199951758" lon="4.709995257885417"><ele>128.0</ele><time>2026-03-23T17:12:12.999Z</time></trkpt><trkpt lat="44.813879098751435" lon="4.710142423054515"><ele>128.0</ele><time>2026-03-23T17:12:14.999Z</time></trkpt><trkpt lat="44.81389661695618" lon="4.710295702464339"><ele>128.0</ele><time>2026-03-23T17:12:16.999Z</time></trkpt><trkpt lat="44.813899877397645" lon="4.710439917870033"><ele>128.0</ele><time>2026-03-23T17:12:18.999Z</time></trkpt><trkpt lat="44.813886117149394" lon="4.710593849494241"><ele>128.0</ele><time>2026-03-23T17:12:20.999Z</time></trkpt><trkpt lat="44.81386932876084" lon="4.710733895306343"><ele>128.8</ele><time>2026-03-23T17:12:22.999Z</time></trkpt><trkpt lat="44.81383620710287" lon="4.71087857291825"><ele>129.60000000000002</ele><time>2026-03-23T17:12:24.999Z</time></trkpt><trkpt lat="44.81380110452843" lon="4.711021535438612"><ele>130.39999999999998</ele><time>2026-03-23T17:12:26.999Z</time></trkpt><trkpt lat="44.81377918142441" lon="4.7111608516259755"><ele>131.2</ele><time>2026-03-23T17:12:28.999Z</time></trkpt><trkpt lat="44.81375561142466" lon="4.711307177364325"><ele>132.0</ele><time>2026-03-23T17:12:30.999Z</time></trkpt><trkpt lat="44.81373440366077" lon="4.7114505119615915"><ele>132.0</ele><time>2026-03-23T17:12:32.999Z</time></trkpt><trkpt lat="44.81372446118569" lon="4.711600833667364"><ele>132.0</ele><time>2026-03-23T17:12:34.998Z</time></trkpt><trkpt lat="44.813727149705784" lon="4.711750263971657"><ele>132.0</ele><time>2026-03-23T17:12:36.998Z</time></trkpt><trkpt lat="44.81373951139348" lon="4.711891558333857"><ele>132.0</ele><time>2026-03-23T17:12:38.998Z</time></trkpt><trkpt lat="44.81375662133791" lon="4.712040188015428"><ele>132.0</ele><time>2026-03-23T17:12:40.998Z</time></trkpt><trkpt lat="44.81378508270389" lon="4.712181361195702"><ele>132.0</ele><time>2026-03-23T17:12:42.998Z</time></trkpt><trkpt lat="44.81379702134715" lon="4.71232775893107"><ele>132.0</ele><time>2026-03-23T17:12:44.998Z</time></trkpt><trkpt lat="44.813823327334255" lon="4.712472114074985"><ele>132.0</ele><time>2026-03-23T17:12:46.998Z</time></trkpt><trkpt lat="44.81383683112121" lon="4.712617192410308"><ele>132.0</ele><time>2026-03-23T17:12:48.998Z</time></trkpt><trkpt lat="44.8138657232866" lon="4.7127489802985005"><ele>132.0</ele><time>2026-03-23T17:12:50.998Z</time></trkpt><trkpt lat="44.81389691057027" lon="4.712880138179275"><ele>135.2</ele><time>2026-03-23T17:12:52.998Z</time></trkpt><trkpt lat="44.81394016328438" lon="4.713003951038896"><ele>138.39999999999998</ele><time>2026-03-23T17:12:54.998Z</time></trkpt><trkpt lat="44.81399453164237" lon="4.713125744337797"><ele>141.60000000000002</ele><time>2026-03-23T17:12:56.998Z</time></trkpt><trkpt lat="44.81405292745419" lon="4.713232536814707"><ele>144.8</ele><time>2026-03-23T17:12:58.998Z</time></trkpt><trkpt lat="44.81412750828467" lon="4.713337350372964"><ele>148.0</ele><time>2026-03-23T17:13:00.998Z</time></trkpt><trkpt lat="44.81420449616966" lon="4.713418925142112"><ele>148.0</ele><time>2026-03-23T17:13:02.998Z</time></trkpt><trkpt lat="44.81429498283084" lon="4.713500743151215"><ele>148.0</ele><time>2026-03-23T17:13:04.998Z</time></trkpt><trkpt lat="44.81438552032889" lon="4.713584636859337"><ele>148.0</ele><time>2026-03-23T17:13:06.998Z</time></trkpt><trkpt lat="44.81446981294945" lon="4.713665846386652"><ele>148.0</ele><time>2026-03-23T17:13:08.998Z</time></trkpt><trkpt lat="44.81455735551655" lon="4.713752629815529"><ele>148.0</ele><time>2026-03-23T17:13:10.998Z</time></trkpt><trkpt lat="44.81462535941577" lon="4.713856048406617"><ele>147.4</ele><time>2026-03-23T17:13:12.998Z</time></trkpt><trkpt lat="44.814690185824375" lon="4.7139625789181405"><ele>146.8</ele><time>2026-03-23T17:13:14.998Z</time></trkpt><trkpt lat="44.814768846480476" lon="4.714081968743763"><ele>146.2</ele><time>2026-03-23T17:13:16.998Z</time></trkpt><trkpt lat="44.81483641671945" lon="4.714205463050644"><ele>145.6</ele><time>2026-03-23T17:13:18.998Z</time></trkpt><trkpt lat="44.81490073230445" lon="4.714319197586057"><ele>145.0</ele><time>2026-03-23T17:13:20.998Z</time></trkpt><trkpt lat="44.814964880871564" lon="4.714425513219735"><ele>145.0</ele><time>2026-03-23T17:13:22.998Z</time></trkpt><trkpt lat="44.81502509108554" lon="4.714561858618597"><ele>145.0</ele><time>2026-03-23T17:13:24.998Z</time></trkpt><trkpt lat="44.81507397149037" lon="4.714683033059486"><ele>145.0</ele><time>2026-03-23T17:13:26.998Z</time></trkpt><trkpt lat="44.815109714676076" lon="4.714833113004268"><ele>145.0</ele><time>2026-03-23T17:13:28.998Z</time></trkpt><trkpt lat="44.81514713642459" lon="4.714974299765073"><ele>145.0</ele><time>2026-03-23T17:13:30.998Z</time></trkpt><trkpt lat="44.81515975202418" lon="4.715113757126445"><ele>141.4</ele><time>2026-03-23T17:13:32.998Z</time></trkpt><trkpt lat="44.81516550263951" lon="4.715266345066651"><ele>137.8</ele><time>2026-03-23T17:13:34.998Z</time></trkpt><trkpt lat="44.815179993773825" lon="4.715417003349596"><ele>134.2</ele><time>2026-03-23T17:13:36.998Z</time></trkpt><trkpt lat="44.81517761373176" lon="4.715562346750498"><ele>130.6</ele><time>2026-03-23T17:13:38.998Z</time></trkpt><trkpt lat="44.81519679970689" lon="4.715703774686328"><ele>127.0</ele><time>2026-03-23T17:13:40.998Z</time></trkpt><trkpt lat="44.81521305764214" lon="4.715841416872197"><ele>127.0</ele><time>2026-03-23T17:13:42.998Z</time></trkpt><trkpt lat="44.81523957723527" lon="4.715979992484857"><ele>126.99999999999999</ele><time>2026-03-23T17:13:44.998Z</time></trkpt><trkpt lat="44.81527440853835" lon="4.71612407342949"><ele>126.99999999999999</ele><time>2026-03-23T17:13:46.998Z</time></trkpt><trkpt lat="44.81532243106909" lon="4.716241088374455"><ele>127.0</ele><time>2026-03-23T17:13:48.998Z</time></trkpt><trkpt lat="44.81538020489596" lon="4.716348098523964"><ele>127.0</ele><time>2026-03-23T17:13:50.998Z</time></trkpt><trkpt lat="44.81545623858376" lon="4.716465219478179"><ele>128.79999999999998</ele><time>2026-03-23T17:13:52.999Z</time></trkpt><trkpt lat="44.81554000645802" lon="4.716565278762655"><ele>130.6</ele><time>2026-03-23T17:13:54.999Z</time></trkpt><trkpt lat="44.81563025208379" lon="4.716660973799476"><ele>132.39999999999998</ele><time>2026-03-23T17:13:56.999Z</time></trkpt><trkpt lat="44.8157126472358" lon="4.71676181545662"><ele>134.2</ele><time>2026-03-23T17:13:58.999Z</time></trkpt><trkpt lat="44.81580469964957" lon="4.716853090859182"><ele>136.0</ele><time>2026-03-23T17:14:00.999Z</time></trkpt><trkpt lat="44.8158921938133" lon="4.716951081237213"><ele>136.6</ele><time>2026-03-23T17:14:02.999Z</time></trkpt><trkpt lat="44.81597336390907" lon="4.7170586894518065"><ele>137.2</ele><time>2026-03-23T17:14:04.999Z</time></trkpt><trkpt lat="44.816040056000936" lon="4.717162995449663"><ele>137.8</ele><time>2026-03-23T17:14:06.999Z</time></trkpt><trkpt lat="44.81610477620504" lon="4.717288760159838"><ele>138.4</ele><time>2026-03-23T17:14:08.999Z</time></trkpt><trkpt lat="44.816139442267364" lon="4.717410345210184"><ele>139.0</ele><time>2026-03-23T17:14:10.999Z</time></trkpt><trkpt lat="44.81618404608221" lon="4.717550163781107"><ele>139.0</ele><time>2026-03-23T17:14:12.999Z</time></trkpt><trkpt lat="44.81622654977708" lon="4.717705225877954"><ele>139.0</ele><time>2026-03-23T17:14:14.999Z</time></trkpt><trkpt lat="44.81624441781066" lon="4.717855710421514"><ele>139.0</ele><time>2026-03-23T17:14:16.999Z</time></trkpt><trkpt lat="44.81625964135843" lon="4.718010885032144"><ele>139.0</ele><time>2026-03-23T17:14:18.999Z</time></trkpt><trkpt lat="44.81624390745141" lon="4.718135040772425"><ele>139.0</ele><time>2026-03-23T17:14:20.999Z</time></trkpt><trkpt lat="44.81623299372261" lon="4.7182863896825795"><ele>139.25</ele><time>2026-03-23T17:14:22.999Z</time></trkpt><trkpt lat="44.816218691782424" lon="4.718455195143063"><ele>139.5</ele><time>2026-03-23T17:14:24.999Z</time></trkpt><trkpt lat="44.816173739716156" lon="4.718614948707005"><ele>139.75</ele><time>2026-03-23T17:14:26.999Z</time></trkpt><trkpt lat="44.81615070590214" lon="4.718768594257036"><ele>140.0</ele><time>2026-03-23T17:14:28.999Z</time></trkpt><trkpt lat="44.81613543593083" lon="4.71892259512302"><ele>137.6</ele><time>2026-03-23T17:14:30.999Z</time></trkpt><trkpt lat="44.81610297658054" lon="4.71907282086578"><ele>135.2</ele><time>2026-03-23T17:14:32.998Z</time></trkpt><trkpt lat="44.81608096182942" lon="4.719158099112679"><ele>132.8</ele><time>2026-03-23T17:14:33.998Z</time></trkpt><trkpt lat="44.81604884528623" lon="4.719315433492705"><ele>130.4</ele><time>2026-03-23T17:14:35.998Z</time></trkpt><trkpt lat="44.81604299825465" lon="4.719407457155793"><ele>128.0</ele><time>2026-03-23T17:14:36.998Z</time></trkpt><trkpt lat="44.81601161999073" lon="4.719568732385849"><ele>126.4</ele><time>2026-03-23T17:14:38.998Z</time></trkpt><trkpt lat="44.81600262502411" lon="4.719657761227766"><ele>124.80000000000001</ele><time>2026-03-23T17:14:39.998Z</time></trkpt><trkpt lat="44.81597401322288" lon="4.719827821278207"><ele>123.2</ele><time>2026-03-23T17:14:41.998Z</time></trkpt><trkpt lat="44.815945167094675" lon="4.719997321435699"><ele>121.6</ele><time>2026-03-23T17:14:43.998Z</time></trkpt><trkpt lat="44.81593454197188" lon="4.7201612080608175"><ele>120.0</ele><time>2026-03-23T17:14:45.998Z</time></trkpt><trkpt lat="44.81592383563207" lon="4.720249577346052"><ele>124.4</ele><time>2026-03-23T17:14:46.998Z</time></trkpt><trkpt lat="44.81588699912712" lon="4.720406633020681"><ele>128.8</ele><time>2026-03-23T17:14:48.998Z</time></trkpt><trkpt lat="44.815871892282146" lon="4.7204929073207955"><ele>133.2</ele><time>2026-03-23T17:14:49.998Z</time></trkpt><trkpt lat="44.8158555385376" lon="4.720645419059527"><ele>137.6</ele><time>2026-03-23T17:14:51.998Z</time></trkpt><trkpt lat="44.815825305869275" lon="4.720794347961291"><ele>142.0</ele><time>2026-03-23T17:14:53.998Z</time></trkpt><trkpt lat="44.81579953707581" lon="4.7209547279248385"><ele>141.6</ele><time>2026-03-23T17:14:55.998Z</time></trkpt><trkpt lat="44.8157689614288" lon="4.721111926859919"><ele>141.2</ele><time>2026-03-23T17:14:57.998Z</time></trkpt><trkpt lat="44.81574079194291" lon="4.721265037837736"><ele>140.8</ele><time>2026-03-23T17:14:59.998Z</time></trkpt><trkpt lat="44.81571649905212" lon="4.721347600590391"><ele>140.4</ele><time>2026-03-23T17:15:00.998Z</time></trkpt><trkpt lat="44.81570433538664" lon="4.721436478965722"><ele>140.0</ele><time>2026-03-23T17:15:01.998Z</time></trkpt><trkpt lat="44.815683450235305" lon="4.721601204295519"><ele>140.0</ele><time>2026-03-23T17:15:03.998Z</time></trkpt><trkpt lat="44.81567112599109" lon="4.721769876736619"><ele>140.0</ele><time>2026-03-23T17:15:05.998Z</time></trkpt><trkpt lat="44.81566693274885" lon="4.721927477062864"><ele>140.0</ele><time>2026-03-23T17:15:07.998Z</time></trkpt><trkpt lat="44.81566461987032" lon="4.722022468908715"><ele>140.0</ele><time>2026-03-23T17:15:08.998Z</time></trkpt><trkpt lat="44.815682971083845" lon="4.7221901983943315"><ele>140.0</ele><time>2026-03-23T17:15:10.998Z</time></trkpt><trkpt lat="44.81569379116797" lon="4.722346409468033"><ele>140.0</ele><time>2026-03-23T17:15:12.998Z</time></trkpt><trkpt lat="44.815714014437965" lon="4.722497410748646"><ele>140.0</ele><time>2026-03-23T17:15:14.998Z</time></trkpt><trkpt lat="44.815732192140516" lon="4.722662766110636"><ele>140.0</ele><time>2026-03-23T17:15:16.998Z</time></trkpt><trkpt lat="44.81573921041946" lon="4.722750957722911"><ele>140.0</ele><time>2026-03-23T17:15:17.998Z</time></trkpt><trkpt lat="44.81577339798242" lon="4.722915047857231"><ele>140.0</ele><time>2026-03-23T17:15:19.998Z</time></trkpt><trkpt lat="44.81577751548522" lon="4.723005282166544"><ele>140.33333333333331</ele><time>2026-03-23T17:15:20.998Z</time></trkpt><trkpt lat="44.81580879787185" lon="4.7231627568159995"><ele>140.66666666666666</ele><time>2026-03-23T17:15:22.998Z</time></trkpt><trkpt lat="44.81583237014543" lon="4.723332670648178"><ele>141.0</ele><time>2026-03-23T17:15:24.998Z</time></trkpt><trkpt lat="44.81584141617045" lon="4.723424271862974"><ele>141.33333333333334</ele><time>2026-03-23T17:15:25.998Z</time></trkpt><trkpt lat="44.815846383642025" lon="4.7235184395141765"><ele>141.66666666666669</ele><time>2026-03-23T17:15:26.998Z</time></trkpt><trkpt lat="44.8158596456718" lon="4.723606115672421"><ele>142.0</ele><time>2026-03-23T17:15:27.998Z</time></trkpt><trkpt lat="44.81587735780234" lon="4.723699396294589"><ele>142.0</ele><time>2026-03-23T17:15:28.998Z</time></trkpt><trkpt lat="44.81589126768004" lon="4.723864340167028"><ele>142.0</ele><time>2026-03-23T17:15:30.998Z</time></trkpt><trkpt lat="44.815904138372396" lon="4.723955341293163"><ele>142.0</ele><time>2026-03-23T17:15:31.998Z</time></trkpt><trkpt lat="44.8159231441576" lon="4.724112645950559"><ele>142.0</ele><time>2026-03-23T17:15:33.998Z</time></trkpt><trkpt lat="44.81593411825981" lon="4.724203475470486"><ele>142.0</ele><time>2026-03-23T17:15:34.998Z</time></trkpt><trkpt lat="44.815952434559065" lon="4.724364313780047"><ele>144.4</ele><time>2026-03-23T17:15:36.998Z</time></trkpt><trkpt lat="44.815975639136326" lon="4.724541049170269"><ele>146.79999999999998</ele><time>2026-03-23T17:15:38.998Z</time></trkpt><trkpt lat="44.81600502881243" lon="4.7247151836101695"><ele>149.2</ele><time>2026-03-23T17:15:40.998Z</time></trkpt><trkpt lat="44.8160299025665" lon="4.724886169254932"><ele>151.6</ele><time>2026-03-23T17:15:42.998Z</time></trkpt><trkpt lat="44.81603226762052" lon="4.724977032123834"><ele>154.0</ele><time>2026-03-23T17:15:43.998Z</time></trkpt><trkpt lat="44.81604085347619" lon="4.725067018920611"><ele>144.5</ele><time>2026-03-23T17:15:44.998Z</time></trkpt><trkpt lat="44.816057084319745" lon="4.725230533615287"><ele>135.0</ele><time>2026-03-23T17:15:46.998Z</time></trkpt><trkpt lat="44.816064941457626" lon="4.725398949271104"><ele>125.5</ele><time>2026-03-23T17:15:48.998Z</time></trkpt><trkpt lat="44.81607314455783" lon="4.725558085550422"><ele>116.0</ele><time>2026-03-23T17:15:50.998Z</time></trkpt><trkpt lat="44.81608590366949" lon="4.725711992472648"><ele>116.0</ele><time>2026-03-23T17:15:52.998Z</time></trkpt><trkpt lat="44.81609576497279" lon="4.725879869826339"><ele>116.0</ele><time>2026-03-23T17:15:54.998Z</time></trkpt><trkpt lat="44.81611615096078" lon="4.725968721804123"><ele>116.0</ele><time>2026-03-23T17:15:55.998Z</time></trkpt><trkpt lat="44.81615280815468" lon="4.726125860846186"><ele>116.0</ele><time>2026-03-23T17:15:57.998Z</time></trkpt><trkpt lat="44.8161801641943" lon="4.726207701304939"><ele>116.0</ele><time>2026-03-23T17:15:58.999Z</time></trkpt><trkpt lat="44.81623016223902" lon="4.726365367283313"><ele>118.4</ele><time>2026-03-23T17:16:00.998Z</time></trkpt><trkpt lat="44.816296723525376" lon="4.726494927810167"><ele>120.8</ele><time>2026-03-23T17:16:02.999Z</time></trkpt><trkpt lat="44.81633710340878" lon="4.7265688869657305"><ele>123.20000000000002</ele><time>2026-03-23T17:16:03.999Z</time></trkpt><trkpt lat="44.81642030674576" lon="4.726697199023955"><ele>125.60000000000001</ele><time>2026-03-23T17:16:05.999Z</time></trkpt><trkpt lat="44.81650616131782" lon="4.726797072153769"><ele>128.0</ele><time>2026-03-23T17:16:07.999Z</time></trkpt><trkpt lat="44.81655941900018" lon="4.72684810455742"><ele>127.33333333333333</ele><time>2026-03-23T17:16:08.998Z</time></trkpt><trkpt lat="44.81665188018988" lon="4.726944111360531"><ele>126.66666666666666</ele><time>2026-03-23T17:16:10.999Z</time></trkpt><trkpt lat="44.81675381221509" lon="4.727044216417652"><ele>126.0</ele><time>2026-03-23T17:16:12.999Z</time></trkpt><trkpt lat="44.81681321927598" lon="4.7270881829044535"><ele>125.33333333333334</ele><time>2026-03-23T17:16:13.999Z</time></trkpt><trkpt lat="44.816867641937975" lon="4.727135019358857"><ele>124.66666666666667</ele><time>2026-03-23T17:16:14.999Z</time></trkpt><trkpt lat="44.81692104031124" lon="4.727184155188227"><ele>124.0</ele><time>2026-03-23T17:16:15.999Z</time></trkpt><trkpt lat="44.81697688852253" lon="4.727227465679925"><ele>124.0</ele><time>2026-03-23T17:16:16.999Z</time></trkpt><trkpt lat="44.81707763202418" lon="4.727328826214384"><ele>124.0</ele><time>2026-03-23T17:16:18.999Z</time></trkpt><trkpt lat="44.817159922459695" lon="4.727428869832525"><ele>124.0</ele><time>2026-03-23T17:16:20.999Z</time></trkpt><trkpt lat="44.81724560351221" lon="4.727554753745593"><ele>124.0</ele><time>2026-03-23T17:16:22.999Z</time></trkpt><trkpt lat="44.81730993223301" lon="4.7276796575647015"><ele>127.75</ele><time>2026-03-23T17:16:24.999Z</time></trkpt><trkpt lat="44.81736236320517" lon="4.727831935080757"><ele>131.5</ele><time>2026-03-23T17:16:26.999Z</time></trkpt><trkpt lat="44.817432368917906" lon="4.72798806357401"><ele>135.25</ele><time>2026-03-23T17:16:28.999Z</time></trkpt><trkpt lat="44.817481212884715" lon="4.7281442000009415"><ele>139.0</ele><time>2026-03-23T17:16:30.999Z</time></trkpt><trkpt lat="44.817531603891" lon="4.728292707694831"><ele>139.0</ele><time>2026-03-23T17:16:32.999Z</time></trkpt><trkpt lat="44.81757308189921" lon="4.728451092015366"><ele>139.0</ele><time>2026-03-23T17:16:34.999Z</time></trkpt><trkpt lat="44.817620911208444" lon="4.728610684023404"><ele>139.0</ele><time>2026-03-23T17:16:36.999Z</time></trkpt><trkpt lat="44.81764234714987" lon="4.7286974511567"><ele>139.0</ele><time>2026-03-23T17:16:37.999Z</time></trkpt><trkpt lat="44.817674659938135" lon="4.728856072240968"><ele>139.0</ele><time>2026-03-23T17:16:39.999Z</time></trkpt><trkpt lat="44.8176927977087" lon="4.728947291748649"><ele>135.0</ele><time>2026-03-23T17:16:40.999Z</time></trkpt><trkpt lat="44.81769217667113" lon="4.729111442077985"><ele>131.0</ele><time>2026-03-23T17:16:42.999Z</time></trkpt><trkpt lat="44.817702003015604" lon="4.729200617638794"><ele>127.0</ele><time>2026-03-23T17:16:43.999Z</time></trkpt><trkpt lat="44.817695294369564" lon="4.729370796689451"><ele>123.0</ele><time>2026-03-23T17:16:45.999Z</time></trkpt><trkpt lat="44.81770661507781" lon="4.729459008379046"><ele>119.0</ele><time>2026-03-23T17:16:46.999Z</time></trkpt><trkpt lat="44.81772125413256" lon="4.729630748759576"><ele>118.99999999999999</ele><time>2026-03-23T17:16:48.999Z</time></trkpt><trkpt lat="44.81772102855639" lon="4.729721049374176"><ele>119.0</ele><time>2026-03-23T17:16:49.999Z</time></trkpt><trkpt lat="44.81773450185556" lon="4.729808255911704"><ele>119.0</ele><time>2026-03-23T17:16:50.999Z</time></trkpt><trkpt lat="44.8177551083685" lon="4.729973919456435"><ele>119.0</ele><time>2026-03-23T17:16:52.999Z</time></trkpt><trkpt lat="44.81776172605709" lon="4.730130275628967"><ele>118.99999999999999</ele><time>2026-03-23T17:16:54.999Z</time></trkpt><trkpt lat="44.817769570670656" lon="4.7302234321062855"><ele>119.0</ele><time>2026-03-23T17:16:55.999Z</time></trkpt><trkpt lat="44.817775050850095" lon="4.7303951554163595"><ele>120.0</ele><time>2026-03-23T17:16:57.999Z</time></trkpt><trkpt lat="44.81778991763039" lon="4.730565289794853"><ele>121.0</ele><time>2026-03-23T17:16:59.999Z</time></trkpt><trkpt lat="44.81779434745482" lon="4.730728328239648"><ele>122.0</ele><time>2026-03-23T17:17:01.999Z</time></trkpt><trkpt lat="44.8177968327488" lon="4.730817244185045"><ele>123.0</ele><time>2026-03-23T17:17:02.999Z</time></trkpt><trkpt lat="44.81780764234949" lon="4.73098471093161"><ele>124.0</ele><time>2026-03-23T17:17:04.999Z</time></trkpt><trkpt lat="44.817822825661224" lon="4.73114650860807"><ele>124.5</ele><time>2026-03-23T17:17:06.999Z</time></trkpt><trkpt lat="44.81782264621901" lon="4.731307618279134"><ele>125.0</ele><time>2026-03-23T17:17:08.999Z</time></trkpt><trkpt lat="44.81783966804505" lon="4.731472432589618"><ele>125.5</ele><time>2026-03-23T17:17:10.999Z</time></trkpt><trkpt lat="44.81784643119348" lon="4.731624832910509"><ele>126.0</ele><time>2026-03-23T17:17:12.999Z</time></trkpt><trkpt lat="44.81785153500387" lon="4.731785437541475"><ele>125.75</ele><time>2026-03-23T17:17:14.999Z</time></trkpt><trkpt lat="44.81786575927883" lon="4.731949910672437"><ele>125.5</ele><time>2026-03-23T17:17:16.999Z</time></trkpt><trkpt lat="44.817876807475" lon="4.732108015766465"><ele>125.25</ele><time>2026-03-23T17:17:18.999Z</time></trkpt><trkpt lat="44.81788198068738" lon="4.732266094170629"><ele>125.0</ele><time>2026-03-23T17:17:20.999Z</time></trkpt><trkpt lat="44.81789413832285" lon="4.732432994012486"><ele>125.0</ele><time>2026-03-23T17:17:22.999Z</time></trkpt><trkpt lat="44.81791103976064" lon="4.732598831397136"><ele>125.0</ele><time>2026-03-23T17:17:24.999Z</time></trkpt><trkpt lat="44.817913315045374" lon="4.732688343539088"><ele>125.0</ele><time>2026-03-23T17:17:25.999Z</time></trkpt><trkpt lat="44.817924676744056" lon="4.732853469638482"><ele>125.0</ele><time>2026-03-23T17:17:27.999Z</time></trkpt><trkpt lat="44.817938398886525" lon="4.733012933551239"><ele>125.0</ele><time>2026-03-23T17:17:29.999Z</time></trkpt><trkpt lat="44.817950082111956" lon="4.733183769012185"><ele>125.2</ele><time>2026-03-23T17:17:31.999Z</time></trkpt><trkpt lat="44.81795524284511" lon="4.733359306726274"><ele>125.4</ele><time>2026-03-23T17:17:33.999Z</time></trkpt><trkpt lat="44.817965263635166" lon="4.733448540563419"><ele>125.6</ele><time>2026-03-23T17:17:34.999Z</time></trkpt><trkpt lat="44.8179837475378" lon="4.733620118801276"><ele>125.8</ele><time>2026-03-23T17:17:36.999Z</time></trkpt><trkpt lat="44.8179928136733" lon="4.73378196552544"><ele>126.0</ele><time>2026-03-23T17:17:38.999Z</time></trkpt><trkpt lat="44.818001527025366" lon="4.7339499489748675"><ele>125.0</ele><time>2026-03-23T17:17:40.999Z</time></trkpt><trkpt lat="44.81801027898864" lon="4.7341139242570165"><ele>124.0</ele><time>2026-03-23T17:17:42.999Z</time></trkpt><trkpt lat="44.81801741672355" lon="4.734277956251359"><ele>123.0</ele><time>2026-03-23T17:17:44.999Z</time></trkpt><trkpt lat="44.81801970065512" lon="4.734445292221758"><ele>122.0</ele><time>2026-03-23T17:17:46.999Z</time></trkpt><trkpt lat="44.81801739211215" lon="4.734602862804223"><ele>122.0</ele><time>2026-03-23T17:17:48.999Z</time></trkpt><trkpt lat="44.81800731943465" lon="4.7347586197053575"><ele>122.0</ele><time>2026-03-23T17:17:50.999Z</time></trkpt><trkpt lat="44.817994835035044" lon="4.734925592981769"><ele>122.0</ele><time>2026-03-23T17:17:52.999Z</time></trkpt><trkpt lat="44.81796835214128" lon="4.735089977622022"><ele>122.0</ele><time>2026-03-23T17:17:54.999Z</time></trkpt><trkpt lat="44.81792625182343" lon="4.735237131324002"><ele>121.66666666666666</ele><time>2026-03-23T17:17:56.999Z</time></trkpt><trkpt lat="44.81789824399078" lon="4.735383700806443"><ele>121.33333333333333</ele><time>2026-03-23T17:17:58.999Z</time></trkpt><trkpt lat="44.817856730256985" lon="4.735482163101605"><ele>121.0</ele><time>2026-03-23T17:18:00.999Z</time></trkpt><trkpt lat="44.81784246828305" lon="4.735585338956872"><ele>120.66666666666666</ele><time>2026-03-23T17:18:02.999Z</time></trkpt><trkpt lat="44.817825229775906" lon="4.735678456961667"><ele>120.33333333333333</ele><time>2026-03-23T17:18:04.999Z</time></trkpt><trkpt lat="44.8177876678882" lon="4.735789081572125"><ele>120.0</ele><time>2026-03-23T17:18:06.999Z</time></trkpt><trkpt lat="44.817755311413116" lon="4.735925472342745"><ele>120.0</ele><time>2026-03-23T17:18:08.999Z</time></trkpt><trkpt lat="44.81772324038255" lon="4.736066246594598"><ele>120.0</ele><time>2026-03-23T17:18:10.998Z</time></trkpt><trkpt lat="44.81769884403248" lon="4.736215496209231"><ele>120.0</ele><time>2026-03-23T17:18:12.999Z</time></trkpt><trkpt lat="44.817665547309716" lon="4.736363216305199"><ele>120.0</ele><time>2026-03-23T17:18:14.999Z</time></trkpt><trkpt lat="44.81763618463486" lon="4.736532292249583"><ele>120.0</ele><time>2026-03-23T17:18:16.999Z</time></trkpt><trkpt lat="44.81761037814266" lon="4.736688207865099"><ele>122.4</ele><time>2026-03-23T17:18:18.998Z</time></trkpt><trkpt lat="44.81759975888611" lon="4.73685302379658"><ele>124.8</ele><time>2026-03-23T17:18:20.998Z</time></trkpt><trkpt lat="44.817594054645674" lon="4.736941692315201"><ele>127.19999999999999</ele><time>2026-03-23T17:18:21.998Z</time></trkpt><trkpt lat="44.817599046207334" lon="4.7370306495900785"><ele>129.6</ele><time>2026-03-23T17:18:22.998Z</time></trkpt><trkpt lat="44.81760984491663" lon="4.737202136471234"><ele>132.0</ele><time>2026-03-23T17:18:24.998Z</time></trkpt><trkpt lat="44.81761797604336" lon="4.737371629471588"><ele>132.0</ele><time>2026-03-23T17:18:26.998Z</time></trkpt><trkpt lat="44.81762860263409" lon="4.737459218909981"><ele>132.0</ele><time>2026-03-23T17:18:27.998Z</time></trkpt><trkpt lat="44.81764949270314" lon="4.737543567998595"><ele>132.0</ele><time>2026-03-23T17:18:28.998Z</time></trkpt><trkpt lat="44.81767919874927" lon="4.737705135151061"><ele>132.0</ele><time>2026-03-23T17:18:30.998Z</time></trkpt><trkpt lat="44.817698093513506" lon="4.737792173374557"><ele>132.0</ele><time>2026-03-23T17:18:31.998Z</time></trkpt><trkpt lat="44.81771396247535" lon="4.7378800710272"><ele>132.0</ele><time>2026-03-23T17:18:32.998Z</time></trkpt><trkpt lat="44.8177395372085" lon="4.738046693170245"><ele>128.75</ele><time>2026-03-23T17:18:34.998Z</time></trkpt><trkpt lat="44.81776776973174" lon="4.738209270991569"><ele>125.5</ele><time>2026-03-23T17:18:36.998Z</time></trkpt><trkpt lat="44.81778637802911" lon="4.738376292813567"><ele>122.25</ele><time>2026-03-23T17:18:38.998Z</time></trkpt><trkpt lat="44.81780154891101" lon="4.738542297243191"><ele>119.0</ele><time>2026-03-23T17:18:40.998Z</time></trkpt><trkpt lat="44.817789349229855" lon="4.738719791060686"><ele>119.0</ele><time>2026-03-23T17:18:42.998Z</time></trkpt><trkpt lat="44.81776668840974" lon="4.738878071960288"><ele>119.0</ele><time>2026-03-23T17:18:44.998Z</time></trkpt><trkpt lat="44.817724598079494" lon="4.739023242554848"><ele>119.0</ele><time>2026-03-23T17:18:46.998Z</time></trkpt><trkpt lat="44.817664333514564" lon="4.7391404601623135"><ele>119.0</ele><time>2026-03-23T17:18:48.998Z</time></trkpt><trkpt lat="44.81760400287802" lon="4.739241991955794"><ele>119.0</ele><time>2026-03-23T17:18:50.998Z</time></trkpt><trkpt lat="44.81754257063284" lon="4.739340279809578"><ele>119.6</ele><time>2026-03-23T17:18:52.998Z</time></trkpt><trkpt lat="44.81748085739283" lon="4.739435384002735"><ele>120.2</ele><time>2026-03-23T17:18:54.998Z</time></trkpt><trkpt lat="44.81740287155692" lon="4.739529332001917"><ele>120.79999999999998</ele><time>2026-03-23T17:18:56.998Z</time></trkpt><trkpt lat="44.81733412360418" lon="4.7396196675096975"><ele>121.39999999999999</ele><time>2026-03-23T17:18:58.998Z</time></trkpt><trkpt lat="44.81727473273216" lon="4.739712832920565"><ele>122.0</ele><time>2026-03-23T17:19:00.998Z</time></trkpt><trkpt lat="44.81719866802267" lon="4.739803193471439"><ele>121.99999999999999</ele><time>2026-03-23T17:19:02.998Z</time></trkpt><trkpt lat="44.81712682880113" lon="4.739883123729657"><ele>122.0</ele><time>2026-03-23T17:19:04.998Z</time></trkpt><trkpt lat="44.817049991767725" lon="4.73995826915276"><ele>122.0</ele><time>2026-03-23T17:19:06.998Z</time></trkpt><trkpt lat="44.81698627353479" lon="4.740039032624808"><ele>122.0</ele><time>2026-03-23T17:19:08.998Z</time></trkpt><trkpt lat="44.81693549532466" lon="4.740129007643743"><ele>121.99999999999999</ele><time>2026-03-23T17:19:10.998Z</time></trkpt><trkpt lat="44.81689206784399" lon="4.740221633615595"><ele>122.0</ele><time>2026-03-23T17:19:12.998Z</time></trkpt><trkpt lat="44.816855206111576" lon="4.740320798935604"><ele>124.8</ele><time>2026-03-23T17:19:14.998Z</time></trkpt><trkpt lat="44.81680903998554" lon="4.740426427476315"><ele>127.6</ele><time>2026-03-23T17:19:16.998Z</time></trkpt><trkpt lat="44.81676717972599" lon="4.740531300535836"><ele>130.39999999999998</ele><time>2026-03-23T17:19:18.998Z</time></trkpt><trkpt lat="44.8167253838263" lon="4.740651775098118"><ele>133.2</ele><time>2026-03-23T17:19:20.998Z</time></trkpt><trkpt lat="44.8166762940835" lon="4.740755697079274"><ele>136.0</ele><time>2026-03-23T17:19:22.998Z</time></trkpt><trkpt lat="44.81664023579202" lon="4.7408764338609215"><ele>136.0</ele><time>2026-03-23T17:19:24.998Z</time></trkpt><trkpt lat="44.81659759282487" lon="4.740997691982164"><ele>136.0</ele><time>2026-03-23T17:19:26.998Z</time></trkpt><trkpt lat="44.81656526648219" lon="4.74111699205085"><ele>136.0</ele><time>2026-03-23T17:19:28.998Z</time></trkpt><trkpt lat="44.81653092750045" lon="4.741231755661013"><ele>136.0</ele><time>2026-03-23T17:19:30.998Z</time></trkpt><trkpt lat="44.81650708744421" lon="4.741362148131398"><ele>136.0</ele><time>2026-03-23T17:19:32.998Z</time></trkpt><trkpt lat="44.81647682171034" lon="4.741479565441793"><ele>134.6</ele><time>2026-03-23T17:19:34.998Z</time></trkpt><trkpt lat="44.816464122751896" lon="4.741630104715064"><ele>133.2</ele><time>2026-03-23T17:19:36.998Z</time></trkpt><trkpt lat="44.81644819532413" lon="4.74175772777199"><ele>131.8</ele><time>2026-03-23T17:19:38.998Z</time></trkpt><trkpt lat="44.81643118717682" lon="4.741904313007732"><ele>130.4</ele><time>2026-03-23T17:19:40.998Z</time></trkpt><trkpt lat="44.81642478446175" lon="4.742037423416428"><ele>129.0</ele><time>2026-03-23T17:19:42.998Z</time></trkpt><trkpt lat="44.816422773972526" lon="4.742183041341542"><ele>129.0</ele><time>2026-03-23T17:19:44.998Z</time></trkpt><trkpt lat="44.81641190584919" lon="4.742318128516207"><ele>129.0</ele><time>2026-03-23T17:19:46.998Z</time></trkpt><trkpt lat="44.81641824562581" lon="4.742450368142921"><ele>129.0</ele><time>2026-03-23T17:19:48.998Z</time></trkpt><trkpt lat="44.81642121272263" lon="4.742578025854216"><ele>129.0</ele><time>2026-03-23T17:19:50.998Z</time></trkpt><trkpt lat="44.816433540914275" lon="4.742700840059009"><ele>129.0</ele><time>2026-03-23T17:19:52.998Z</time></trkpt><trkpt lat="44.816439042325506" lon="4.74282251947954"><ele>128.83333333333334</ele><time>2026-03-23T17:19:54.998Z</time></trkpt><trkpt lat="44.81644156110207" lon="4.742947945582325"><ele>128.66666666666666</ele><time>2026-03-23T17:19:56.998Z</time></trkpt><trkpt lat="44.81644183602481" lon="4.743064905036378"><ele>128.5</ele><time>2026-03-23T17:19:58.998Z</time></trkpt><trkpt lat="44.81645782319163" lon="4.7431901452042755"><ele>128.33333333333331</ele><time>2026-03-23T17:20:00.998Z</time></trkpt><trkpt lat="44.81644652404718" lon="4.7433148891234325"><ele>128.16666666666666</ele><time>2026-03-23T17:20:02.998Z</time></trkpt><trkpt lat="44.81646094148414" lon="4.743445417727655"><ele>128.0</ele><time>2026-03-23T17:20:04.998Z</time></trkpt><trkpt lat="44.81645285475567" lon="4.74356491010613"><ele>127.60000000000001</ele><time>2026-03-23T17:20:06.998Z</time></trkpt><trkpt lat="44.81645473634018" lon="4.743692580434662"><ele>127.20000000000002</ele><time>2026-03-23T17:20:08.998Z</time></trkpt><trkpt lat="44.81645217451491" lon="4.743828635498829"><ele>126.8</ele><time>2026-03-23T17:20:10.999Z</time></trkpt><trkpt lat="44.81643304586041" lon="4.743953700369816"><ele>126.4</ele><time>2026-03-23T17:20:12.999Z</time></trkpt><trkpt lat="44.816418907753686" lon="4.744081330796095"><ele>126.0</ele><time>2026-03-23T17:20:14.998Z</time></trkpt><trkpt lat="44.81638806553216" lon="4.744217797468227"><ele>126.0</ele><time>2026-03-23T17:20:16.999Z</time></trkpt><trkpt lat="44.816356653768615" lon="4.744346678042495"><ele>126.0</ele><time>2026-03-23T17:20:18.998Z</time></trkpt><trkpt lat="44.81633464324348" lon="4.744488580453769"><ele>126.0</ele><time>2026-03-23T17:20:20.998Z</time></trkpt><trkpt lat="44.81630723373345" lon="4.7446307454147565"><ele>126.0</ele><time>2026-03-23T17:20:22.999Z</time></trkpt><trkpt lat="44.816281972383116" lon="4.74477241613118"><ele>126.0</ele><time>2026-03-23T17:20:24.998Z</time></trkpt><trkpt lat="44.816250681565634" lon="4.744910584960621"><ele>124.8</ele><time>2026-03-23T17:20:26.998Z</time></trkpt><trkpt lat="44.81622986868613" lon="4.745050843208845"><ele>123.6</ele><time>2026-03-23T17:20:28.998Z</time></trkpt><trkpt lat="44.81620244591344" lon="4.745192288175096"><ele>122.4</ele><time>2026-03-23T17:20:30.998Z</time></trkpt><trkpt lat="44.816185542498914" lon="4.745332534299042"><ele>121.2</ele><time>2026-03-23T17:20:32.998Z</time></trkpt><trkpt lat="44.81615319730304" lon="4.74546182981215"><ele>120.0</ele><time>2026-03-23T17:20:34.998Z</time></trkpt><trkpt lat="44.81613343512722" lon="4.7456027564736205"><ele>119.2</ele><time>2026-03-23T17:20:36.998Z</time></trkpt><trkpt lat="44.8161049778525" lon="4.745757340027045"><ele>118.4</ele><time>2026-03-23T17:20:38.998Z</time></trkpt><trkpt lat="44.816087863688914" lon="4.745902276911551"><ele>117.6</ele><time>2026-03-23T17:20:40.998Z</time></trkpt><trkpt lat="44.81605913703156" lon="4.746046613346089"><ele>116.8</ele><time>2026-03-23T17:20:42.998Z</time></trkpt><trkpt lat="44.81604912379088" lon="4.7462024563221545"><ele>116.0</ele><time>2026-03-23T17:20:44.998Z</time></trkpt><trkpt lat="44.81604416160997" lon="4.746354767719206"><ele>116.0</ele><time>2026-03-23T17:20:46.998Z</time></trkpt><trkpt lat="44.81606338399732" lon="4.746501611090096"><ele>116.0</ele><time>2026-03-23T17:20:48.998Z</time></trkpt><trkpt lat="44.816081908106376" lon="4.746651360600343"><ele>116.0</ele><time>2026-03-23T17:20:50.998Z</time></trkpt><trkpt lat="44.816089392906676" lon="4.746786855199409"><ele>116.0</ele><time>2026-03-23T17:20:52.998Z</time></trkpt><trkpt lat="44.81612773289463" lon="4.74692917212759"><ele>116.0</ele><time>2026-03-23T17:20:54.998Z</time></trkpt><trkpt lat="44.81615776854092" lon="4.747071648898094"><ele>116.0</ele><time>2026-03-23T17:20:56.998Z</time></trkpt><trkpt lat="44.816191230328734" lon="4.747218848622965"><ele>116.0</ele><time>2026-03-23T17:20:58.998Z</time></trkpt><trkpt lat="44.81623043897598" lon="4.747371140904399"><ele>116.0</ele><time>2026-03-23T17:21:00.998Z</time></trkpt><trkpt lat="44.81627539888633" lon="4.747531825086733"><ele>116.0</ele><time>2026-03-23T17:21:02.998Z</time></trkpt><trkpt lat="44.81631514277673" lon="4.7476928180191305"><ele>117.8</ele><time>2026-03-23T17:21:04.998Z</time></trkpt><trkpt lat="44.81636247651173" lon="4.747836375956775"><ele>119.6</ele><time>2026-03-23T17:21:06.998Z</time></trkpt><trkpt lat="44.81640238929759" lon="4.747977242087427"><ele>121.4</ele><time>2026-03-23T17:21:08.998Z</time></trkpt><trkpt lat="44.81643220857132" lon="4.7481226402732615"><ele>123.2</ele><time>2026-03-23T17:21:10.998Z</time></trkpt><trkpt lat="44.81646665438502" lon="4.748277274031351"><ele>125.0</ele><time>2026-03-23T17:21:12.998Z</time></trkpt><trkpt lat="44.816487357043655" lon="4.748441298595475"><ele>126.0</ele><time>2026-03-23T17:21:14.998Z</time></trkpt><trkpt lat="44.816510628271445" lon="4.748610944763642"><ele>127.0</ele><time>2026-03-23T17:21:16.998Z</time></trkpt><trkpt lat="44.81652005585214" lon="4.748702611019691"><ele>128.0</ele><time>2026-03-23T17:21:17.998Z</time></trkpt><trkpt lat="44.81653598132064" lon="4.748864464337361"><ele>129.0</ele><time>2026-03-23T17:21:19.998Z</time></trkpt><trkpt lat="44.816548614975424" lon="4.749020812694511"><ele>130.0</ele><time>2026-03-23T17:21:21.998Z</time></trkpt><trkpt lat="44.81656697835435" lon="4.749190786600084"><ele>130.0</ele><time>2026-03-23T17:21:23.998Z</time></trkpt><trkpt lat="44.81658000545383" lon="4.749353703090739"><ele>130.0</ele><time>2026-03-23T17:21:25.998Z</time></trkpt><trkpt lat="44.816581832101086" lon="4.749448541512297"><ele>130.0</ele><time>2026-03-23T17:21:26.998Z</time></trkpt><trkpt lat="44.81659655717173" lon="4.749621194259444"><ele>130.0</ele><time>2026-03-23T17:21:28.998Z</time></trkpt><trkpt lat="44.81661328606649" lon="4.749709196043062"><ele>130.0</ele><time>2026-03-23T17:21:29.998Z</time></trkpt><trkpt lat="44.816639525703216" lon="4.749860121535142"><ele>131.0</ele><time>2026-03-23T17:21:31.998Z</time></trkpt><trkpt lat="44.81667562362737" lon="4.750016230785931"><ele>132.0</ele><time>2026-03-23T17:21:33.998Z</time></trkpt><trkpt lat="44.81671344793801" lon="4.750177924134553"><ele>133.0</ele><time>2026-03-23T17:21:35.998Z</time></trkpt><trkpt lat="44.816764527694055" lon="4.750327734384001"><ele>134.0</ele><time>2026-03-23T17:21:37.998Z</time></trkpt><trkpt lat="44.81681836447959" lon="4.750462348975379"><ele>130.6</ele><time>2026-03-23T17:21:39.998Z</time></trkpt><trkpt lat="44.81685864424873" lon="4.7505309504479944"><ele>127.2</ele><time>2026-03-23T17:21:40.998Z</time></trkpt><trkpt lat="44.81692007000997" lon="4.750664608569393"><ele>123.79999999999998</ele><time>2026-03-23T17:21:42.998Z</time></trkpt><trkpt lat="44.81700327948866" lon="4.750777905330816"><ele>120.39999999999999</ele><time>2026-03-23T17:21:44.998Z</time></trkpt><trkpt lat="44.817086835503986" lon="4.7509044916618475"><ele>117.0</ele><time>2026-03-23T17:21:46.998Z</time></trkpt><trkpt lat="44.81716152454568" lon="4.751028455595455"><ele>120.5</ele><time>2026-03-23T17:21:48.998Z</time></trkpt><trkpt lat="44.81724733984358" lon="4.751158623990588"><ele>124.0</ele><time>2026-03-23T17:21:50.998Z</time></trkpt><trkpt lat="44.8173290231642" lon="4.751286135225183"><ele>127.5</ele><time>2026-03-23T17:21:52.998Z</time></trkpt><trkpt lat="44.81740105756886" lon="4.751407485375266"><ele>131.0</ele><time>2026-03-23T17:21:54.998Z</time></trkpt><trkpt lat="44.81747045262286" lon="4.7515373976451505"><ele>131.0</ele><time>2026-03-23T17:21:56.998Z</time></trkpt><trkpt lat="44.81753355251107" lon="4.751678645577735"><ele>131.0</ele><time>2026-03-23T17:21:58.998Z</time></trkpt><trkpt lat="44.81759298001641" lon="4.7518219703696"><ele>131.0</ele><time>2026-03-23T17:22:00.998Z</time></trkpt><trkpt lat="44.81765368336436" lon="4.751956145061661"><ele>131.0</ele><time>2026-03-23T17:22:02.998Z</time></trkpt><trkpt lat="44.817708628212344" lon="4.752087201319212"><ele>127.8</ele><time>2026-03-23T17:22:04.998Z</time></trkpt><trkpt lat="44.817771929590066" lon="4.752219876684437"><ele>124.6</ele><time>2026-03-23T17:22:06.998Z</time></trkpt><trkpt lat="44.817830935337994" lon="4.752352530428663"><ele>121.4</ele><time>2026-03-23T17:22:08.998Z</time></trkpt><trkpt lat="44.81787954400787" lon="4.752485560597719"><ele>118.2</ele><time>2026-03-23T17:22:10.998Z</time></trkpt><trkpt lat="44.817947522279546" lon="4.752613090935576"><ele>115.0</ele><time>2026-03-23T17:22:12.998Z</time></trkpt><trkpt lat="44.817984401081205" lon="4.752685183865848"><ele>117.0</ele><time>2026-03-23T17:22:13.998Z</time></trkpt><trkpt lat="44.81804273714921" lon="4.752820865430917"><ele>119.0</ele><time>2026-03-23T17:22:15.998Z</time></trkpt><trkpt lat="44.8180989057798" lon="4.7529484910143385"><ele>121.0</ele><time>2026-03-23T17:22:17.998Z</time></trkpt><trkpt lat="44.818157341095166" lon="4.753079839285374"><ele>123.0</ele><time>2026-03-23T17:22:19.999Z</time></trkpt><trkpt lat="44.81822055794664" lon="4.753219921131266"><ele>125.0</ele><time>2026-03-23T17:22:21.998Z</time></trkpt><trkpt lat="44.818286069608966" lon="4.753365307665879"><ele>125.0</ele><time>2026-03-23T17:22:23.999Z</time></trkpt><trkpt lat="44.81835752769716" lon="4.753506086101849"><ele>125.0</ele><time>2026-03-23T17:22:25.999Z</time></trkpt><trkpt lat="44.818419540812364" lon="4.753641178108837"><ele>125.0</ele><time>2026-03-23T17:22:27.998Z</time></trkpt><trkpt lat="44.8184520562887" lon="4.753719257903217"><ele>125.0</ele><time>2026-03-23T17:22:28.999Z</time></trkpt><trkpt lat="44.81850563317364" lon="4.753863141423091"><ele>125.0</ele><time>2026-03-23T17:22:30.999Z</time></trkpt><trkpt lat="44.81857866374763" lon="4.7540060212957025"><ele>123.4</ele><time>2026-03-23T17:22:32.999Z</time></trkpt><trkpt lat="44.81863491453902" lon="4.754142062385584"><ele>121.8</ele><time>2026-03-23T17:22:34.999Z</time></trkpt><trkpt lat="44.818668552185095" lon="4.754218830075368"><ele>120.19999999999999</ele><time>2026-03-23T17:22:35.999Z</time></trkpt><trkpt lat="44.818725385307786" lon="4.75436131948451"><ele>118.6</ele><time>2026-03-23T17:22:37.999Z</time></trkpt><trkpt lat="44.8187791591263" lon="4.754503053421763"><ele>117.0</ele><time>2026-03-23T17:22:39.999Z</time></trkpt><trkpt lat="44.81881337164828" lon="4.754644652556244"><ele>117.0</ele><time>2026-03-23T17:22:41.999Z</time></trkpt><trkpt lat="44.81884195281511" lon="4.754796764695093"><ele>116.99999999999999</ele><time>2026-03-23T17:22:43.999Z</time></trkpt><trkpt lat="44.81887153314563" lon="4.7549353778927"><ele>116.99999999999999</ele><time>2026-03-23T17:22:45.999Z</time></trkpt><trkpt lat="44.818906547522396" lon="4.755089524593834"><ele>117.0</ele><time>2026-03-23T17:22:47.999Z</time></trkpt><trkpt lat="44.81892896690537" lon="4.755226886386878"><ele>117.0</ele><time>2026-03-23T17:22:49.999Z</time></trkpt><trkpt lat="44.81896827324127" lon="4.755370933831546"><ele>119.0</ele><time>2026-03-23T17:22:51.999Z</time></trkpt><trkpt lat="44.81899413164852" lon="4.75551016835784"><ele>120.99999999999999</ele><time>2026-03-23T17:22:53.999Z</time></trkpt><trkpt lat="44.819023210393645" lon="4.75564298674145"><ele>122.99999999999999</ele><time>2026-03-23T17:22:55.999Z</time></trkpt><trkpt lat="44.819046382618055" lon="4.755786836765936"><ele>125.0</ele><time>2026-03-23T17:22:57.999Z</time></trkpt><trkpt lat="44.81907209391489" lon="4.755918907896054"><ele>127.0</ele><time>2026-03-23T17:22:59.999Z</time></trkpt><trkpt lat="44.819103015070056" lon="4.756049672180864"><ele>128.4</ele><time>2026-03-23T17:23:01.999Z</time></trkpt><trkpt lat="44.8191269155323" lon="4.756183604736041"><ele>129.79999999999998</ele><time>2026-03-23T17:23:03.998Z</time></trkpt><trkpt lat="44.81916510764753" lon="4.7563217790261945"><ele>131.2</ele><time>2026-03-23T17:23:05.998Z</time></trkpt><trkpt lat="44.81919193932334" lon="4.756464065269589"><ele>132.6</ele><time>2026-03-23T17:23:07.998Z</time></trkpt><trkpt lat="44.81920957144405" lon="4.756612237239999"><ele>134.0</ele><time>2026-03-23T17:23:09.998Z</time></trkpt><trkpt lat="44.81923514897278" lon="4.756752288638526"><ele>134.4</ele><time>2026-03-23T17:23:11.998Z</time></trkpt><trkpt lat="44.81923588532992" lon="4.7568985184638635"><ele>134.8</ele><time>2026-03-23T17:23:13.998Z</time></trkpt><trkpt lat="44.81923242806244" lon="4.757045498522482"><ele>135.2</ele><time>2026-03-23T17:23:15.998Z</time></trkpt><trkpt lat="44.819230238842536" lon="4.757196338318285"><ele>135.6</ele><time>2026-03-23T17:23:17.998Z</time></trkpt><trkpt lat="44.819222102906174" lon="4.7573434778028805"><ele>136.0</ele><time>2026-03-23T17:23:19.998Z</time></trkpt><trkpt lat="44.819221908536434" lon="4.757491953664309"><ele>136.0</ele><time>2026-03-23T17:23:21.998Z</time></trkpt><trkpt lat="44.81922198316333" lon="4.757655677162376"><ele>136.0</ele><time>2026-03-23T17:23:23.998Z</time></trkpt><trkpt lat="44.81922832544382" lon="4.757803618188372"><ele>136.0</ele><time>2026-03-23T17:23:25.998Z</time></trkpt><trkpt lat="44.819212711078336" lon="4.75795877294019"><ele>136.0</ele><time>2026-03-23T17:23:27.998Z</time></trkpt><trkpt lat="44.819230153518184" lon="4.758105424563706"><ele>136.0</ele><time>2026-03-23T17:23:29.998Z</time></trkpt><trkpt lat="44.81925335793644" lon="4.758256000684345"><ele>136.4</ele><time>2026-03-23T17:23:31.998Z</time></trkpt><trkpt lat="44.81928090472518" lon="4.758408718658787"><ele>136.8</ele><time>2026-03-23T17:23:33.998Z</time></trkpt><trkpt lat="44.81931552635811" lon="4.758549037348489"><ele>137.20000000000002</ele><time>2026-03-23T17:23:35.998Z</time></trkpt><trkpt lat="44.81935779245631" lon="4.758688900358389"><ele>137.6</ele><time>2026-03-23T17:23:37.998Z</time></trkpt><trkpt lat="44.819394880124335" lon="4.758814071556331"><ele>138.0</ele><time>2026-03-23T17:23:39.998Z</time></trkpt><trkpt lat="44.81943496525543" lon="4.758947031881635"><ele>133.33333333333334</ele><time>2026-03-23T17:23:41.998Z</time></trkpt><trkpt lat="44.81947658703964" lon="4.759083074189113"><ele>128.66666666666666</ele><time>2026-03-23T17:23:43.998Z</time></trkpt><trkpt lat="44.81950054879692" lon="4.759206706352013"><ele>124.0</ele><time>2026-03-23T17:23:45.998Z</time></trkpt><trkpt lat="44.81952084602276" lon="4.759297802280656"><ele>119.33333333333333</ele><time>2026-03-23T17:24:42.999Z</time></trkpt><trkpt lat="44.81952996994516" lon="4.7594022021210804"><ele>114.66666666666666</ele><time>2026-03-23T17:24:45.999Z</time></trkpt><trkpt lat="44.81955010835131" lon="4.759524712179778"><ele>110.0</ele><time>2026-03-23T17:24:47.999Z</time></trkpt><trkpt lat="44.81956750756988" lon="4.75965336929857"><ele>110.0</ele><time>2026-03-23T17:24:49.999Z</time></trkpt><trkpt lat="44.81957588655133" lon="4.759792053720523"><ele>110.0</ele><time>2026-03-23T17:24:51.999Z</time></trkpt><trkpt lat="44.81957867396905" lon="4.7599393109979715"><ele>110.0</ele><time>2026-03-23T17:24:53.999Z</time></trkpt><trkpt lat="44.819582594957275" lon="4.760085149524771"><ele>110.0</ele><time>2026-03-23T17:24:55.999Z</time></trkpt><trkpt lat="44.81957751728141" lon="4.760238593754295"><ele>110.0</ele><time>2026-03-23T17:24:57.999Z</time></trkpt><trkpt lat="44.81957833935996" lon="4.760394721875046"><ele>109.99999999999999</ele><time>2026-03-23T17:24:59.999Z</time></trkpt><trkpt lat="44.8195804436864" lon="4.760538110376708"><ele>110.0</ele><time>2026-03-23T17:25:01.999Z</time></trkpt><trkpt lat="44.819582238385884" lon="4.760678707725101"><ele>110.0</ele><time>2026-03-23T17:25:03.999Z</time></trkpt><trkpt lat="44.81958450631909" lon="4.760783575153792"><ele>110.0</ele><time>2026-03-23T17:25:05.999Z</time></trkpt><trkpt lat="44.819579264176106" lon="4.760891356589397"><ele>109.99999999999999</ele><time>2026-03-23T17:25:08.999Z</time></trkpt><trkpt lat="44.81959708570604" lon="4.761023026448312"><ele>110.0</ele><time>2026-03-23T17:25:10.999Z</time></trkpt><trkpt lat="44.81961185286908" lon="4.7611694673586635"><ele>111.2</ele><time>2026-03-23T17:25:12.999Z</time></trkpt><trkpt lat="44.81963450653891" lon="4.761314834582797"><ele>112.4</ele><time>2026-03-23T17:25:14.999Z</time></trkpt><trkpt lat="44.819669296275165" lon="4.761451233881265"><ele>113.6</ele><time>2026-03-23T17:25:16.998Z</time></trkpt><trkpt lat="44.8197044681319" lon="4.761601056673739"><ele>114.8</ele><time>2026-03-23T17:25:18.998Z</time></trkpt><trkpt lat="44.819739864930185" lon="4.76175302721164"><ele>116.0</ele><time>2026-03-23T17:25:20.998Z</time></trkpt><trkpt lat="44.81976807565414" lon="4.761896570191902"><ele>118.0</ele><time>2026-03-23T17:25:22.998Z</time></trkpt><trkpt lat="44.819797102247854" lon="4.762047791947481"><ele>120.0</ele><time>2026-03-23T17:25:24.998Z</time></trkpt><trkpt lat="44.81983345611607" lon="4.762201069791692"><ele>122.0</ele><time>2026-03-23T17:25:26.998Z</time></trkpt><trkpt lat="44.81987204802037" lon="4.762354378609409"><ele>124.0</ele><time>2026-03-23T17:25:28.998Z</time></trkpt><trkpt lat="44.8199099815393" lon="4.762508056826198"><ele>124.0</ele><time>2026-03-23T17:25:30.998Z</time></trkpt><trkpt lat="44.8199407821252" lon="4.762667300604607"><ele>124.0</ele><time>2026-03-23T17:25:32.998Z</time></trkpt><trkpt lat="44.81997723000529" lon="4.762830639630799"><ele>124.0</ele><time>2026-03-23T17:25:34.998Z</time></trkpt><trkpt lat="44.82000612294874" lon="4.762995520382591"><ele>124.0</ele><time>2026-03-23T17:25:36.998Z</time></trkpt><trkpt lat="44.820029570778935" lon="4.763163392663047"><ele>125.4</ele><time>2026-03-23T17:25:38.998Z</time></trkpt><trkpt lat="44.82005445058368" lon="4.7633219244283085"><ele>126.80000000000001</ele><time>2026-03-23T17:25:40.998Z</time></trkpt><trkpt lat="44.8200658271199" lon="4.763414429882483"><ele>128.2</ele><time>2026-03-23T17:25:41.998Z</time></trkpt><trkpt lat="44.820085429573815" lon="4.763578346840626"><ele>129.6</ele><time>2026-03-23T17:25:43.998Z</time></trkpt><trkpt lat="44.820105879128185" lon="4.763745051656739"><ele>131.0</ele><time>2026-03-23T17:25:45.998Z</time></trkpt><trkpt lat="44.82011656845552" lon="4.763913160549878"><ele>132.25</ele><time>2026-03-23T17:25:47.998Z</time></trkpt><trkpt lat="44.82011957702599" lon="4.764079253983906"><ele>133.5</ele><time>2026-03-23T17:25:49.998Z</time></trkpt><trkpt lat="44.82013277501673" lon="4.764243378529106"><ele>134.75</ele><time>2026-03-23T17:25:51.998Z</time></trkpt><trkpt lat="44.820126910929154" lon="4.764409885590853"><ele>136.0</ele><time>2026-03-23T17:25:53.998Z</time></trkpt><trkpt lat="44.820122114250516" lon="4.764580516773485"><ele>136.0</ele><time>2026-03-23T17:25:55.998Z</time></trkpt><trkpt lat="44.82011828390105" lon="4.764744824221111"><ele>136.0</ele><time>2026-03-23T17:25:57.998Z</time></trkpt><trkpt lat="44.820113088293304" lon="4.764909456080781"><ele>136.0</ele><time>2026-03-23T17:25:59.998Z</time></trkpt><trkpt lat="44.82012113771123" lon="4.765073636797919"><ele>136.0</ele><time>2026-03-23T17:26:01.998Z</time></trkpt><trkpt lat="44.820128834853726" lon="4.76524125185661"><ele>128.5</ele><time>2026-03-23T17:26:03.998Z</time></trkpt><trkpt lat="44.82015739568539" lon="4.765410886015582"><ele>121.0</ele><time>2026-03-23T17:26:05.998Z</time></trkpt><trkpt lat="44.82017250586161" lon="4.765571321446217"><ele>113.5</ele><time>2026-03-23T17:26:07.998Z</time></trkpt><trkpt lat="44.82020031261744" lon="4.765728951726998"><ele>106.0</ele><time>2026-03-23T17:26:09.998Z</time></trkpt><trkpt lat="44.82022719603606" lon="4.765882760545242"><ele>107.0</ele><time>2026-03-23T17:26:11.998Z</time></trkpt><trkpt lat="44.82024760327611" lon="4.766037338510139"><ele>108.0</ele><time>2026-03-23T17:26:13.998Z</time></trkpt><trkpt lat="44.82027856550034" lon="4.766173866861029"><ele>109.0</ele><time>2026-03-23T17:26:15.998Z</time></trkpt><trkpt lat="44.820319077723575" lon="4.766318165900467"><ele>110.0</ele><time>2026-03-23T17:26:17.998Z</time></trkpt><trkpt lat="44.820361989549" lon="4.766451890904324"><ele>111.0</ele><time>2026-03-23T17:26:19.998Z</time></trkpt><trkpt lat="44.82041025434034" lon="4.7665858871108355"><ele>111.0</ele><time>2026-03-23T17:26:21.998Z</time></trkpt><trkpt lat="44.82045556064698" lon="4.766712011704931"><ele>111.0</ele><time>2026-03-23T17:26:23.998Z</time></trkpt><trkpt lat="44.820494031868186" lon="4.766841620536471"><ele>111.0</ele><time>2026-03-23T17:26:25.998Z</time></trkpt><trkpt lat="44.82052187509844" lon="4.766980972672608"><ele>111.0</ele><time>2026-03-23T17:26:27.998Z</time></trkpt><trkpt lat="44.82054547573926" lon="4.76712747453567"><ele>111.0</ele><time>2026-03-23T17:26:29.998Z</time></trkpt><trkpt lat="44.82056672388414" lon="4.767266336966498"><ele>112.0</ele><time>2026-03-23T17:26:31.999Z</time></trkpt><trkpt lat="44.8205798829917" lon="4.767422369738913"><ele>113.0</ele><time>2026-03-23T17:26:33.999Z</time></trkpt><trkpt lat="44.82058035130642" lon="4.767582295463829"><ele>114.0</ele><time>2026-03-23T17:26:35.998Z</time></trkpt><trkpt lat="44.82058492773809" lon="4.767738019904206"><ele>115.0</ele><time>2026-03-23T17:26:37.998Z</time></trkpt><trkpt lat="44.82058674683172" lon="4.767828981021987"><ele>116.0</ele><time>2026-03-23T17:26:38.999Z</time></trkpt><trkpt lat="44.82057621167029" lon="4.767998557976172"><ele>117.19999999999999</ele><time>2026-03-23T17:26:40.999Z</time></trkpt><trkpt lat="44.82059310466094" lon="4.768159672341398"><ele>118.39999999999999</ele><time>2026-03-23T17:26:42.999Z</time></trkpt><trkpt lat="44.820621140938194" lon="4.768329756249769"><ele>119.6</ele><time>2026-03-23T17:26:44.999Z</time></trkpt><trkpt lat="44.820641881066294" lon="4.768415986199358"><ele>120.8</ele><time>2026-03-23T17:26:45.999Z</time></trkpt><trkpt lat="44.820688625177965" lon="4.768570232202236"><ele>122.0</ele><time>2026-03-23T17:26:47.999Z</time></trkpt><trkpt lat="44.82074129805772" lon="4.768738939298606"><ele>123.33333333333333</ele><time>2026-03-23T17:26:49.999Z</time></trkpt><trkpt lat="44.820779477583315" lon="4.768892604238047"><ele>124.66666666666666</ele><time>2026-03-23T17:26:51.999Z</time></trkpt><trkpt lat="44.820827543554465" lon="4.7690470653754815"><ele>126.0</ele><time>2026-03-23T17:26:53.999Z</time></trkpt><trkpt lat="44.820849326961756" lon="4.769137974791611"><ele>127.33333333333334</ele><time>2026-03-23T17:26:54.999Z</time></trkpt><trkpt lat="44.820878942677524" lon="4.769216938906071"><ele>128.66666666666669</ele><time>2026-03-23T17:26:55.999Z</time></trkpt><trkpt lat="44.820891549792684" lon="4.769305812965686"><ele>130.0</ele><time>2026-03-23T17:26:56.999Z</time></trkpt><trkpt lat="44.820917170653544" lon="4.769392277139696"><ele>130.33333333333334</ele><time>2026-03-23T17:26:57.999Z</time></trkpt><trkpt lat="44.820974479069946" lon="4.769549466537096"><ele>130.66666666666669</ele><time>2026-03-23T17:26:59.999Z</time></trkpt><trkpt lat="44.82098951314966" lon="4.769638555386049"><ele>131.0</ele><time>2026-03-23T17:27:00.999Z</time></trkpt><trkpt lat="44.821021981812336" lon="4.769809364286123"><ele>131.33333333333334</ele><time>2026-03-23T17:27:02.999Z</time></trkpt><trkpt lat="44.821039471258736" lon="4.769899545353524"><ele>131.66666666666666</ele><time>2026-03-23T17:27:03.999Z</time></trkpt><trkpt lat="44.82105443380179" lon="4.769990589641109"><ele>132.0</ele><time>2026-03-23T17:27:04.999Z</time></trkpt><trkpt lat="44.82108306749273" lon="4.770071827023236"><ele>128.2</ele><time>2026-03-23T17:27:05.999Z</time></trkpt><trkpt lat="44.82111717228993" lon="4.7702502427535824"><ele>124.39999999999999</ele><time>2026-03-23T17:27:07.999Z</time></trkpt><trkpt lat="44.82113931209496" lon="4.770336133719229"><ele>120.60000000000001</ele><time>2026-03-23T17:27:08.999Z</time></trkpt><trkpt lat="44.82115730896923" lon="4.770422160234592"><ele>116.80000000000001</ele><time>2026-03-23T17:27:09.999Z</time></trkpt><trkpt lat="44.821178241175105" lon="4.770511420799213"><ele>113.0</ele><time>2026-03-23T17:27:10.999Z</time></trkpt><trkpt lat="44.821222325840225" lon="4.770674264177674"><ele>113.0</ele><time>2026-03-23T17:27:12.998Z</time></trkpt><trkpt lat="44.821264281740554" lon="4.77082159131044"><ele>113.00000000000001</ele><time>2026-03-23T17:27:14.998Z</time></trkpt><trkpt lat="44.82129528527368" lon="4.770969888860419"><ele>113.00000000000001</ele><time>2026-03-23T17:27:16.998Z</time></trkpt><trkpt lat="44.82132530235216" lon="4.771101091676102"><ele>113.0</ele><time>2026-03-23T17:27:18.998Z</time></trkpt><trkpt lat="44.82136263500168" lon="4.771266369239671"><ele>113.0</ele><time>2026-03-23T17:27:20.998Z</time></trkpt><trkpt lat="44.82138232549349" lon="4.7713525085995405"><ele>114.0</ele><time>2026-03-23T17:27:21.998Z</time></trkpt><trkpt lat="44.821404571220434" lon="4.771437265729406"><ele>115.00000000000001</ele><time>2026-03-23T17:27:22.998Z</time></trkpt><trkpt lat="44.82142789318745" lon="4.7716033006830765"><ele>116.00000000000001</ele><time>2026-03-23T17:27:24.998Z</time></trkpt><trkpt lat="44.821457199175526" lon="4.771769686414712"><ele>117.0</ele><time>2026-03-23T17:27:26.998Z</time></trkpt><trkpt lat="44.82147117544115" lon="4.771932888119434"><ele>118.0</ele><time>2026-03-23T17:27:28.998Z</time></trkpt><trkpt lat="44.82148491612994" lon="4.7720227374234625"><ele>119.0</ele><time>2026-03-23T17:27:29.998Z</time></trkpt><trkpt lat="44.821504126837276" lon="4.772193459785716"><ele>120.00000000000001</ele><time>2026-03-23T17:27:31.998Z</time></trkpt><trkpt lat="44.82151517398305" lon="4.772364127811339"><ele>121.00000000000001</ele><time>2026-03-23T17:27:33.998Z</time></trkpt><trkpt lat="44.82152622631237" lon="4.772534025087795"><ele>122.0</ele><time>2026-03-23T17:27:35.998Z</time></trkpt><trkpt lat="44.82152688157402" lon="4.772623988091752"><ele>123.0</ele><time>2026-03-23T17:27:36.998Z</time></trkpt><trkpt lat="44.821530252902534" lon="4.772789540394051"><ele>123.4</ele><time>2026-03-23T17:27:38.998Z</time></trkpt><trkpt lat="44.82153516777189" lon="4.772967576909535"><ele>123.80000000000001</ele><time>2026-03-23T17:27:40.998Z</time></trkpt><trkpt lat="44.821554771527964" lon="4.773142783803283"><ele>124.2</ele><time>2026-03-23T17:27:42.998Z</time></trkpt><trkpt lat="44.82155320342198" lon="4.77330031851061"><ele>124.6</ele><time>2026-03-23T17:27:44.998Z</time></trkpt><trkpt lat="44.82156100381547" lon="4.773393215163039"><ele>125.0</ele><time>2026-03-23T17:27:45.998Z</time></trkpt><trkpt lat="44.82155345216048" lon="4.77355841604618"><ele>125.0</ele><time>2026-03-23T17:27:47.998Z</time></trkpt><trkpt lat="44.82155298360818" lon="4.77372377808693"><ele>125.0</ele><time>2026-03-23T17:27:49.998Z</time></trkpt><trkpt lat="44.82155484590785" lon="4.773883160271303"><ele>125.0</ele><time>2026-03-23T17:27:51.998Z</time></trkpt><trkpt lat="44.821550147947285" lon="4.773972082396193"><ele>125.0</ele><time>2026-03-23T17:27:52.998Z</time></trkpt><trkpt lat="44.821545849532" lon="4.7741308240803075"><ele>125.0</ele><time>2026-03-23T17:27:54.998Z</time></trkpt><trkpt lat="44.821553340531985" lon="4.7742980048883"><ele>125.8</ele><time>2026-03-23T17:27:56.998Z</time></trkpt><trkpt lat="44.821567642187574" lon="4.774452086987199"><ele>126.6</ele><time>2026-03-23T17:27:58.998Z</time></trkpt><trkpt lat="44.82157497414037" lon="4.774598838310213"><ele>127.4</ele><time>2026-03-23T17:28:00.998Z</time></trkpt><trkpt lat="44.82159094708724" lon="4.774750319862236"><ele>128.2</ele><time>2026-03-23T17:28:02.998Z</time></trkpt><trkpt lat="44.82159717180522" lon="4.774893356486565"><ele>129.0</ele><time>2026-03-23T17:28:04.998Z</time></trkpt><trkpt lat="44.82162267979234" lon="4.775020278101097"><ele>129.0</ele><time>2026-03-23T17:28:06.998Z</time></trkpt><trkpt lat="44.82164062847073" lon="4.775159827823632"><ele>129.0</ele><time>2026-03-23T17:28:08.998Z</time></trkpt><trkpt lat="44.8216699206281" lon="4.775312386078987"><ele>129.0</ele><time>2026-03-23T17:28:10.998Z</time></trkpt><trkpt lat="44.82170030744571" lon="4.77546009381322"><ele>129.0</ele><time>2026-03-23T17:28:12.998Z</time></trkpt><trkpt lat="44.821725362575954" lon="4.775615930490206"><ele>129.0</ele><time>2026-03-23T17:28:14.998Z</time></trkpt><trkpt lat="44.821743444965264" lon="4.775762754786917"><ele>129.8</ele><time>2026-03-23T17:28:16.998Z</time></trkpt><trkpt lat="44.821757114533646" lon="4.775920380188913"><ele>130.60000000000002</ele><time>2026-03-23T17:28:18.998Z</time></trkpt><trkpt lat="44.821776596481016" lon="4.7760818234408084"><ele>131.4</ele><time>2026-03-23T17:28:20.998Z</time></trkpt><trkpt lat="44.8217855927482" lon="4.7762291863893465"><ele>132.20000000000002</ele><time>2026-03-23T17:28:22.998Z</time></trkpt><trkpt lat="44.82178637009473" lon="4.776381544014771"><ele>133.0</ele><time>2026-03-23T17:28:24.998Z</time></trkpt><trkpt lat="44.82179913033569" lon="4.776537083591318"><ele>128.20000000000002</ele><time>2026-03-23T17:28:26.998Z</time></trkpt><trkpt lat="44.82182037068433" lon="4.776679458039632"><ele>123.4</ele><time>2026-03-23T17:28:28.998Z</time></trkpt><trkpt lat="44.82184690327919" lon="4.776824085236701"><ele>118.60000000000001</ele><time>2026-03-23T17:28:30.998Z</time></trkpt><trkpt lat="44.821869929107564" lon="4.776968618411311"><ele>113.80000000000001</ele><time>2026-03-23T17:28:32.998Z</time></trkpt><trkpt lat="44.82191429941675" lon="4.777123991142489"><ele>109.0</ele><time>2026-03-23T17:28:34.999Z</time></trkpt><trkpt lat="44.821953254189424" lon="4.777263112129778"><ele>109.0</ele><time>2026-03-23T17:28:36.998Z</time></trkpt><trkpt lat="44.82198439123025" lon="4.777408062602113"><ele>109.0</ele><time>2026-03-23T17:28:38.999Z</time></trkpt><trkpt lat="44.82202721803513" lon="4.777552620636905"><ele>109.0</ele><time>2026-03-23T17:28:40.999Z</time></trkpt><trkpt lat="44.822066035970195" lon="4.777694957718521"><ele>109.0</ele><time>2026-03-23T17:28:42.999Z</time></trkpt><trkpt lat="44.822090060461804" lon="4.777835478169379"><ele>109.0</ele><time>2026-03-23T17:28:44.998Z</time></trkpt><trkpt lat="44.82212204125891" lon="4.777986365059815"><ele>109.25</ele><time>2026-03-23T17:28:46.998Z</time></trkpt><trkpt lat="44.82212427643177" lon="4.778144694411827"><ele>109.5</ele><time>2026-03-23T17:28:48.999Z</time></trkpt><trkpt lat="44.82212680407578" lon="4.778313662527191"><ele>109.75</ele><time>2026-03-23T17:28:50.999Z</time></trkpt><trkpt lat="44.82213238708153" lon="4.778477693413374"><ele>110.0</ele><time>2026-03-23T17:28:52.999Z</time></trkpt><trkpt lat="44.82215462434588" lon="4.778639355877285"><ele>110.0</ele><time>2026-03-23T17:28:54.999Z</time></trkpt><trkpt lat="44.82217759295182" lon="4.7788020766371915"><ele>110.0</ele><time>2026-03-23T17:28:56.999Z</time></trkpt><trkpt lat="44.822172054931585" lon="4.778892052397798"><ele>110.0</ele><time>2026-03-23T17:28:57.999Z</time></trkpt><trkpt lat="44.82219312320329" lon="4.779053074360569"><ele>110.0</ele><time>2026-03-23T17:28:59.999Z</time></trkpt><trkpt lat="44.82219655315949" lon="4.779217953023894"><ele>110.0</ele><time>2026-03-23T17:29:01.999Z</time></trkpt><trkpt lat="44.82219950106352" lon="4.77938323340859"><ele>110.0</ele><time>2026-03-23T17:29:03.999Z</time></trkpt><trkpt lat="44.82220963066163" lon="4.779549494863349"><ele>110.0</ele><time>2026-03-23T17:29:05.999Z</time></trkpt><trkpt lat="44.8222157382617" lon="4.779726864357683"><ele>110.0</ele><time>2026-03-23T17:29:07.999Z</time></trkpt><trkpt lat="44.82221325427228" lon="4.7798886924512765"><ele>110.0</ele><time>2026-03-23T17:29:09.999Z</time></trkpt><trkpt lat="44.82220773883385" lon="4.780052802667271"><ele>109.25</ele><time>2026-03-23T17:29:11.999Z</time></trkpt><trkpt lat="44.822188340299334" lon="4.780217374699103"><ele>108.5</ele><time>2026-03-23T17:29:13.999Z</time></trkpt><trkpt lat="44.82217346211919" lon="4.780374063408849"><ele>107.75</ele><time>2026-03-23T17:29:15.999Z</time></trkpt><trkpt lat="44.822123733247466" lon="4.780524973060092"><ele>107.0</ele><time>2026-03-23T17:29:17.999Z</time></trkpt><trkpt lat="44.822088424069" lon="4.780683808214852"><ele>106.99999999999999</ele><time>2026-03-23T17:29:19.999Z</time></trkpt><trkpt lat="44.822067256574584" lon="4.780775299390394"><ele>107.0</ele><time>2026-03-23T17:29:20.999Z</time></trkpt><trkpt lat="44.82203172937176" lon="4.780948579325835"><ele>107.0</ele><time>2026-03-23T17:29:22.999Z</time></trkpt><trkpt lat="44.82201126516389" lon="4.781038144131146"><ele>107.0</ele><time>2026-03-23T17:29:23.999Z</time></trkpt><trkpt lat="44.82199564705436" lon="4.781124585801825"><ele>106.99999999999999</ele><time>2026-03-23T17:29:24.999Z</time></trkpt><trkpt lat="44.82197280790568" lon="4.781209163148361"><ele>107.0</ele><time>2026-03-23T17:29:25.999Z</time></trkpt><trkpt lat="44.821939696994626" lon="4.781389691296828"><ele>106.28571428571429</ele><time>2026-03-23T17:29:27.999Z</time></trkpt><trkpt lat="44.821921148147254" lon="4.781478594500671"><ele>105.57142857142857</ele><time>2026-03-23T17:29:28.999Z</time></trkpt><trkpt lat="44.82189250349256" lon="4.7815713125122326"><ele>104.85714285714286</ele><time>2026-03-23T17:29:29.999Z</time></trkpt><trkpt lat="44.82187025546523" lon="4.781656107380721"><ele>104.14285714285714</ele><time>2026-03-23T17:29:30.999Z</time></trkpt><trkpt lat="44.82184579902473" lon="4.781741039889246"><ele>103.42857142857143</ele><time>2026-03-23T17:29:31.999Z</time></trkpt><trkpt lat="44.82181636162058" lon="4.781824913740864"><ele>102.71428571428572</ele><time>2026-03-23T17:29:32.999Z</time></trkpt><trkpt lat="44.82177969674858" lon="4.781907256194444"><ele>102.0</ele><time>2026-03-23T17:29:33.999Z</time></trkpt><trkpt lat="44.82174735963982" lon="4.781987064023187"><ele>103.71428571428572</ele><time>2026-03-23T17:29:34.999Z</time></trkpt><trkpt lat="44.82170750812255" lon="4.782061303544919"><ele>105.42857142857143</ele><time>2026-03-23T17:29:35.999Z</time></trkpt><trkpt lat="44.82167263261298" lon="4.782140010296149"><ele>107.14285714285714</ele><time>2026-03-23T17:29:36.999Z</time></trkpt><trkpt lat="44.821631173855785" lon="4.782213777789692"><ele>108.85714285714286</ele><time>2026-03-23T17:29:37.999Z</time></trkpt><trkpt lat="44.821586517690605" lon="4.782278818034188"><ele>110.57142857142856</ele><time>2026-03-23T17:29:38.999Z</time></trkpt><trkpt lat="44.82153888276807" lon="4.7823416017455855"><ele>112.28571428571428</ele><time>2026-03-23T17:29:39.999Z</time></trkpt><trkpt lat="44.82149381551325" lon="4.782409249167201"><ele>114.0</ele><time>2026-03-23T17:29:40.999Z</time></trkpt><trkpt lat="44.82141688601123" lon="4.782534597349194"><ele>114.0</ele><time>2026-03-23T17:29:42.999Z</time></trkpt><trkpt lat="44.82136850722815" lon="4.782594223708934"><ele>114.0</ele><time>2026-03-23T17:29:43.999Z</time></trkpt><trkpt lat="44.82131397484653" lon="4.782646474900972"><ele>114.0</ele><time>2026-03-23T17:29:44.999Z</time></trkpt><trkpt lat="44.821218573057116" lon="4.782758237338157"><ele>114.0</ele><time>2026-03-23T17:29:46.999Z</time></trkpt><trkpt lat="44.82111072996286" lon="4.782855044883245"><ele>114.0</ele><time>2026-03-23T17:29:48.999Z</time></trkpt><trkpt lat="44.82101708054271" lon="4.782940989767311"><ele>114.16666666666667</ele><time>2026-03-23T17:29:50.998Z</time></trkpt><trkpt lat="44.82095340125401" lon="4.782961604845279"><ele>114.33333333333334</ele><time>2026-03-23T17:29:51.998Z</time></trkpt><trkpt lat="44.82089556953993" lon="4.78299934598026"><ele>114.5</ele><time>2026-03-23T17:29:52.998Z</time></trkpt><trkpt lat="44.82083327314325" lon="4.783041863721413"><ele>114.66666666666667</ele><time>2026-03-23T17:29:53.998Z</time></trkpt><trkpt lat="44.820719212750596" lon="4.7831156877100796"><ele>114.83333333333334</ele><time>2026-03-23T17:29:55.998Z</time></trkpt><trkpt lat="44.82061633709085" lon="4.783189343111069"><ele>115.0</ele><time>2026-03-23T17:29:57.998Z</time></trkpt><trkpt lat="44.820512532993426" lon="4.783271507330518"><ele>115.00000000000001</ele><time>2026-03-23T17:29:59.998Z</time></trkpt><trkpt lat="44.82042057580916" lon="4.78336468389997"><ele>115.0</ele><time>2026-03-23T17:30:01.998Z</time></trkpt><trkpt lat="44.82032259621888" lon="4.783478410927745"><ele>115.0</ele><time>2026-03-23T17:30:03.998Z</time></trkpt><trkpt lat="44.82026792378207" lon="4.783528312199874"><ele>115.0</ele><time>2026-03-23T17:30:04.998Z</time></trkpt><trkpt lat="44.820213473899805" lon="4.783584238233417"><ele>115.00000000000001</ele><time>2026-03-23T17:30:05.998Z</time></trkpt><trkpt lat="44.8201635427529" lon="4.783638804322513"><ele>115.0</ele><time>2026-03-23T17:30:06.998Z</time></trkpt><trkpt lat="44.82011157673675" lon="4.783703865250017"><ele>114.8</ele><time>2026-03-23T17:30:07.998Z</time></trkpt><trkpt lat="44.820014958532326" lon="4.783834418183056"><ele>114.6</ele><time>2026-03-23T17:30:09.998Z</time></trkpt><trkpt lat="44.81992405948286" lon="4.783933239510604"><ele>114.4</ele><time>2026-03-23T17:30:11.998Z</time></trkpt><trkpt lat="44.819837800080336" lon="4.78405421106143"><ele>114.2</ele><time>2026-03-23T17:30:13.998Z</time></trkpt><trkpt lat="44.81978341827748" lon="4.784107771803923"><ele>114.0</ele><time>2026-03-23T17:30:14.998Z</time></trkpt><trkpt lat="44.81973816150999" lon="4.784177938709859"><ele>114.0</ele><time>2026-03-23T17:30:15.998Z</time></trkpt><trkpt lat="44.8196844102558" lon="4.784230105085359"><ele>114.0</ele><time>2026-03-23T17:30:16.998Z</time></trkpt><trkpt lat="44.819630507562664" lon="4.78428549744198"><ele>114.0</ele><time>2026-03-23T17:30:17.998Z</time></trkpt><trkpt lat="44.819576125358445" lon="4.7843511144491915"><ele>114.0</ele><time>2026-03-23T17:30:18.998Z</time></trkpt><trkpt lat="44.81948669875134" lon="4.784470077906353"><ele>114.0</ele><time>2026-03-23T17:30:20.998Z</time></trkpt><trkpt lat="44.819404145303785" lon="4.784586812806371"><ele>114.0</ele><time>2026-03-23T17:30:22.998Z</time></trkpt><trkpt lat="44.81930763505201" lon="4.784688768538235"><ele>113.80000000000001</ele><time>2026-03-23T17:30:24.998Z</time></trkpt><trkpt lat="44.81923562086647" lon="4.784820795013992"><ele>113.60000000000001</ele><time>2026-03-23T17:30:26.998Z</time></trkpt><trkpt lat="44.81914779619844" lon="4.784931451532314"><ele>113.4</ele><time>2026-03-23T17:30:28.998Z</time></trkpt><trkpt lat="44.81904957326006" lon="4.785034155913986"><ele>113.2</ele><time>2026-03-23T17:30:30.998Z</time></trkpt><trkpt lat="44.81899902924914" lon="4.785090026418712"><ele>113.0</ele><time>2026-03-23T17:30:31.998Z</time></trkpt><trkpt lat="44.818901257414915" lon="4.785206343454682"><ele>112.14285714285715</ele><time>2026-03-23T17:30:33.998Z</time></trkpt><trkpt lat="44.81884281372483" lon="4.785268487975466"><ele>111.28571428571428</ele><time>2026-03-23T17:30:34.998Z</time></trkpt><trkpt lat="44.818790071988985" lon="4.785330065701997"><ele>110.42857142857143</ele><time>2026-03-23T17:30:35.998Z</time></trkpt><trkpt lat="44.8187403492461" lon="4.785402188342892"><ele>109.57142857142858</ele><time>2026-03-23T17:30:36.998Z</time></trkpt><trkpt lat="44.8186890074304" lon="4.78546280271484"><ele>108.71428571428572</ele><time>2026-03-23T17:30:37.998Z</time></trkpt><trkpt lat="44.81863804522542" lon="4.785515060016515"><ele>107.85714285714286</ele><time>2026-03-23T17:30:38.998Z</time></trkpt><trkpt lat="44.81858610479044" lon="4.785573023788677"><ele>107.0</ele><time>2026-03-23T17:30:39.998Z</time></trkpt><trkpt lat="44.81850247379033" lon="4.785684701564938"><ele>106.99999999999999</ele><time>2026-03-23T17:30:41.998Z</time></trkpt><trkpt lat="44.81845649356287" lon="4.785750994856478"><ele>107.0</ele><time>2026-03-23T17:30:42.998Z</time></trkpt><trkpt lat="44.81841369752139" lon="4.785817865391321"><ele>107.0</ele><time>2026-03-23T17:30:43.998Z</time></trkpt><trkpt lat="44.81832129592463" lon="4.785920816499352"><ele>107.0</ele><time>2026-03-23T17:30:45.998Z</time></trkpt><trkpt lat="44.81822771353548" lon="4.786033942274193"><ele>106.99999999999999</ele><time>2026-03-23T17:30:47.999Z</time></trkpt><trkpt lat="44.81817943409221" lon="4.78609435455371"><ele>107.0</ele><time>2026-03-23T17:30:48.998Z</time></trkpt><trkpt lat="44.818126191098095" lon="4.7861542161292085"><ele>107.0</ele><time>2026-03-23T17:30:49.998Z</time></trkpt><trkpt lat="44.81803557368296" lon="4.78625418998225"><ele>107.0</ele><time>2026-03-23T17:30:51.998Z</time></trkpt><trkpt lat="44.81793267082715" lon="4.786353809426242"><ele>107.0</ele><time>2026-03-23T17:30:53.999Z</time></trkpt><trkpt lat="44.8178406757581" lon="4.786453387854677"><ele>107.0</ele><time>2026-03-23T17:30:55.999Z</time></trkpt><trkpt lat="44.81775142900196" lon="4.786564521064375"><ele>107.0</ele><time>2026-03-23T17:30:57.999Z</time></trkpt><trkpt lat="44.81765318964401" lon="4.786618934271157"><ele>106.99999999999999</ele><time>2026-03-23T17:30:59.999Z</time></trkpt><trkpt lat="44.81754928339572" lon="4.786691468806306"><ele>106.99999999999999</ele><time>2026-03-23T17:31:01.999Z</time></trkpt><trkpt lat="44.817460417698165" lon="4.786759476460024"><ele>107.0</ele><time>2026-03-23T17:31:03.999Z</time></trkpt><trkpt lat="44.81738257347167" lon="4.78682572309528"><ele>107.0</ele><time>2026-03-23T17:31:05.999Z</time></trkpt><trkpt lat="44.81730984289323" lon="4.786913623399345"><ele>107.39999999999999</ele><time>2026-03-23T17:31:07.999Z</time></trkpt><trkpt lat="44.81725054166223" lon="4.7869612125966645"><ele>107.79999999999998</ele><time>2026-03-23T17:31:10.999Z</time></trkpt><trkpt lat="44.81715900279755" lon="4.787006605170814"><ele>108.2</ele><time>2026-03-23T17:31:14.999Z</time></trkpt><trkpt lat="44.81708707440533" lon="4.787076651790826"><ele>108.6</ele><time>2026-03-23T17:31:16.999Z</time></trkpt><trkpt lat="44.8169946508351" lon="4.787167619151781"><ele>109.0</ele><time>2026-03-23T17:31:18.999Z</time></trkpt><trkpt lat="44.81691768261336" lon="4.787258190892894"><ele>109.0</ele><time>2026-03-23T17:31:20.999Z</time></trkpt><trkpt lat="44.81683373416125" lon="4.787353931531913"><ele>109.0</ele><time>2026-03-23T17:31:22.999Z</time></trkpt><trkpt lat="44.816755910231336" lon="4.787460138460398"><ele>109.0</ele><time>2026-03-23T17:31:24.999Z</time></trkpt><trkpt lat="44.816679054756165" lon="4.787562958346203"><ele>109.0</ele><time>2026-03-23T17:31:26.999Z</time></trkpt><trkpt lat="44.81663273220626" lon="4.787700602724531"><ele>109.0</ele><time>2026-03-23T17:31:28.999Z</time></trkpt><trkpt lat="44.8165646162218" lon="4.787819948003483"><ele>109.0</ele><time>2026-03-23T17:31:30.999Z</time></trkpt><trkpt lat="44.81650996189051" lon="4.787950453797282"><ele>109.0</ele><time>2026-03-23T17:31:32.999Z</time></trkpt><trkpt lat="44.816455346174834" lon="4.788079906910917"><ele>109.0</ele><time>2026-03-23T17:31:34.999Z</time></trkpt><trkpt lat="44.81640601640121" lon="4.788211310426272"><ele>109.0</ele><time>2026-03-23T17:31:36.999Z</time></trkpt><trkpt lat="44.81635800117606" lon="4.788343992038707"><ele>109.0</ele><time>2026-03-23T17:31:38.999Z</time></trkpt><trkpt lat="44.81630246104186" lon="4.788465894343204"><ele>108.4</ele><time>2026-03-23T17:31:40.999Z</time></trkpt><trkpt lat="44.81625293388891" lon="4.78860448143643"><ele>107.80000000000001</ele><time>2026-03-23T17:31:42.999Z</time></trkpt><trkpt lat="44.81620070542233" lon="4.788729681495412"><ele>107.19999999999999</ele><time>2026-03-23T17:31:44.999Z</time></trkpt><trkpt lat="44.81613902197883" lon="4.788846389168957"><ele>106.6</ele><time>2026-03-23T17:31:46.999Z</time></trkpt><trkpt lat="44.81609122012856" lon="4.788971379450281"><ele>106.0</ele><time>2026-03-23T17:31:48.999Z</time></trkpt><trkpt lat="44.81603611294993" lon="4.789096801292925"><ele>106.00000000000001</ele><time>2026-03-23T17:31:50.999Z</time></trkpt><trkpt lat="44.81598678990554" lon="4.789206915289283"><ele>106.0</ele><time>2026-03-23T17:31:52.999Z</time></trkpt><trkpt lat="44.815942902683524" lon="4.789319713658505"><ele>106.0</ele><time>2026-03-23T17:31:54.999Z</time></trkpt><trkpt lat="44.81590682889868" lon="4.789420540785056"><ele>106.0</ele><time>2026-03-23T17:31:56.999Z</time></trkpt><trkpt lat="44.81586681946322" lon="4.789529916753561"><ele>106.00000000000001</ele><time>2026-03-23T17:31:58.999Z</time></trkpt><trkpt lat="44.81581976722516" lon="4.789627366992235"><ele>106.0</ele><time>2026-03-23T17:32:00.999Z</time></trkpt><trkpt lat="44.81577861543368" lon="4.789722552649469"><ele>106.6</ele><time>2026-03-23T17:32:02.999Z</time></trkpt><trkpt lat="44.81574957480226" lon="4.789838033562562"><ele>107.19999999999999</ele><time>2026-03-23T17:32:05.999Z</time></trkpt><trkpt lat="44.815699286544124" lon="4.7899631546396835"><ele>107.80000000000001</ele><time>2026-03-23T17:32:08.999Z</time></trkpt><trkpt lat="44.815650391467564" lon="4.790078424098892"><ele>108.4</ele><time>2026-03-23T17:32:10.999Z</time></trkpt><trkpt lat="44.81560951932089" lon="4.790190568105115"><ele>109.0</ele><time>2026-03-23T17:32:12.999Z</time></trkpt><trkpt lat="44.81556231432812" lon="4.790306704424775"><ele>109.00000000000001</ele><time>2026-03-23T17:32:14.998Z</time></trkpt><trkpt lat="44.81550748113434" lon="4.790401745357924"><ele>109.0</ele><time>2026-03-23T17:32:16.998Z</time></trkpt><trkpt lat="44.815454173156226" lon="4.790508563744346"><ele>109.0</ele><time>2026-03-23T17:32:18.998Z</time></trkpt><trkpt lat="44.815402811002436" lon="4.790602071708774"><ele>109.0</ele><time>2026-03-23T17:32:20.998Z</time></trkpt><trkpt lat="44.81535114167732" lon="4.790699162765845"><ele>109.00000000000001</ele><time>2026-03-23T17:32:22.998Z</time></trkpt><trkpt lat="44.815292160290625" lon="4.790810336010186"><ele>109.0</ele><time>2026-03-23T17:32:25.998Z</time></trkpt><trkpt lat="44.81522298223951" lon="4.790981612982352"><ele>109.71428571428572</ele><time>2026-03-23T17:33:19.998Z</time></trkpt><trkpt lat="44.815151610574944" lon="4.79099505278872"><ele>110.42857142857143</ele><time>2026-03-23T17:33:51.998Z</time></trkpt><trkpt lat="44.81511965966291" lon="4.79107523552702"><ele>111.14285714285714</ele><time>2026-03-23T17:33:53.998Z</time></trkpt><trkpt lat="44.815091516171805" lon="4.791160885937531"><ele>111.85714285714286</ele><time>2026-03-23T17:33:55.998Z</time></trkpt><trkpt lat="44.815038867075636" lon="4.791255648175895"><ele>112.57142857142856</ele><time>2026-03-23T17:33:57.998Z</time></trkpt><trkpt lat="44.81499705024601" lon="4.791352346720724"><ele>113.28571428571428</ele><time>2026-03-23T17:33:59.998Z</time></trkpt><trkpt lat="44.814964607900095" lon="4.791451555692855"><ele>114.0</ele><time>2026-03-23T17:34:01.998Z</time></trkpt><trkpt lat="44.814939032479266" lon="4.791555450562947"><ele>114.0</ele><time>2026-03-23T17:34:03.998Z</time></trkpt><trkpt lat="44.8149101947762" lon="4.791664518976487"><ele>114.0</ele><time>2026-03-23T17:34:05.998Z</time></trkpt><trkpt lat="44.81488847129136" lon="4.791766585300062"><ele>114.0</ele><time>2026-03-23T17:34:07.998Z</time></trkpt><trkpt lat="44.81487243010261" lon="4.791858909147147"><ele>114.0</ele><time>2026-03-23T17:34:09.998Z</time></trkpt><trkpt lat="44.81486735708221" lon="4.791968045888995"><ele>114.0</ele><time>2026-03-23T17:34:11.998Z</time></trkpt><trkpt lat="44.81486078003721" lon="4.79209501114671"><ele>114.0</ele><time>2026-03-23T17:34:14.998Z</time></trkpt><trkpt lat="44.81485335484583" lon="4.79220421880865"><ele>114.0</ele><time>2026-03-23T17:34:16.998Z</time></trkpt><trkpt lat="44.81485061660707" lon="4.79233001575357"><ele>114.0</ele><time>2026-03-23T17:34:18.998Z</time></trkpt><trkpt lat="44.81484666992734" lon="4.792465529743757"><ele>114.0</ele><time>2026-03-23T17:34:20.998Z</time></trkpt><trkpt lat="44.814850440753645" lon="4.792605902045397"><ele>114.0</ele><time>2026-03-23T17:34:22.998Z</time></trkpt><trkpt lat="44.81486378900941" lon="4.792764656905965"><ele>114.0</ele><time>2026-03-23T17:34:24.998Z</time></trkpt><trkpt lat="44.81487698390016" lon="4.792922082256532"><ele>114.4</ele><time>2026-03-23T17:34:26.998Z</time></trkpt><trkpt lat="44.814889992856976" lon="4.793086179054968"><ele>114.80000000000001</ele><time>2026-03-23T17:34:28.998Z</time></trkpt><trkpt lat="44.8148973156014" lon="4.793239262665402"><ele>115.19999999999999</ele><time>2026-03-23T17:34:30.998Z</time></trkpt><trkpt lat="44.814894654580804" lon="4.793396271047754"><ele>115.6</ele><time>2026-03-23T17:34:32.998Z</time></trkpt><trkpt lat="44.81486343525679" lon="4.793547115972978"><ele>116.0</ele><time>2026-03-23T17:34:34.998Z</time></trkpt><trkpt lat="44.81482158618009" lon="4.793697061218035"><ele>117.25</ele><time>2026-03-23T17:34:36.998Z</time></trkpt><trkpt lat="44.81476756423588" lon="4.79384428078038"><ele>118.5</ele><time>2026-03-23T17:34:38.998Z</time></trkpt><trkpt lat="44.81470955363124" lon="4.7939891889515875"><ele>119.75</ele><time>2026-03-23T17:34:40.998Z</time></trkpt><trkpt lat="44.814628024754825" lon="4.794114376882724"><ele>121.0</ele><time>2026-03-23T17:34:42.998Z</time></trkpt><trkpt lat="44.814529705133744" lon="4.794212486925012"><ele>121.00000000000001</ele><time>2026-03-23T17:34:44.998Z</time></trkpt><trkpt lat="44.81442963139303" lon="4.794312385776442"><ele>121.0</ele><time>2026-03-23T17:34:46.998Z</time></trkpt><trkpt lat="44.814368693237334" lon="4.794345001813841"><ele>121.0</ele><time>2026-03-23T17:34:47.998Z</time></trkpt><trkpt lat="44.81426226182884" lon="4.79439317875555"><ele>121.0</ele><time>2026-03-23T17:34:49.998Z</time></trkpt><trkpt lat="44.81419728634181" lon="4.79441415679674"><ele>121.00000000000001</ele><time>2026-03-23T17:34:50.998Z</time></trkpt><trkpt lat="44.81412497289912" lon="4.794422640340954"><ele>121.0</ele><time>2026-03-23T17:34:51.998Z</time></trkpt><trkpt lat="44.813989840100206" lon="4.794422916970812"><ele>121.14285714285714</ele><time>2026-03-23T17:34:53.998Z</time></trkpt><trkpt lat="44.81392549010112" lon="4.794413037659228"><ele>121.28571428571428</ele><time>2026-03-23T17:34:54.998Z</time></trkpt><trkpt lat="44.81385651754097" lon="4.79440992532323"><ele>121.42857142857142</ele><time>2026-03-23T17:34:55.998Z</time></trkpt><trkpt lat="44.81379228528769" lon="4.794401307739356"><ele>121.57142857142856</ele><time>2026-03-23T17:34:56.998Z</time></trkpt><trkpt lat="44.813717147897805" lon="4.794386848995577"><ele>121.71428571428571</ele><time>2026-03-23T17:34:57.998Z</time></trkpt><trkpt lat="44.81363953889608" lon="4.794382012786807"><ele>121.85714285714283</ele><time>2026-03-23T17:34:58.999Z</time></trkpt><trkpt lat="44.81357442836489" lon="4.79438961501105"><ele>121.99999999999999</ele><time>2026-03-23T17:34:59.998Z</time></trkpt><trkpt lat="44.813500562528006" lon="4.794400948179364"><ele>121.42857142857142</ele><time>2026-03-23T17:35:00.998Z</time></trkpt><trkpt lat="44.81342848259508" lon="4.794405705841315"><ele>120.85714285714286</ele><time>2026-03-23T17:35:01.998Z</time></trkpt><trkpt lat="44.813356825311025" lon="4.794415642037585"><ele>120.28571428571428</ele><time>2026-03-23T17:35:02.999Z</time></trkpt><trkpt lat="44.81329096190464" lon="4.7944258841055065"><ele>119.71428571428571</ele><time>2026-03-23T17:35:03.999Z</time></trkpt><trkpt lat="44.81322651527037" lon="4.794447247826094"><ele>119.14285714285714</ele><time>2026-03-23T17:35:04.998Z</time></trkpt><trkpt lat="44.813157383279595" lon="4.79446611792863"><ele>118.57142857142857</ele><time>2026-03-23T17:35:05.999Z</time></trkpt><trkpt lat="44.81309149048631" lon="4.794483314250687"><ele>118.0</ele><time>2026-03-23T17:35:06.999Z</time></trkpt><trkpt lat="44.81297325365732" lon="4.794525230834292"><ele>118.0</ele><time>2026-03-23T17:35:08.999Z</time></trkpt><trkpt lat="44.812869557326984" lon="4.79457632182415"><ele>118.00000000000001</ele><time>2026-03-23T17:35:10.999Z</time></trkpt><trkpt lat="44.812805461287375" lon="4.794611428058438"><ele>118.00000000000001</ele><time>2026-03-23T17:35:11.999Z</time></trkpt><trkpt lat="44.81270923841204" lon="4.794682122837911"><ele>118.0</ele><time>2026-03-23T17:35:13.999Z</time></trkpt><trkpt lat="44.8126323410056" lon="4.794727120067549"><ele>118.0</ele><time>2026-03-23T17:35:15.999Z</time></trkpt><trkpt lat="44.812563851066" lon="4.794825458573362"><ele>116.60000000000001</ele><time>2026-03-23T17:35:18.999Z</time></trkpt><trkpt lat="44.812544174222225" lon="4.794967215346032"><ele>115.20000000000002</ele><time>2026-03-23T17:35:20.999Z</time></trkpt><trkpt lat="44.812503848703145" lon="4.7951451203865645"><ele>113.8</ele><time>2026-03-23T17:35:22.999Z</time></trkpt><trkpt lat="44.812477286261164" lon="4.7952438228161"><ele>112.4</ele><time>2026-03-23T17:35:23.999Z</time></trkpt><trkpt lat="44.812441989655724" lon="4.795331407230466"><ele>111.0</ele><time>2026-03-23T17:35:24.999Z</time></trkpt><trkpt lat="44.81241331414381" lon="4.795423570378377"><ele>110.66666666666667</ele><time>2026-03-23T17:35:25.999Z</time></trkpt><trkpt lat="44.812377823962834" lon="4.795522939220165"><ele>110.33333333333334</ele><time>2026-03-23T17:35:26.999Z</time></trkpt><trkpt lat="44.81235069382552" lon="4.7956144305668404"><ele>110.0</ele><time>2026-03-23T17:35:27.999Z</time></trkpt><trkpt lat="44.812317836388324" lon="4.795707356765748"><ele>109.66666666666667</ele><time>2026-03-23T17:35:28.998Z</time></trkpt><trkpt lat="44.812314306127845" lon="4.795814037544571"><ele>109.33333333333334</ele><time>2026-03-23T17:35:29.998Z</time></trkpt><trkpt lat="44.81235346314365" lon="4.795917704268975"><ele>109.0</ele><time>2026-03-23T17:35:30.998Z</time></trkpt><trkpt lat="44.81241281670298" lon="4.795983805410203"><ele>109.66666666666667</ele><time>2026-03-23T17:35:31.998Z</time></trkpt><trkpt lat="44.81247140765378" lon="4.796036109583741"><ele>110.33333333333334</ele><time>2026-03-23T17:35:32.998Z</time></trkpt><trkpt lat="44.81252887388113" lon="4.796088113493452"><ele>111.0</ele><time>2026-03-23T17:35:33.998Z</time></trkpt><trkpt lat="44.8125888482726" lon="4.796138332321855"><ele>111.66666666666666</ele><time>2026-03-23T17:35:34.998Z</time></trkpt><trkpt lat="44.81263656271286" lon="4.796199908219361"><ele>112.33333333333333</ele><time>2026-03-23T17:35:35.998Z</time></trkpt><trkpt lat="44.81271590213036" lon="4.796323257574793"><ele>113.0</ele><time>2026-03-23T17:35:37.998Z</time></trkpt><trkpt lat="44.81275965901903" lon="4.796389051627013"><ele>113.0</ele><time>2026-03-23T17:35:38.998Z</time></trkpt><trkpt lat="44.81284600022052" lon="4.796492074669893"><ele>113.0</ele><time>2026-03-23T17:35:40.998Z</time></trkpt><trkpt lat="44.81293420078166" lon="4.796612861473346"><ele>113.0</ele><time>2026-03-23T17:35:42.998Z</time></trkpt><trkpt lat="44.81302961711892" lon="4.796711722021966"><ele>113.0</ele><time>2026-03-23T17:35:44.998Z</time></trkpt><trkpt lat="44.813124868223426" lon="4.796814296967756"><ele>112.0</ele><time>2026-03-23T17:35:46.998Z</time></trkpt><trkpt lat="44.81322543121404" lon="4.796899824353412"><ele>111.00000000000001</ele><time>2026-03-23T17:35:48.998Z</time></trkpt><trkpt lat="44.81328092509978" lon="4.796943886405311"><ele>110.00000000000001</ele><time>2026-03-23T17:35:49.998Z</time></trkpt><trkpt lat="44.813389784350775" lon="4.797015214381487"><ele>109.0</ele><time>2026-03-23T17:35:51.998Z</time></trkpt><trkpt lat="44.81349597718331" lon="4.797096043997462"><ele>108.0</ele><time>2026-03-23T17:35:53.998Z</time></trkpt><trkpt lat="44.81359224942249" lon="4.7972031085675875"><ele>108.0</ele><time>2026-03-23T17:35:55.998Z</time></trkpt><trkpt lat="44.81368245495734" lon="4.797318360303414"><ele>108.00000000000001</ele><time>2026-03-23T17:35:57.998Z</time></trkpt><trkpt lat="44.81377118428274" lon="4.797431054277376"><ele>108.00000000000001</ele><time>2026-03-23T17:35:59.998Z</time></trkpt><trkpt lat="44.81383761894505" lon="4.79757557889115"><ele>108.0</ele><time>2026-03-23T17:36:01.998Z</time></trkpt><trkpt lat="44.81383507895554" lon="4.797665079248207"><ele>108.0</ele><time>2026-03-23T17:36:02.998Z</time></trkpt><trkpt lat="44.81380486308562" lon="4.797764733894602"><ele>106.5</ele><time>2026-03-23T17:36:03.998Z</time></trkpt><trkpt lat="44.81378361755154" lon="4.797854457718258"><ele>105.0</ele><time>2026-03-23T17:36:04.998Z</time></trkpt><trkpt lat="44.81371033827153" lon="4.797997197783432"><ele>103.5</ele><time>2026-03-23T17:36:06.998Z</time></trkpt><trkpt lat="44.81364441480283" lon="4.79803724769833"><ele>102.0</ele><time>2026-03-23T17:36:07.998Z</time></trkpt><trkpt lat="44.813577552773545" lon="4.798067636060427"><ele>100.5</ele><time>2026-03-23T17:36:08.998Z</time></trkpt><trkpt lat="44.81352372539836" lon="4.7981184444091545"><ele>99.0</ele><time>2026-03-23T17:36:09.998Z</time></trkpt><trkpt lat="44.813484917267985" lon="4.798196672993942"><ele>98.66666666666667</ele><time>2026-03-23T17:36:10.998Z</time></trkpt><trkpt lat="44.8134536336033" lon="4.798276688188146"><ele>98.33333333333334</ele><time>2026-03-23T17:36:11.998Z</time></trkpt><trkpt lat="44.81340690525481" lon="4.798391143745757"><ele>98.0</ele><time>2026-03-23T17:36:13.998Z</time></trkpt><trkpt lat="44.81345253447501" lon="4.798501533286996"><ele>97.66666666666667</ele><time>2026-03-23T17:36:16.998Z</time></trkpt><trkpt lat="44.813549444053805" lon="4.798546651836961"><ele>97.33333333333334</ele><time>2026-03-23T17:36:18.998Z</time></trkpt><trkpt lat="44.813630501668584" lon="4.79857913612532"><ele>97.0</ele><time>2026-03-23T17:36:20.998Z</time></trkpt><trkpt lat="44.813724823581055" lon="4.798624539123062"><ele>97.0</ele><time>2026-03-23T17:36:22.998Z</time></trkpt><trkpt lat="44.81381983293415" lon="4.79867281888921"><ele>97.0</ele><time>2026-03-23T17:36:24.998Z</time></trkpt><trkpt lat="44.81391410688605" lon="4.798684948216984"><ele>97.0</ele><time>2026-03-23T17:36:26.998Z</time></trkpt><trkpt lat="44.81401183575508" lon="4.798702614597098"><ele>97.0</ele><time>2026-03-23T17:36:28.998Z</time></trkpt><trkpt lat="44.814098625952056" lon="4.798718580858422"><ele>97.0</ele><time>2026-03-23T17:36:30.998Z</time></trkpt><trkpt lat="44.8141980467252" lon="4.798759426375224"><ele>97.0</ele><time>2026-03-23T17:36:32.998Z</time></trkpt><trkpt lat="44.81430576614828" lon="4.798791293493825"><ele>97.0</ele><time>2026-03-23T17:36:34.998Z</time></trkpt><trkpt lat="44.81441724060726" lon="4.798803854204281"><ele>97.0</ele><time>2026-03-23T17:36:36.998Z</time></trkpt><trkpt lat="44.814522603611415" lon="4.798825982488184"><ele>97.0</ele><time>2026-03-23T17:36:38.998Z</time></trkpt><trkpt lat="44.81463742656272" lon="4.798860823190351"><ele>97.0</ele><time>2026-03-23T17:36:40.998Z</time></trkpt><trkpt lat="44.814743174646395" lon="4.79891242146012"><ele>97.39999999999999</ele><time>2026-03-23T17:36:42.998Z</time></trkpt><trkpt lat="44.8148597253945" lon="4.798941100581277"><ele>97.8</ele><time>2026-03-23T17:36:44.998Z</time></trkpt><trkpt lat="44.81496734744264" lon="4.798954226627429"><ele>98.2</ele><time>2026-03-23T17:36:46.998Z</time></trkpt><trkpt lat="44.81507581584562" lon="4.798953435507749"><ele>98.6</ele><time>2026-03-23T17:36:48.998Z</time></trkpt><trkpt lat="44.8151836556484" lon="4.798959270754749"><ele>99.0</ele><time>2026-03-23T17:36:50.998Z</time></trkpt><trkpt lat="44.815288762960016" lon="4.798962920191514"><ele>98.0</ele><time>2026-03-23T17:36:52.998Z</time></trkpt><trkpt lat="44.815403826459814" lon="4.798942652890319"><ele>97.0</ele><time>2026-03-23T17:36:54.998Z</time></trkpt><trkpt lat="44.81548953085043" lon="4.798943284277417"><ele>96.0</ele><time>2026-03-23T17:36:56.998Z</time></trkpt><trkpt lat="44.81549549851509" lon="4.799097433426556"><ele>95.0</ele><time>2026-03-23T17:36:59.998Z</time></trkpt><trkpt lat="44.8154454044703" lon="4.799204747449241"><ele>94.0</ele><time>2026-03-23T17:37:01.998Z</time></trkpt><trkpt lat="44.81545185587279" lon="4.7993327475857726"><ele>94.0</ele><time>2026-03-23T17:37:03.998Z</time></trkpt><trkpt lat="44.81551634775743" lon="4.799438531525687"><ele>94.0</ele><time>2026-03-23T17:37:05.999Z</time></trkpt><trkpt lat="44.81557697329728" lon="4.799536740391186"><ele>94.0</ele><time>2026-03-23T17:37:07.999Z</time></trkpt><trkpt lat="44.81563886138932" lon="4.799640108811817"><ele>94.0</ele><time>2026-03-23T17:37:09.998Z</time></trkpt><trkpt lat="44.815707800231415" lon="4.799730542336267"><ele>94.0</ele><time>2026-03-23T17:37:11.999Z</time></trkpt><trkpt lat="44.81576307923501" lon="4.799823006135469"><ele>94.0</ele><time>2026-03-23T17:37:13.999Z</time></trkpt><trkpt lat="44.81582676797735" lon="4.799930183797197"><ele>94.0</ele><time>2026-03-23T17:37:15.999Z</time></trkpt><trkpt lat="44.81589278333097" lon="4.800045888120847"><ele>94.0</ele><time>2026-03-23T17:37:17.999Z</time></trkpt><trkpt lat="44.81594662338103" lon="4.800155436914537"><ele>94.0</ele><time>2026-03-23T17:37:19.999Z</time></trkpt><trkpt lat="44.81602016984283" lon="4.800253864791488"><ele>94.0</ele><time>2026-03-23T17:37:21.999Z</time></trkpt><trkpt lat="44.816084866147314" lon="4.8003573119552625"><ele>94.0</ele><time>2026-03-23T17:37:23.999Z</time></trkpt><trkpt lat="44.81614721518472" lon="4.80047858009941"><ele>94.0</ele><time>2026-03-23T17:37:25.999Z</time></trkpt><trkpt lat="44.81620686261727" lon="4.800586273018121"><ele>94.0</ele><time>2026-03-23T17:37:27.999Z</time></trkpt><trkpt lat="44.816265349283704" lon="4.800689272425149"><ele>94.0</ele><time>2026-03-23T17:37:29.999Z</time></trkpt><trkpt lat="44.816322590680414" lon="4.800798131129204"><ele>94.0</ele><time>2026-03-23T17:37:31.999Z</time></trkpt><trkpt lat="44.81638932484834" lon="4.8009118987303445"><ele>94.0</ele><time>2026-03-23T17:37:33.999Z</time></trkpt><trkpt lat="44.8164410718437" lon="4.801012560760034"><ele>94.0</ele><time>2026-03-23T17:37:35.999Z</time></trkpt><trkpt lat="44.816510400407346" lon="4.801126129797498"><ele>94.0</ele><time>2026-03-23T17:37:37.999Z</time></trkpt><trkpt lat="44.81657345366557" lon="4.801219751817207"><ele>94.0</ele><time>2026-03-23T17:37:39.999Z</time></trkpt><trkpt lat="44.81664056567356" lon="4.801301267291045"><ele>94.0</ele><time>2026-03-23T17:37:41.999Z</time></trkpt><trkpt lat="44.81669989897252" lon="4.801381927710275"><ele>94.0</ele><time>2026-03-23T17:37:43.999Z</time></trkpt><trkpt lat="44.816765795209086" lon="4.801432299164046"><ele>94.0</ele><time>2026-03-23T17:37:45.999Z</time></trkpt><trkpt lat="44.816851955023154" lon="4.801448724997167"><ele>94.0</ele><time>2026-03-23T17:37:47.999Z</time></trkpt><trkpt lat="44.81693391566946" lon="4.80146932979686"><ele>94.0</ele><time>2026-03-23T17:37:49.999Z</time></trkpt><trkpt lat="44.81702134088984" lon="4.801464848183888"><ele>94.0</ele><time>2026-03-23T17:37:51.999Z</time></trkpt><trkpt lat="44.81711026574223" lon="4.801459861034524"><ele>94.0</ele><time>2026-03-23T17:37:53.999Z</time></trkpt><trkpt lat="44.81721015030407" lon="4.801467229333552"><ele>94.0</ele><time>2026-03-23T17:37:55.999Z</time></trkpt><trkpt lat="44.817303261538726" lon="4.8014509763844515"><ele>94.0</ele><time>2026-03-23T17:37:57.999Z</time></trkpt><trkpt lat="44.817397779411976" lon="4.8014430075166565"><ele>94.0</ele><time>2026-03-23T17:37:59.999Z</time></trkpt><trkpt lat="44.81749140587427" lon="4.8014362284583765"><ele>94.0</ele><time>2026-03-23T17:38:01.999Z</time></trkpt><trkpt lat="44.81759740471978" lon="4.8014266375719155"><ele>94.0</ele><time>2026-03-23T17:38:03.999Z</time></trkpt><trkpt lat="44.8176990731756" lon="4.801418818089692"><ele>94.0</ele><time>2026-03-23T17:38:05.999Z</time></trkpt><trkpt lat="44.81780291674775" lon="4.8013996143592905"><ele>94.0</ele><time>2026-03-23T17:38:07.999Z</time></trkpt><trkpt lat="44.81789778318413" lon="4.8013967091778245"><ele>94.0</ele><time>2026-03-23T17:38:09.999Z</time></trkpt><trkpt lat="44.81800160894997" lon="4.801386766724557"><ele>94.0</ele><time>2026-03-23T17:38:11.999Z</time></trkpt><trkpt lat="44.81810338965237" lon="4.801379883613495"><ele>94.0</ele><time>2026-03-23T17:38:13.999Z</time></trkpt><trkpt lat="44.81820784756275" lon="4.801358226041654"><ele>94.0</ele><time>2026-03-23T17:38:15.999Z</time></trkpt><trkpt lat="44.818313689353964" lon="4.801347344079201"><ele>94.0</ele><time>2026-03-23T17:38:17.999Z</time></trkpt><trkpt lat="44.818418910937666" lon="4.801332305871971"><ele>94.0</ele><time>2026-03-23T17:38:19.998Z</time></trkpt><trkpt lat="44.81852683788148" lon="4.801321934821383"><ele>94.0</ele><time>2026-03-23T17:38:21.998Z</time></trkpt><trkpt lat="44.818629588285525" lon="4.8013046299057915"><ele>94.0</ele><time>2026-03-23T17:38:23.998Z</time></trkpt><trkpt lat="44.81872723770088" lon="4.801287402221839"><ele>94.4</ele><time>2026-03-23T17:38:25.998Z</time></trkpt><trkpt lat="44.818829514246865" lon="4.801270945807075"><ele>94.80000000000001</ele><time>2026-03-23T17:38:27.998Z</time></trkpt><trkpt lat="44.81893457736417" lon="4.8012617342646005"><ele>95.19999999999999</ele><time>2026-03-23T17:38:29.998Z</time></trkpt><trkpt lat="44.819033457269335" lon="4.801243077318166"><ele>95.6</ele><time>2026-03-23T17:38:31.998Z</time></trkpt><trkpt lat="44.819139798257865" lon="4.801226235414317"><ele>96.0</ele><time>2026-03-23T17:38:33.998Z</time></trkpt><trkpt lat="44.81923972669531" lon="4.801209537449944"><ele>95.8</ele><time>2026-03-23T17:38:35.998Z</time></trkpt><trkpt lat="44.81933978520752" lon="4.801189491565086"><ele>95.6</ele><time>2026-03-23T17:38:37.998Z</time></trkpt><trkpt lat="44.81944893226278" lon="4.8011704689903105"><ele>95.4</ele><time>2026-03-23T17:38:39.998Z</time></trkpt><trkpt lat="44.81954634900688" lon="4.801157759444127"><ele>95.2</ele><time>2026-03-23T17:38:41.998Z</time></trkpt><trkpt lat="44.819656055373976" lon="4.801149500066675"><ele>95.0</ele><time>2026-03-23T17:38:43.998Z</time></trkpt><trkpt lat="44.81975340112508" lon="4.8011455729395625"><ele>95.0</ele><time>2026-03-23T17:38:45.998Z</time></trkpt><trkpt lat="44.81985426991601" lon="4.801142563520423"><ele>95.0</ele><time>2026-03-23T17:38:47.998Z</time></trkpt><trkpt lat="44.81995251801531" lon="4.801124835036624"><ele>95.0</ele><time>2026-03-23T17:38:49.998Z</time></trkpt><trkpt lat="44.82005767589715" lon="4.801117343408078"><ele>95.0</ele><time>2026-03-23T17:38:51.998Z</time></trkpt><trkpt lat="44.82016552111257" lon="4.801103889872587"><ele>95.0</ele><time>2026-03-23T17:38:53.998Z</time></trkpt><trkpt lat="44.82026984983209" lon="4.801093993247669"><ele>94.8</ele><time>2026-03-23T17:38:55.998Z</time></trkpt><trkpt lat="44.82036402265847" lon="4.801059357528033"><ele>94.6</ele><time>2026-03-23T17:38:57.998Z</time></trkpt><trkpt lat="44.82047070741109" lon="4.801049830291168"><ele>94.4</ele><time>2026-03-23T17:38:59.998Z</time></trkpt><trkpt lat="44.82057141655427" lon="4.801029899689344"><ele>94.2</ele><time>2026-03-23T17:39:01.998Z</time></trkpt><trkpt lat="44.82067304549688" lon="4.8010085115541035"><ele>94.0</ele><time>2026-03-23T17:39:03.998Z</time></trkpt><trkpt lat="44.82077288494643" lon="4.8009922715318645"><ele>94.0</ele><time>2026-03-23T17:39:05.999Z</time></trkpt><trkpt lat="44.820887401414254" lon="4.8009687751464485"><ele>94.0</ele><time>2026-03-23T17:39:07.998Z</time></trkpt><trkpt lat="44.82099727657312" lon="4.800947906711347"><ele>94.0</ele><time>2026-03-23T17:39:09.999Z</time></trkpt><trkpt lat="44.82109762955542" lon="4.8009173781280525"><ele>94.0</ele><time>2026-03-23T17:39:11.998Z</time></trkpt><trkpt lat="44.821195628042325" lon="4.800873656394039"><ele>94.0</ele><time>2026-03-23T17:39:13.998Z</time></trkpt><trkpt lat="44.821283516738525" lon="4.800832959966742"><ele>94.0</ele><time>2026-03-23T17:39:15.998Z</time></trkpt><trkpt lat="44.82138466027123" lon="4.800794551737032"><ele>94.0</ele><time>2026-03-23T17:39:17.999Z</time></trkpt><trkpt lat="44.82147969081307" lon="4.8007482458665205"><ele>94.0</ele><time>2026-03-23T17:39:19.999Z</time></trkpt><trkpt lat="44.82157916317321" lon="4.800693225423054"><ele>94.0</ele><time>2026-03-23T17:39:21.999Z</time></trkpt><trkpt lat="44.82167656730725" lon="4.800631064870893"><ele>94.0</ele><time>2026-03-23T17:39:23.999Z</time></trkpt><trkpt lat="44.82176493702886" lon="4.800579648139119"><ele>94.6</ele><time>2026-03-23T17:39:25.999Z</time></trkpt><trkpt lat="44.82184635837066" lon="4.800503376221958"><ele>95.2</ele><time>2026-03-23T17:39:27.999Z</time></trkpt><trkpt lat="44.821920488103196" lon="4.800397735468688"><ele>95.8</ele><time>2026-03-23T17:39:29.999Z</time></trkpt><trkpt lat="44.821978462802946" lon="4.8002844469831585"><ele>96.39999999999999</ele><time>2026-03-23T17:39:31.998Z</time></trkpt><trkpt lat="44.82202418231794" lon="4.800165390548972"><ele>97.0</ele><time>2026-03-23T17:39:33.998Z</time></trkpt><trkpt lat="44.82208031400393" lon="4.800046307287993"><ele>97.19999999999999</ele><time>2026-03-23T17:39:35.997Z</time></trkpt><trkpt lat="44.822160455669575" lon="4.7999612161048"><ele>97.4</ele><time>2026-03-23T17:39:37.997Z</time></trkpt><trkpt lat="44.822252422766276" lon="4.799888077673832"><ele>97.6</ele><time>2026-03-23T17:39:39.997Z</time></trkpt><trkpt lat="44.8223411917735" lon="4.799836669707327"><ele>97.80000000000001</ele><time>2026-03-23T17:39:41.996Z</time></trkpt><trkpt lat="44.822425125858295" lon="4.799767554350881"><ele>98.0</ele><time>2026-03-23T17:39:43.996Z</time></trkpt><trkpt lat="44.822521873009926" lon="4.799710324412851"><ele>98.0</ele><time>2026-03-23T17:39:45.996Z</time></trkpt><trkpt lat="44.822620414522625" lon="4.799667192061814"><ele>98.0</ele><time>2026-03-23T17:39:47.996Z</time></trkpt><trkpt lat="44.82272113720645" lon="4.799625354527871"><ele>98.0</ele><time>2026-03-23T17:39:49.995Z</time></trkpt><trkpt lat="44.822825084046805" lon="4.799593249555797"><ele>98.0</ele><time>2026-03-23T17:39:51.995Z</time></trkpt><trkpt lat="44.82291666266116" lon="4.799535637086038"><ele>98.0</ele><time>2026-03-23T17:39:53.995Z</time></trkpt><trkpt lat="44.82299183055485" lon="4.799446804136355"><ele>98.0</ele><time>2026-03-23T17:39:55.995Z</time></trkpt><trkpt lat="44.82307332808754" lon="4.7993750547065535"><ele>98.0</ele><time>2026-03-23T17:39:57.995Z</time></trkpt><trkpt lat="44.82314853735297" lon="4.799312633290702"><ele>98.0</ele><time>2026-03-23T17:39:59.995Z</time></trkpt><trkpt lat="44.82322216501123" lon="4.799225582115975"><ele>98.0</ele><time>2026-03-23T17:40:01.995Z</time></trkpt><trkpt lat="44.82331148188545" lon="4.799139238469932"><ele>98.0</ele><time>2026-03-23T17:40:03.995Z</time></trkpt><trkpt lat="44.82337555695192" lon="4.799042617504354"><ele>98.0</ele><time>2026-03-23T17:40:05.995Z</time></trkpt><trkpt lat="44.823423738188104" lon="4.798942413475078"><ele>98.0</ele><time>2026-03-23T17:40:07.995Z</time></trkpt><trkpt lat="44.82345852141272" lon="4.798864618112811"><ele>98.0</ele><time>2026-03-23T17:40:09.994Z</time></trkpt><trkpt lat="44.823498866052425" lon="4.798788557126606"><ele>98.0</ele><time>2026-03-23T17:40:13.994Z</time></trkpt><trkpt lat="44.823539333122" lon="4.7987073691887705"><ele>98.0</ele><time>2026-03-23T17:40:16.994Z</time></trkpt><trkpt lat="44.823567055663084" lon="4.798627680714607"><ele>98.0</ele><time>2026-03-23T17:40:19.994Z</time></trkpt><trkpt lat="44.82361040259137" lon="4.79853839027346"><ele>98.0</ele><time>2026-03-23T17:40:22.994Z</time></trkpt><trkpt lat="44.82365590537437" lon="4.7984510259005555"><ele>97.99999999999999</ele><time>2026-03-23T17:40:26.994Z</time></trkpt><trkpt lat="44.82368825527607" lon="4.7983663131874925"><ele>98.0</ele><time>2026-03-23T17:40:30.994Z</time></trkpt><trkpt lat="44.82370777326503" lon="4.79824850320808"><ele>98.0</ele><time>2026-03-23T17:40:35.994Z</time></trkpt><trkpt lat="44.8237346357839" lon="4.798158718102741"><ele>98.0</ele><time>2026-03-23T17:40:38.994Z</time></trkpt><trkpt lat="44.82379001636817" lon="4.79807392778329"><ele>97.99999999999999</ele><time>2026-03-23T17:40:42.994Z</time></trkpt><trkpt lat="44.82385862125889" lon="4.798149395325688"><ele>98.0</ele><time>2026-03-23T17:40:46.994Z</time></trkpt><trkpt lat="44.823917802467875" lon="4.798254185659403"><ele>97.99999999999999</ele><time>2026-03-23T17:40:49.994Z</time></trkpt><trkpt lat="44.8239586524925" lon="4.7983230685063845"><ele>98.0</ele><time>2026-03-23T17:40:51.994Z</time></trkpt><trkpt lat="44.82400524825256" lon="4.798400956140095"><ele>98.0</ele><time>2026-03-23T17:40:53.994Z</time></trkpt><trkpt lat="44.82404804910222" lon="4.798483753679449"><ele>98.0</ele><time>2026-03-23T17:40:55.994Z</time></trkpt><trkpt lat="44.82409776677103" lon="4.798567659885349"><ele>97.99999999999999</ele><time>2026-03-23T17:40:57.994Z</time></trkpt><trkpt lat="44.82414687304818" lon="4.798664418103783"><ele>98.0</ele><time>2026-03-23T17:40:59.994Z</time></trkpt><trkpt lat="44.824199481613924" lon="4.798762741481932"><ele>97.66666666666666</ele><time>2026-03-23T17:41:01.994Z</time></trkpt><trkpt lat="44.82424732702877" lon="4.798864308359315"><ele>97.33333333333333</ele><time>2026-03-23T17:41:03.994Z</time></trkpt><trkpt lat="44.82429736339381" lon="4.798963772586141"><ele>97.0</ele><time>2026-03-23T17:41:05.994Z</time></trkpt><trkpt lat="44.824351898423956" lon="4.799058353864225"><ele>96.66666666666666</ele><time>2026-03-23T17:41:07.994Z</time></trkpt><trkpt lat="44.824401806686524" lon="4.799160796757747"><ele>96.33333333333333</ele><time>2026-03-23T17:41:09.994Z</time></trkpt><trkpt lat="44.82445663587804" lon="4.799267987177234"><ele>96.0</ele><time>2026-03-23T17:41:11.993Z</time></trkpt><trkpt lat="44.824511807886225" lon="4.799375124112554"><ele>96.0</ele><time>2026-03-23T17:41:13.994Z</time></trkpt><trkpt lat="44.82456845886945" lon="4.7994819834891205"><ele>96.0</ele><time>2026-03-23T17:41:15.994Z</time></trkpt><trkpt lat="44.82462375323121" lon="4.799590283051441"><ele>96.0</ele><time>2026-03-23T17:41:17.994Z</time></trkpt><trkpt lat="44.82467474966191" lon="4.799695429256398"><ele>96.0</ele><time>2026-03-23T17:41:19.994Z</time></trkpt><trkpt lat="44.82472721859814" lon="4.799792945358914"><ele>96.0</ele><time>2026-03-23T17:41:21.993Z</time></trkpt><trkpt lat="44.824780025127616" lon="4.799890066727456"><ele>96.0</ele><time>2026-03-23T17:41:23.994Z</time></trkpt><trkpt lat="44.824842007355834" lon="4.79998725851966"><ele>96.0</ele><time>2026-03-23T17:41:25.994Z</time></trkpt><trkpt lat="44.824919952773584" lon="4.800063102265715"><ele>96.0</ele><time>2026-03-23T17:41:27.994Z</time></trkpt><trkpt lat="44.82499650224751" lon="4.80017638132668"><ele>96.0</ele><time>2026-03-23T17:41:29.994Z</time></trkpt><trkpt lat="44.82502173149817" lon="4.800265373049729"><ele>96.0</ele><time>2026-03-23T17:41:30.994Z</time></trkpt><trkpt lat="44.82507036099938" lon="4.800428921730895"><ele>96.28571428571428</ele><time>2026-03-23T17:41:32.994Z</time></trkpt><trkpt lat="44.82510183950679" lon="4.800507258700992"><ele>96.57142857142857</ele><time>2026-03-23T17:41:33.994Z</time></trkpt><trkpt lat="44.8251416548469" lon="4.800579603622067"><ele>96.85714285714286</ele><time>2026-03-23T17:41:34.994Z</time></trkpt><trkpt lat="44.82517618244439" lon="4.800656026757677"><ele>97.14285714285714</ele><time>2026-03-23T17:41:35.994Z</time></trkpt><trkpt lat="44.82521954296141" lon="4.800732043547687"><ele>97.42857142857143</ele><time>2026-03-23T17:41:36.994Z</time></trkpt><trkpt lat="44.825262865962074" lon="4.800808962992358"><ele>97.71428571428571</ele><time>2026-03-23T17:41:37.994Z</time></trkpt><trkpt lat="44.82530709950335" lon="4.800884710745516"><ele>98.0</ele><time>2026-03-23T17:41:38.994Z</time></trkpt><trkpt lat="44.82538910933344" lon="4.801039513089067"><ele>97.99999999999999</ele><time>2026-03-23T17:41:40.994Z</time></trkpt><trkpt lat="44.82546077109977" lon="4.8011824236696565"><ele>98.0</ele><time>2026-03-23T17:41:42.994Z</time></trkpt><trkpt lat="44.82550044479823" lon="4.801257432703667"><ele>98.0</ele><time>2026-03-23T17:41:43.994Z</time></trkpt><trkpt lat="44.82553650090992" lon="4.801331411983541"><ele>98.0</ele><time>2026-03-23T17:41:44.994Z</time></trkpt><trkpt lat="44.82557239467155" lon="4.801407697542071"><ele>97.99999999999999</ele><time>2026-03-23T17:41:45.994Z</time></trkpt><trkpt lat="44.82563891460607" lon="4.801565170612832"><ele>98.0</ele><time>2026-03-23T17:41:47.994Z</time></trkpt><trkpt lat="44.82569805117431" lon="4.801705859555047"><ele>98.0</ele><time>2026-03-23T17:41:49.994Z</time></trkpt><trkpt lat="44.82577926539373" lon="4.801848758695511"><ele>98.0</ele><time>2026-03-23T17:41:51.994Z</time></trkpt><trkpt lat="44.82585080755015" lon="4.8019826669044345"><ele>98.0</ele><time>2026-03-23T17:41:53.994Z</time></trkpt><trkpt lat="44.82592783477745" lon="4.802121053729276"><ele>98.0</ele><time>2026-03-23T17:41:55.994Z</time></trkpt><trkpt lat="44.8259662593476" lon="4.802192218236569"><ele>98.0</ele><time>2026-03-23T17:41:56.994Z</time></trkpt><trkpt lat="44.82604231289986" lon="4.802332140514596"><ele>99.5</ele><time>2026-03-23T17:41:58.994Z</time></trkpt><trkpt lat="44.82611104627341" lon="4.802473977527148"><ele>101.0</ele><time>2026-03-23T17:42:00.994Z</time></trkpt><trkpt lat="44.82617086528796" lon="4.802608448994998"><ele>102.5</ele><time>2026-03-23T17:42:02.994Z</time></trkpt><trkpt lat="44.82624515154424" lon="4.802735454793123"><ele>104.0</ele><time>2026-03-23T17:42:04.994Z</time></trkpt><trkpt lat="44.82631291305793" lon="4.802869277656502"><ele>104.0</ele><time>2026-03-23T17:42:06.994Z</time></trkpt><trkpt lat="44.826377263745755" lon="4.803007680250446"><ele>104.0</ele><time>2026-03-23T17:42:08.994Z</time></trkpt><trkpt lat="44.82645256284077" lon="4.803131439697132"><ele>104.0</ele><time>2026-03-23T17:42:10.994Z</time></trkpt><trkpt lat="44.826524013743146" lon="4.803268024693954"><ele>104.0</ele><time>2026-03-23T17:42:12.994Z</time></trkpt><trkpt lat="44.82659689692999" lon="4.803391104451046"><ele>102.75</ele><time>2026-03-23T17:42:14.994Z</time></trkpt><trkpt lat="44.82667506982824" lon="4.803507152633257"><ele>101.5</ele><time>2026-03-23T17:42:16.994Z</time></trkpt><trkpt lat="44.82676567373768" lon="4.803619706938242"><ele>100.25</ele><time>2026-03-23T17:42:18.994Z</time></trkpt><trkpt lat="44.826856412415864" lon="4.803730919371617"><ele>99.0</ele><time>2026-03-23T17:42:20.994Z</time></trkpt><trkpt lat="44.82694169014703" lon="4.803849241432744"><ele>101.2</ele><time>2026-03-23T17:42:22.994Z</time></trkpt><trkpt lat="44.82703813113476" lon="4.803939476020484"><ele>103.4</ele><time>2026-03-23T17:42:24.994Z</time></trkpt><trkpt lat="44.827131081020056" lon="4.804041518815732"><ele>105.6</ele><time>2026-03-23T17:42:26.994Z</time></trkpt><trkpt lat="44.82717895036756" lon="4.804105851270713"><ele>107.8</ele><time>2026-03-23T17:42:27.994Z</time></trkpt><trkpt lat="44.82725595881334" lon="4.804209554121449"><ele>110.0</ele><time>2026-03-23T17:42:29.994Z</time></trkpt><trkpt lat="44.82734192158915" lon="4.804314147472734"><ele>110.2</ele><time>2026-03-23T17:42:31.994Z</time></trkpt><trkpt lat="44.82742786835339" lon="4.804408424517255"><ele>110.4</ele><time>2026-03-23T17:42:33.994Z</time></trkpt><trkpt lat="44.82751266110961" lon="4.804508766824408"><ele>110.6</ele><time>2026-03-23T17:42:35.994Z</time></trkpt><trkpt lat="44.827603382242756" lon="4.804608294640382"><ele>110.8</ele><time>2026-03-23T17:42:37.994Z</time></trkpt><trkpt lat="44.82769766962454" lon="4.804681741655223"><ele>111.0</ele><time>2026-03-23T17:42:39.994Z</time></trkpt><trkpt lat="44.82779071183007" lon="4.804765920348271"><ele>111.0</ele><time>2026-03-23T17:42:41.994Z</time></trkpt><trkpt lat="44.82788388968822" lon="4.804856987854599"><ele>111.0</ele><time>2026-03-23T17:42:43.994Z</time></trkpt><trkpt lat="44.827984410265756" lon="4.804945755516359"><ele>111.0</ele><time>2026-03-23T17:42:45.994Z</time></trkpt><trkpt lat="44.828083130603076" lon="4.805029594564482"><ele>111.0</ele><time>2026-03-23T17:42:47.994Z</time></trkpt><trkpt lat="44.82817577455361" lon="4.805112284131655"><ele>110.0</ele><time>2026-03-23T17:42:49.994Z</time></trkpt><trkpt lat="44.82826927258609" lon="4.805208169263481"><ele>109.0</ele><time>2026-03-23T17:42:51.994Z</time></trkpt><trkpt lat="44.82837232396699" lon="4.805288472168744"><ele>108.0</ele><time>2026-03-23T17:42:53.994Z</time></trkpt><trkpt lat="44.82846983371064" lon="4.805384672074936"><ele>107.0</ele><time>2026-03-23T17:42:55.994Z</time></trkpt><trkpt lat="44.82856358968181" lon="4.805459119312087"><ele>107.0</ele><time>2026-03-23T17:42:57.994Z</time></trkpt><trkpt lat="44.82865982674909" lon="4.805534776377505"><ele>106.99999999999999</ele><time>2026-03-23T17:42:59.994Z</time></trkpt><trkpt lat="44.82871857189949" lon="4.805584695314084"><ele>106.99999999999999</ele><time>2026-03-23T17:43:00.994Z</time></trkpt><trkpt lat="44.82882509043793" lon="4.805656807290732"><ele>107.0</ele><time>2026-03-23T17:43:02.994Z</time></trkpt><trkpt lat="44.82893004490512" lon="4.805736399061104"><ele>107.0</ele><time>2026-03-23T17:43:04.994Z</time></trkpt><trkpt lat="44.829038124333024" lon="4.805807271518272"><ele>107.0</ele><time>2026-03-23T17:43:06.993Z</time></trkpt><trkpt lat="44.829145099552804" lon="4.805874142383684"><ele>107.0</ele><time>2026-03-23T17:43:08.993Z</time></trkpt><trkpt lat="44.82925241466673" lon="4.805935417078022"><ele>107.0</ele><time>2026-03-23T17:43:10.993Z</time></trkpt><trkpt lat="44.829356275499926" lon="4.806001514019071"><ele>107.0</ele><time>2026-03-23T17:43:12.993Z</time></trkpt><trkpt lat="44.82945907030218" lon="4.806087600359336"><ele>105.5</ele><time>2026-03-23T17:43:14.993Z</time></trkpt><trkpt lat="44.82956583209558" lon="4.80616410723206"><ele>104.0</ele><time>2026-03-23T17:43:16.994Z</time></trkpt><trkpt lat="44.82966124724071" lon="4.806233591964798"><ele>102.5</ele><time>2026-03-23T17:43:18.994Z</time></trkpt><trkpt lat="44.829764466334325" lon="4.806313717114289"><ele>101.0</ele><time>2026-03-23T17:43:20.993Z</time></trkpt><trkpt lat="44.82986571330701" lon="4.8063867962961"><ele>101.0</ele><time>2026-03-23T17:43:22.994Z</time></trkpt><trkpt lat="44.829959467998606" lon="4.806477048985924"><ele>101.0</ele><time>2026-03-23T17:43:24.993Z</time></trkpt><trkpt lat="44.830056946993096" lon="4.806560304698393"><ele>101.0</ele><time>2026-03-23T17:43:26.994Z</time></trkpt><trkpt lat="44.83014857370623" lon="4.806641565351756"><ele>101.0</ele><time>2026-03-23T17:43:28.993Z</time></trkpt><trkpt lat="44.830233419844056" lon="4.806718196793115"><ele>101.0</ele><time>2026-03-23T17:43:30.994Z</time></trkpt><trkpt lat="44.8303200479371" lon="4.806790538750553"><ele>100.4</ele><time>2026-03-23T17:43:32.994Z</time></trkpt><trkpt lat="44.83040077798801" lon="4.806866237705227"><ele>99.8</ele><time>2026-03-23T17:43:34.994Z</time></trkpt><trkpt lat="44.830491988616764" lon="4.806949839663297"><ele>99.2</ele><time>2026-03-23T17:43:36.994Z</time></trkpt><trkpt lat="44.83058918962496" lon="4.807030283617472"><ele>98.60000000000001</ele><time>2026-03-23T17:43:38.994Z</time></trkpt><trkpt lat="44.83068036719684" lon="4.807091954525737"><ele>98.0</ele><time>2026-03-23T17:43:40.994Z</time></trkpt><trkpt lat="44.830733556590815" lon="4.8071482549385305"><ele>98.0</ele><time>2026-03-23T17:43:41.994Z</time></trkpt><trkpt lat="44.83083428853951" lon="4.807227251685791"><ele>98.0</ele><time>2026-03-23T17:43:43.994Z</time></trkpt><trkpt lat="44.83092398773742" lon="4.807309824577704"><ele>98.0</ele><time>2026-03-23T17:43:45.994Z</time></trkpt><trkpt lat="44.8310176377255" lon="4.807385429446132"><ele>98.0</ele><time>2026-03-23T17:43:47.994Z</time></trkpt><trkpt lat="44.83111614411513" lon="4.807477769123281"><ele>98.0</ele><time>2026-03-23T17:43:49.994Z</time></trkpt><trkpt lat="44.83122347914877" lon="4.807583505082113"><ele>98.2</ele><time>2026-03-23T17:43:51.994Z</time></trkpt><trkpt lat="44.83132879177898" lon="4.807680881313006"><ele>98.4</ele><time>2026-03-23T17:43:53.994Z</time></trkpt><trkpt lat="44.83137908351454" lon="4.807737058504041"><ele>98.60000000000001</ele><time>2026-03-23T17:43:54.994Z</time></trkpt><trkpt lat="44.831430447240876" lon="4.807795295424736"><ele>98.80000000000001</ele><time>2026-03-23T17:43:55.994Z</time></trkpt><trkpt lat="44.83151678103861" lon="4.807905294159369"><ele>99.0</ele><time>2026-03-23T17:43:57.994Z</time></trkpt><trkpt lat="44.831596329279535" lon="4.80802352987129"><ele>99.0</ele><time>2026-03-23T17:43:59.994Z</time></trkpt><trkpt lat="44.831664571781964" lon="4.808147107330804"><ele>99.0</ele><time>2026-03-23T17:44:01.994Z</time></trkpt><trkpt lat="44.83172265167763" lon="4.808253828048709"><ele>99.0</ele><time>2026-03-23T17:44:03.994Z</time></trkpt><trkpt lat="44.83171639462175" lon="4.808361351520107"><ele>99.0</ele><time>2026-03-23T17:44:05.994Z</time></trkpt><trkpt lat="44.8316390204273" lon="4.808443962864116"><ele>99.0</ele><time>2026-03-23T17:44:07.994Z</time></trkpt><trkpt lat="44.83158778703775" lon="4.808505712764533"><ele>99.0</ele><time>2026-03-23T17:44:08.994Z</time></trkpt><trkpt lat="44.83152775941231" lon="4.808568596488456"><ele>98.66666666666667</ele><time>2026-03-23T17:44:09.994Z</time></trkpt><trkpt lat="44.83147100107203" lon="4.808632283007634"><ele>98.33333333333334</ele><time>2026-03-23T17:44:10.994Z</time></trkpt><trkpt lat="44.83141687104003" lon="4.808697887943379"><ele>98.0</ele><time>2026-03-23T17:44:11.994Z</time></trkpt><trkpt lat="44.831364926835775" lon="4.808749943773281"><ele>97.66666666666667</ele><time>2026-03-23T17:44:12.994Z</time></trkpt><trkpt lat="44.83130477357241" lon="4.808796338499795"><ele>97.33333333333334</ele><time>2026-03-23T17:44:13.994Z</time></trkpt><trkpt lat="44.831250535068776" lon="4.808849842502173"><ele>97.0</ele><time>2026-03-23T17:44:14.994Z</time></trkpt><trkpt lat="44.83115952861293" lon="4.808963361807409"><ele>97.0</ele><time>2026-03-23T17:44:16.994Z</time></trkpt><trkpt lat="44.83110752206396" lon="4.809014580973643"><ele>97.0</ele><time>2026-03-23T17:44:17.994Z</time></trkpt><trkpt lat="44.830991988789904" lon="4.809044484069939"><ele>97.0</ele><time>2026-03-23T17:44:19.994Z</time></trkpt><trkpt lat="44.83088582740095" lon="4.809108033006217"><ele>97.0</ele><time>2026-03-23T17:44:21.994Z</time></trkpt><trkpt lat="44.830786668787134" lon="4.809193424313803"><ele>97.0</ele><time>2026-03-23T17:44:23.994Z</time></trkpt><trkpt lat="44.83069436455399" lon="4.809270368713515"><ele>96.0</ele><time>2026-03-23T17:44:25.994Z</time></trkpt><trkpt lat="44.830610459604" lon="4.809349598696734"><ele>97.0</ele><time>2026-03-23T17:44:27.994Z</time></trkpt><trkpt lat="44.83053314173425" lon="4.809386817843159"><ele>97.0</ele><time>2026-03-23T17:44:29.994Z</time></trkpt></trkseg></trk></gpx>